[[{"header":{"parameterUnit":"m.s-1","parameterCategory":1,"la1":31.0,"la2":29.5877,"lo1":-88.7671,"lo2":-86.6584,"dy":0.0162,"dx":0.0185,"nx":115,"ny":88,"refTime":"2023-04-28T18:00:00:Z","depth":0,"parameterNumber":2,"parameterNumberName":"U-component_of_WINDS"},"data":[0.0,0.0,0.0,0.0,0.0,0.0,0.0,0.0,0.0,0.0,0.0,0.0,0.0,0.0,0.0,0.0,0.0,0.0,0.0,0.0,0.0,0.0,0.0,0.0,0.0,0.0,0.0,0.0,0.0,0.0,0.0,0.0,0.0,0.0,0.0,0.0,0.0,0.0,0.0,0.0,0.0,0.0,0.0,0.0,0.0,0.0,0.0,0.0,0.0,0.0,0.0,0.0,0.0,0.0,0.0,0.0,0.0,0.0,0.0,0.0,0.0,0.0,0.0,0.0,0.0,0.0,0.0,0.0,0.0,0.0,0.0,0.0,0.0,0.0,0.0,0.0,0.0,0.0,0.0,0.0,0.0,0.0,0.0,0.0,0.0,0.0,0.0,0.0,0.0,0.0,0.0,0.0,0.0,0.0,0.0,0.0,0.0,0.0,0.0,0.0,0.0,0.0,0.0,0.0,0.0,0.0,0.0,0.0,0.0,0.0,0.0,0.0,0.0,0.0,0.0,0.0,0.0,0.0,0.0,0.0,0.0,0.0,0.0,0.0,0.0,0.0,0.0,0.0,0.0,0.0,0.0,0.0,0.0,0.0,0.0,0.0,0.0,0.0,0.0,0.0,0.0,0.0,0.0,0.0,0.0,0.0,0.0,0.0,0.0,0.0,0.0,0.0,0.0,0.0,0.0,0.0,0.0,0.0,0.0,0.0,0.0,0.0,0.0,0.0,0.0,0.0,0.0,0.0,0.0,0.0,0.0,0.0,0.0,0.0,0.0,0.0,0.0,0.0,0.0,0.0,0.0,0.0,0.0,0.0,0.0,0.0,0.0,0.0,0.0,0.0,0.0,0.0,0.0,0.0,0.0,0.0,0.0,0.0,0.0,0.0,0.0,0.0,0.0,0.0,0.0,0.0,0.0,0.0,0.0,0.0,0.0,0.0,0.0,0.0,0.0,0.0,0.0,0.0,0.0,0.0,0.0,0.0,0.0,0.0,0.0,0.0,0.0,0.0,0.0,0.0,0.0,0.0,0.0,0.0,0.0,0.0,0.0,0.0,0.0,0.0,0.0,0.0,0.0,0.0,0.0,0.0,0.0,0.0,0.0,0.0,0.0,0.0,0.0,0.0,0.0,0.0,0.0,0.0,0.0,0.0,0.0,0.0,0.0,0.0,0.0,0.0,0.0,0.0,0.0,0.0,0.0,0.0,0.0,0.0,0.0,0.0,0.0,0.0,0.0,0.0,0.0,0.0,0.0,0.0,0.0,0.0,0.0,0.0,0.0,0.0,0.0,0.0,0.0,0.0,0.0,0.0,0.0,0.0,0.0,0.0,0.0,0.0,0.0,0.0,0.0,0.0,0.0,0.0,0.0,0.0,0.0,0.0,0.0,0.0,0.0,0.0,0.0,0.0,0.0,0.0,0.0,0.0,0.0,0.0,0.0,0.0,0.0,0.0,0.0,0.0,0.0,0.0,0.0,0.0,0.0,0.0,0.0,0.0,0.0,0.0,0.0,0.0,0.0,0.0,0.0,0.0,0.0,0.0,0.0,0.0,0.0,0.0,0.0,0.0,0.0,0.0,0.0,0.0,0.0,0.0,0.0,0.0,0.0,0.0,0.0,0.0,0.0,0.0,0.0,0.0,0.0,0.0,0.0,0.0,0.0,0.0,0.0,0.0,0.0,0.0,0.0,0.0,0.0,0.0,0.0,0.0,0.0,0.0,0.0,0.0,0.0,0.0,0.0,0.0,0.0,0.0,0.0,0.0,0.0,0.0,0.0,0.0,0.0,0.0,0.0,0.0,0.0,0.0,0.0,0.0,0.0,0.0,0.0,0.0,0.0,0.0,0.0,0.0,0.0,0.0,0.0,0.0,0.0,0.0,0.0,0.0,0.0,0.0,0.0,0.0,0.0,0.0,0.0,0.0,0.0,0.0,0.0,0.0,0.0,0.0,0.0,0.0,0.0,0.0,0.0,0.0,0.0,0.0,0.0,0.0,0.0,0.0,0.0,0.0,0.0,0.0,0.0,0.0,0.0,0.0,0.0,0.0,0.0,0.0,0.0,0.0,0.0,0.0,0.0,0.0,0.0,0.0,0.0,0.0,0.0,0.0,0.0,0.0,0.0,0.0,0.0,0.0,0.0,0.0,0.0,0.0,0.0,0.0,0.0,0.0,0.0,0.0,0.0,0.0,0.0,0.0,0.0,0.0,0.0,0.0,0.0,0.0,0.0,0.0,0.0,0.0,0.0,0.0,0.0,0.0,0.0,0.0,0.0,0.0,0.0,0.0,0.0,0.0,0.0,0.0,0.0,0.0,0.0,0.0,0.0,0.0,0.0,0.0,0.0,0.0,0.0,0.0,0.0,0.0,0.0,0.0,0.0,0.0,0.0,0.0,0.0,0.0,0.0,0.0,0.0,0.0,0.0,0.0,0.0,0.0,0.0,0.0,0.0,0.0,0.0,0.0,0.0,0.0,0.0,0.0,0.0,0.0,0.0,0.0,0.0,0.0,0.0,0.0,0.0,0.0,0.0,0.0,0.0,0.0,0.0,0.0,0.0,0.0,0.0,0.0,0.0,0.0,0.0,0.0,0.0,0.0,0.0,0.0,0.0,0.0,0.0,0.0,0.0,0.0,0.0,0.0,0.0,0.0,0.0,0.0,0.0,0.0,0.0,0.0,0.0,0.0,0.0,0.0,0.0,0.0,0.0,0.0,0.0,0.0,0.0,0.0,0.0,0.0,0.0,0.0,0.0,0.0,0.0,0.0,0.0,0.0,0.0,0.0,0.0,0.0,0.0,0.0,0.0,0.0,0.0,0.0,0.0,0.0,0.0,0.0,0.0,0.0,0.0,0.0,0.0,0.0,0.0,0.0,0.0,0.0,0.0,0.0,0.0,0.0,0.0,0.0,0.0,0.0,0.0,0.0,0.0,0.0,0.0,0.0,0.0,0.0,0.0,0.0,0.0,0.0,0.0,0.0,0.0,0.0,0.0,0.0,0.0,0.0,0.0,0.0,0.0,0.0,0.0,0.0,0.0,0.0,0.0,0.0,0.0,0.0,0.0,0.0,0.0,0.0,0.0,0.0,0.0,0.0,0.0,0.0,0.0,0.0,0.0,0.0,0.0,0.0,0.0,0.0,0.0,0.0,0.0,0.0,0.0,0.0,0.0,0.0,0.0,0.0,0.0,0.0,0.0,0.0,0.0,0.0,0.0,0.0,0.0,0.0,0.0,0.0,0.0,0.0,0.0,0.0,0.0,0.0,0.0,0.0,0.0,0.0,0.0,0.0,0.0,0.0,0.0,0.0,0.0,0.0,0.0,0.0,0.0,0.0,0.0,0.0,0.0,0.0,0.0,0.0,0.0,0.0,0.0,0.0,0.0,0.0,0.0,0.0,0.0,0.0,0.0,0.0,0.0,0.0,0.0,0.0,0.0,0.0,0.0,0.0,0.0,0.0,0.0,0.0,0.0,0.0,0.0,0.0,0.0,0.0,0.0,0.0,0.0,0.0,0.0,0.0,0.0,0.0,0.0,0.0,0.0,0.0,0.0,0.0,0.0,0.0,0.0,0.0,0.0,0.0,0.0,0.0,0.0,0.0,0.0,0.0,0.0,0.0,0.0,0.0,0.0,0.0,0.0,0.0,0.0,0.0,0.0,0.0,0.0,0.0,0.0,0.0,0.0,0.0,0.0,0.0,0.0,0.0,0.0,0.0,0.0,0.0,0.0,0.0,0.0,0.0,0.0,0.0,0.0,0.0,0.0,0.0,0.0,0.0,0.0,0.0,0.0,0.0,0.0,0.0,0.0,0.0,0.0,0.0,0.0,0.0,0.0,0.0,0.0,0.0,0.0,0.0,0.0,0.0,0.0,0.0,0.0,0.0,0.0,0.0,0.0,0.0,0.0,0.0,0.0,0.0,0.0,0.0,0.0,0.0,0.0,0.0,0.0,0.0,0.0,0.0,0.0,0.0,0.0,0.0,0.0,0.0,0.0,0.0,0.0,0.0,0.0,0.0,0.0,0.0,0.0,0.0,0.0,0.0,0.0,0.0,0.0,0.0,0.0,0.0,0.0,0.0,0.0,0.0,0.0,0.0,0.0,0.0,0.0,0.0,0.0,0.0,0.0,0.0,0.0,0.0,0.0,0.0,0.0,0.0,0.0,0.0,0.0,0.0,0.0,0.0,0.0,0.0,0.0,0.0,0.0,0.0,0.0,0.0,0.0,0.0,0.0,0.0,0.0,0.0,0.0,0.0,0.0,0.0,0.0,0.0,0.0,0.0,0.1344,0.0,0.0,0.0,0.0,0.0,0.0,0.0,0.0,0.0,0.0,0.0,0.0,0.0,0.0,0.0,0.0,0.0,0.0,0.0,0.0,0.0,0.0,0.0,0.0,0.0,0.0,0.0,0.0,0.0,0.0,0.0,0.0,0.0,0.0,0.0,0.0,0.0,0.0,0.0,0.0,0.0,0.0,0.0,0.0,0.0,0.0,0.0,0.0,0.0,0.0,0.0,0.0,0.0,0.0,0.0,0.0,0.0,0.0,0.0,0.0,0.0,0.0,0.0,0.0,0.0,0.0,0.0,0.0,0.0,0.0,0.0,0.0,0.0,0.0,0.0,0.0,0.0,0.0,0.0,0.0,0.0,0.0,0.0,0.0,0.0,0.0,0.0,0.0,0.0,0.0,0.0,0.0,0.0,0.0,0.0,0.0,0.0,0.0,0.0,0.0,0.0,0.0,0.0,0.0,0.0,0.0,0.0,0.0,0.0,0.0,0.1343,0.1008,0.0538,0.0202,0.0134,0.0,0.0,0.0,0.0,0.0,0.0,0.0,0.0,0.0,0.0,0.0,0.0,0.0,0.0,0.0,0.0,0.0,0.0,0.0,0.0,0.0,0.0,0.0,0.0,0.0,0.0,0.0,0.0,0.0,0.0,0.0,0.0,0.0,0.0,0.0,0.0,0.0,0.0,0.0,0.0,0.0,0.0,0.0,0.0,0.0,0.0,0.0,0.0,0.0,0.0,0.0,0.0,0.0,0.0,0.0,0.0,0.0,0.0,0.0,0.0,0.0,0.0,0.0,0.0,0.0,0.0,0.0,0.0,0.0,0.0,0.0,0.0,0.0,0.0,0.0,0.0,0.0,0.0,0.0,0.0,0.0,0.0,0.0,0.0,0.0,0.0,0.0,0.0,0.0,0.0,0.0,0.0,0.0,0.0,0.0,0.0,0.0,0.0,0.0,0.0,0.0,0.0,0.0,0.0,0.0,0.0,0.0,0.0,0.0,0.0,0.0,0.0,-0.1008,-0.1142,-0.1142,0.0,0.0,0.0,0.0,0.0,0.0,0.0,0.0,0.0,0.0,0.0,0.0,0.0,0.0,0.0,0.0,0.0,0.0,0.0,0.0,0.0,0.0,0.0,0.0,0.0,0.0,0.0,0.0,0.0,0.0,0.0,0.0,0.0,0.0,0.0,0.0,0.0,0.0,0.0,0.0,0.0,0.0,0.0,0.0,0.0,0.0,0.0,0.0,0.0,0.0,0.0,0.0,0.0,0.0,0.0,0.0,0.0,0.0,0.0,0.0,0.0,0.0,0.0,0.0,0.0,0.0,0.0,0.0,0.0,0.0,0.0,0.0,0.0,0.0,0.0,0.0,0.0,0.0,0.0,0.0,0.0,0.0,0.0,0.0,0.0,0.0,0.0,0.0,0.0,0.0,0.0,0.0,0.0,0.0,0.0,0.0,0.0,0.0,0.0,0.0,0.0,0.0,0.0,0.0,0.0,0.0,0.0,0.0,0.0,0.0,-0.2619,-0.2889,-0.3159,0.0,-0.2417,0.0,0.0,0.0,0.0,0.0,0.0,0.0,0.0,0.0,0.0,0.0,0.0,0.0,0.0,0.0,0.0,0.0,0.0,0.0,0.0,0.0,0.0,0.0,0.0,0.0,0.0,0.0,0.0,0.0,0.0,0.0,0.0,0.0,0.0,0.0,0.0,0.0,0.0,0.0,0.0,0.0,0.0,0.0,0.0,0.0,0.0,0.0,0.0,0.0,0.0,0.0,0.0,0.0,0.0,0.0,0.0,0.0,0.0,0.0,0.0,0.0,0.0,0.0,0.0,0.0,0.0,0.0,0.0,0.0,0.0,0.0,0.0,0.0,0.0,0.0,0.0,0.0,0.0,0.0,0.0,0.0,0.0,0.0,0.0,0.0,0.0,0.0,0.0,0.0,0.0,0.0,0.0,0.0,0.0,0.0,0.0,0.0,0.0,0.0,0.0,0.0,0.0,0.0,0.0,0.0,0.0,0.0,0.0,0.0,0.0,-0.3222,-0.3355,-0.356,-0.3625,0.0,0.0,0.0,0.0,0.0,0.0,0.0,0.0,0.0,0.0,0.0,0.0,0.0,0.0,0.0,0.0,0.0,0.0,0.0,0.0,0.0,0.0,0.0,0.0,0.0,0.0,0.0,0.0,0.0,0.0,0.0,0.0,0.0,0.0,0.0,0.0,0.0,0.0,0.0,0.0,0.0,0.0,0.0,0.0,0.0,0.0,0.0,0.0,0.0,0.0,0.0,0.0,0.0,0.0,0.0,0.0,0.0,0.0,0.0,0.0,0.0,0.0,0.0,0.0,0.0,0.0,0.0,0.0,0.0,0.0,0.0,0.0,0.0,0.0,0.0,0.0,0.0,0.0,0.0,0.0,0.0,0.0,0.0,0.0,0.0,0.0,0.0,0.0,0.0,0.0,0.0,0.0,0.0,0.0,0.0,0.0,0.0,0.0,0.0,0.0,0.0,0.0,0.0,0.0,0.0,0.0,0.0,0.0,0.0,0.0,-0.4151,-0.4151,-0.4217,-0.4289,-0.4422,-0.4547,0.0,0.0,0.0,0.0,0.0,0.0,0.0,0.0,0.0,0.0,0.0,0.0,0.0,0.0,0.0,0.0,0.0,0.0,0.0,0.0,0.0,0.0,0.0,0.0,0.0,0.0,0.0,0.0,0.0,0.0,0.0,0.0,0.0,0.0,0.0,0.0,0.0,0.0,0.0,0.0,0.0,0.0,0.0,0.0,0.0,0.0,0.0,0.0,0.0,0.0,0.0,0.0,0.0,0.0,0.0,0.0,0.0,0.0,0.0,0.0,0.0,0.0,0.0,0.0,0.0,0.0,0.0,0.0,0.0,0.0,0.0,0.0,0.0,0.0,0.0,0.0,0.0,0.0,0.0,0.0,0.0,0.0,0.0,0.0,0.0,0.0,0.0,0.0,0.0,0.0,0.0,0.0,0.0,0.0,0.0,0.0,0.0,0.0,0.0,0.0,0.0,0.0,0.0,0.0,0.0,0.0,0.0,0.0,-0.5074,-0.5345,-0.5679,-0.5943,-0.5885,-0.5885,0.0,0.0,0.0,0.0,0.0,0.0,0.0,0.0,0.0,0.0,0.0,0.0,0.0,0.0,0.0,0.0,0.0,0.0,0.0,0.0,0.0,0.0,0.0,0.0,0.0,0.0,0.0,0.0,0.0,0.0,0.0,0.0,0.0,0.0,0.0,0.0,0.0,0.0,0.0,0.0,0.0,0.0,0.0,0.0,0.0,0.0,0.0,0.0,0.0,0.0,0.0,0.0,0.0,0.0,0.0,0.0,0.0,0.0,0.0,0.0,0.0,0.0,0.0,0.0,0.0,0.0,0.0,0.0,0.0,0.0,0.0,0.0,0.0,0.0,0.0,0.0,0.0,0.0,0.0,0.0,0.0,0.0,0.0,0.0,0.0,0.0,0.0,0.0,0.0,0.0,0.0,0.0,0.0,0.0,0.0,0.0,0.0,0.0,0.0,0.0,0.0,0.0,0.0,0.0,0.0,0.0,0.0,0.0,0.0,-0.6264,-0.6396,-0.6535,-0.6806,-0.6605,-0.6601,0.0,0.0,0.0,0.0,0.0,0.0,0.0,0.0,0.0,0.0,0.0,0.0,0.0,0.0,0.0,0.0,0.0,0.0,0.0,0.0,0.0,0.0,0.0,0.0,0.0,0.0,0.0,0.0,0.0,0.0,0.0,0.0,0.0,0.0,0.0,0.0,0.0,0.0,0.0,0.0,0.0,0.0,0.0,0.0,0.0,0.0,0.0,0.0,0.0,0.0,0.0,0.0,0.0,0.0,0.0,0.0,0.0,0.0,0.0,0.0,0.0,0.0,0.0,0.0,0.0,0.0,0.0,0.0,0.0,0.0,0.0,0.0,0.0,0.0,0.0,0.0,0.0,0.0,0.0,0.0,0.0,0.0,0.0,0.0,0.0,0.0,0.0,0.0,0.0,0.0,0.0,0.0,0.0,0.0,0.0,0.0,0.0,0.0,0.0,0.0,0.0,0.0,0.0,0.0,0.0,0.0,0.0,0.0,0.0,-0.7779,0.0,-0.7917,-0.8061,-0.7922,-0.7917,0.0,0.0,0.0,0.0,0.0,0.0,0.0,0.0,0.0,0.0,0.0,0.0,0.0,0.0,0.0,0.0,0.0,0.0,0.0,0.0,0.0,0.0,0.0,0.0,0.0,0.0,0.0,0.0,0.0,0.0,0.0,0.0,0.0,0.0,0.0,0.0,0.0,0.0,0.0,0.0,0.0,0.0,0.0,0.0,0.0,0.0,0.0,0.0,0.0,0.0,0.0,0.0,0.0,0.0,0.0,0.0,0.0,0.0,0.0,0.0,0.0,0.0,0.0,0.0,0.0,0.0,0.0,0.0,0.0,0.0,0.0,0.0,0.0,0.0,0.0,0.0,0.0,0.0,0.0,0.0,0.0,0.0,0.0,0.0,0.0,0.0,0.0,0.0,0.0,0.0,0.0,0.0,0.0,0.0,0.0,0.0,0.0,0.0,0.0,0.0,0.0,0.0,0.0,0.0,0.0,0.0,0.0,0.0,-0.8838,-0.9533,-0.9748,-0.9869,-0.9898,-0.9881,-0.9887,0.0,0.0,0.0,0.0,0.0,0.0,0.0,0.0,0.0,0.0,0.0,0.0,0.0,0.0,0.0,0.0,0.0,0.0,0.0,0.0,0.0,0.0,0.0,0.0,0.0,0.0,0.0,0.0,0.0,0.0,0.0,0.0,0.0,0.0,0.0,0.0,0.0,0.0,0.0,0.0,0.0,0.0,0.0,0.0,0.0,0.0,0.0,0.0,0.0,0.0,0.0,0.0,0.0,0.0,0.0,0.0,0.0,0.0,0.0,0.0,0.0,0.0,0.0,0.0,0.0,0.0,0.0,0.0,0.0,0.0,0.0,0.0,0.0,0.0,0.0,0.0,0.0,0.0,0.0,0.0,0.0,0.0,0.0,0.0,0.0,0.0,0.0,0.0,0.0,0.0,0.0,0.0,0.0,0.0,0.0,0.0,0.0,0.0,0.0,0.0,0.0,0.0,0.0,0.0,0.0,0.0,0.0,0.0,0.0,-1.0597,-1.0792,-1.0861,-1.0861,-1.0867,-1.0798,0.0,0.0,0.0,0.0,0.0,0.0,0.0,0.0,0.0,0.0,0.0,0.0,0.0,0.0,0.0,0.0,0.0,0.0,0.0,0.0,0.0,0.0,0.0,0.0,0.0,0.0,0.0,0.0,0.0,0.0,0.0,0.0,0.0,0.0,0.0,0.0,0.0,0.0,0.0,0.0,0.0,0.0,0.0,0.0,0.0,0.0,0.0,0.0,0.0,0.0,0.0,0.0,0.0,0.0,0.0,0.0,0.0,0.0,0.0,0.0,0.0,0.0,0.0,0.0,0.0,0.0,0.0,0.0,0.0,0.0,0.0,0.0,0.0,0.0,0.0,0.0,0.0,0.0,0.0,0.0,0.0,0.0,0.0,0.0,0.0,0.0,0.0,0.0,0.0,0.0,0.0,0.0,0.0,0.0,0.0,0.0,0.0,0.0,0.0,0.0,0.0,0.0,0.0,0.0,0.0,0.0,0.0,0.0,0.0,-1.2558,-1.2537,-1.2607,-1.2678,-1.2607,-1.248,-1.2095,0.0,0.0,0.0,0.0,0.0,0.0,0.0,0.0,0.0,0.0,0.0,0.0,0.0,0.0,0.0,0.0,0.0,0.0,0.0,0.0,0.0,0.0,0.0,0.0,0.0,0.0,0.0,0.0,0.0,0.0,0.0,0.0,0.0,0.0,0.0,0.0,0.0,0.0,0.0,0.0,0.0,0.0,0.0,0.0,0.0,0.0,0.0,0.0,0.0,0.0,0.0,0.0,0.0,0.0,0.0,0.0,0.0,0.0,0.0,0.0,0.0,0.0,0.0,0.0,0.0,0.0,0.0,0.0,0.0,0.0,0.0,0.0,0.0,0.0,0.0,0.0,0.0,0.0,0.0,0.0,0.0,0.0,0.0,0.0,0.0,0.0,0.0,0.0,0.0,0.0,0.0,0.0,0.0,0.0,0.0,0.0,0.0,0.0,0.0,0.0,0.0,0.0,0.0,0.0,0.0,0.0,0.0,0.0,-1.5322,-1.504,-1.4942,-1.4969,-1.4969,-1.4607,0.0,0.0,0.0,0.0,0.0,0.0,0.0,0.0,0.0,0.0,0.0,0.0,0.0,0.0,0.0,0.0,0.0,0.0,0.0,0.0,0.0,0.0,0.0,0.0,0.0,0.0,0.0,0.0,0.0,0.0,0.0,0.0,0.0,0.0,0.0,0.0,0.0,0.0,0.0,0.0,0.0,0.0,0.0,0.0,0.0,0.0,0.0,0.0,0.0,0.0,0.0,0.0,0.0,0.0,0.0,0.0,0.0,0.0,0.0,0.0,0.0,0.0,0.0,0.0,0.0,0.0,0.0,0.0,0.0,0.0,0.0,0.0,0.0,0.0,0.0,0.0,0.0,0.0,0.0,0.0,0.0,0.0,0.0,0.0,0.0,0.0,0.0,0.0,0.0,0.0,0.0,0.0,0.0,0.0,0.0,0.0,0.0,0.0,0.0,0.0,0.0,0.0,0.0,0.0,0.0,0.0,0.0,0.0,0.0,-1.6862,-1.7165,-1.691,-1.6077,-1.5888,-1.5495,0.0,0.0,0.0,0.0,0.0,0.0,0.0,0.0,0.0,0.0,0.0,0.0,0.0,0.0,0.0,0.0,0.0,0.0,0.0,0.0,0.0,0.0,0.0,0.0,0.0,0.0,0.0,0.0,0.0,0.0,0.0,0.0,0.0,0.0,0.0,0.0,0.0,0.0,0.0,0.0,0.0,0.0,0.0,0.0,0.0,0.0,0.0,0.0,0.0,0.0,0.0,0.0,0.0,0.0,0.0,0.0,0.0,0.0,0.0,0.0,0.0,0.0,0.0,0.0,0.0,0.0,0.0,0.0,0.0,0.0,0.0,0.0,0.0,0.0,0.0,0.0,0.0,0.0,0.0,0.0,0.0,0.0,0.0,0.0,0.0,0.0,0.0,0.0,0.0,0.0,0.0,0.0,0.0,0.0,0.0,0.0,0.0,0.0,0.0,0.0,0.0,0.0,0.0,0.0,0.0,0.0,0.0,0.0,-1.6354,-1.7701,-1.8439,-1.8515,-1.787,-1.7172,-1.6534,0.0,0.0,0.0,0.0,0.0,0.0,0.0,0.0,0.0,0.0,0.0,0.0,0.0,0.0,0.0,0.0,0.0,0.0,0.0,0.0,0.0,0.0,0.0,0.0,0.0,0.0,0.0,0.0,0.0,0.0,0.0,0.0,0.0,0.0,0.0,0.0,0.0,0.0,0.0,0.0,0.0,0.0,0.0,0.0,0.0,0.0,0.0,0.0,0.0,0.0,0.0,0.0,0.0,0.0,0.0,0.0,0.0,0.0,0.0,0.0,0.0,0.0,0.0,0.0,0.0,0.0,0.0,0.0,0.0,0.0,0.0,0.0,0.0,0.0,0.0,0.0,0.0,0.0,0.0,0.0,0.0,0.0,0.0,0.0,0.0,0.0,0.0,0.0,0.0,0.0,0.0,0.0,0.0,0.0,0.0,0.0,0.0,0.0,0.0,0.0,0.0,0.0,0.0,0.0,0.0,0.0,0.0,0.0,-1.7203,-1.8081,-1.9217,-1.9839,-2.0056,-1.8704,-1.7539,0.0,0.0,0.0,0.0,0.0,0.0,0.0,0.0,0.0,0.0,0.0,0.0,0.0,0.0,0.0,0.0,0.0,0.0,0.0,0.0,0.0,0.0,0.0,0.0,0.0,0.0,0.0,0.0,0.0,0.0,0.0,0.0,0.0,0.0,0.0,0.0,0.0,0.0,0.0,0.0,0.0,0.0,0.0,0.0,0.0,0.0,0.0,0.0,0.0,0.0,0.0,0.0,0.0,0.0,0.0,0.0,0.0,0.0,0.0,0.0,0.0,0.0,0.0,0.0,0.0,0.0,0.0,0.0,0.0,0.0,0.0,0.0,0.0,0.0,0.0,0.0,0.0,0.0,0.0,0.0,0.0,0.0,0.0,0.0,0.0,0.0,0.0,0.0,0.0,0.0,0.0,0.0,0.0,0.0,0.0,0.0,0.0,0.0,0.0,0.0,0.0,0.0,0.0,0.0,0.0,0.0,0.0,0.0,-1.8154,-1.9316,-2.035,-2.1125,-2.1576,-1.9594,-1.8192,0.0,0.0,0.0,0.0,0.0,0.0,0.0,0.0,0.0,0.0,0.0,0.0,0.0,0.0,0.0,0.0,0.0,0.0,0.0,0.0,0.0,0.0,0.0,0.0,0.0,0.0,0.0,0.0,0.0,0.0,0.0,0.0,0.0,0.0,0.0,0.0,0.0,0.0,0.0,0.0,0.0,0.0,0.0,0.0,0.0,0.0,0.0,0.0,-1.3126,0.0,0.0,0.0,0.0,0.0,0.0,0.0,0.0,0.0,0.0,0.0,0.0,0.0,0.0,0.0,0.0,0.0,0.0,0.0,0.0,0.0,0.0,0.0,0.0,0.0,0.0,0.0,0.0,0.0,0.0,0.0,0.0,0.0,0.0,0.0,0.0,0.0,0.0,0.0,0.0,0.0,0.0,0.0,0.0,0.0,0.0,0.0,0.0,0.0,0.0,0.0,0.0,0.0,0.0,0.0,0.0,0.0,0.0,0.0,-1.8723,-2.0108,-2.0923,-2.17,-2.236,-2.074,-1.9367,0.0,0.0,0.0,0.0,0.0,0.0,0.0,0.0,0.0,0.0,0.0,0.0,0.0,0.0,0.0,0.0,0.0,0.0,0.0,0.0,0.0,0.0,0.0,0.0,0.0,0.0,0.0,0.0,0.0,0.0,0.0,0.0,0.0,0.0,0.0,0.0,0.0,0.0,0.0,0.0,0.0,0.0,0.0,0.0,0.0,0.0,0.0,0.0,0.0,0.0,0.0,0.0,0.0,0.0,0.0,0.0,0.0,0.0,0.0,0.0,0.0,0.0,0.0,0.0,0.0,0.0,0.0,0.0,0.0,0.0,0.0,0.0,0.0,0.0,0.0,0.0,0.0,0.0,0.0,0.0,0.0,0.0,0.0,0.0,0.0,0.0,0.0,0.0,0.0,0.0,0.0,0.0,0.0,0.0,0.0,0.0,0.0,0.0,0.0,0.0,0.0,0.0,0.0,0.0,0.0,0.0,0.0,-1.7696,-1.9132,-2.0646,-2.1419,-2.2155,-2.299,-2.1908,-2.0765,-1.9683,0.0,0.0,0.0,0.0,0.0,0.0,0.0,0.0,0.0,0.0,0.0,0.0,0.0,0.0,0.0,0.0,0.0,0.0,0.0,0.0,0.0,0.0,0.0,0.0,0.0,0.0,0.0,0.0,0.0,0.0,0.0,0.0,0.0,0.0,0.0,0.0,0.0,0.0,-1.4198,-1.4076,0.0,0.0,0.0,0.0,0.0,0.0,0.0,0.0,-1.5303,0.0,0.0,0.0,0.0,0.0,0.0,0.0,0.0,0.0,0.0,0.0,0.0,0.0,0.0,0.0,0.0,0.0,0.0,0.0,0.0,0.0,0.0,0.0,0.0,0.0,0.0,0.0,0.0,0.0,0.0,0.0,0.0,0.0,0.0,0.0,0.0,0.0,0.0,0.0,0.0,0.0,0.0,0.0,0.0,0.0,0.0,0.0,0.0,0.0,0.0,0.0,0.0,0.0,0.0,0.0,0.0,-1.7602,-1.8507,-1.9658,-2.1064,-2.236,-2.3001,-2.2968,-2.2781,-2.2103,-2.0854,0.0,0.0,0.0,0.0,0.0,0.0,0.0,0.0,0.0,0.0,0.0,0.0,0.0,0.0,0.0,0.0,0.0,0.0,0.0,0.0,0.0,0.0,0.0,0.0,0.0,0.0,0.0,0.0,0.0,0.0,0.0,0.0,0.0,0.0,0.0,0.0,0.0,0.0,0.0,-1.4567,-1.4614,0.0,0.0,0.0,0.0,0.0,0.0,0.0,0.0,-1.6651,0.0,0.0,0.0,0.0,0.0,0.0,0.0,0.0,0.0,0.0,0.0,0.0,0.0,0.0,0.0,0.0,0.0,0.0,0.0,0.0,0.0,0.0,0.0,0.0,0.0,0.0,0.0,0.0,0.0,0.0,0.0,0.0,0.0,0.0,0.0,0.0,0.0,0.0,0.0,0.0,0.0,0.0,0.0,0.0,0.0,0.0,0.0,0.0,0.0,0.0,0.0,0.0,0.0,0.0,0.0,-1.7775,-1.8816,-2.0202,-2.1886,-2.2681,-2.3446,-2.407,-2.3341,-2.2526,0.0,0.0,0.0,0.0,0.0,0.0,0.0,0.0,0.0,0.0,0.0,0.0,0.0,0.0,0.0,0.0,0.0,0.0,0.0,0.0,0.0,0.0,0.0,0.0,0.0,0.0,0.0,0.0,0.0,0.0,0.0,0.0,0.0,0.0,0.0,0.0,0.0,0.0,0.0,0.0,-1.5194,-1.5281,-1.574,0.0,0.0,0.0,0.0,0.0,0.0,-1.7549,-1.7408,0.0,0.0,0.0,0.0,0.0,0.0,0.0,0.0,0.0,0.0,0.0,0.0,0.0,0.0,0.0,0.0,0.0,0.0,0.0,0.0,0.0,0.0,0.0,0.0,0.0,0.0,0.0,0.0,0.0,0.0,0.0,0.0,0.0,0.0,0.0,0.0,0.0,0.0,0.0,0.0,0.0,0.0,0.0,0.0,0.0,0.0,0.0,0.0,0.0,0.0,0.0,0.0,0.0,0.0,0.0,-1.8008,-1.9389,-2.0992,-2.2691,-2.3128,-2.3801,-2.4886,-2.3698,-2.2741,0.0,0.0,0.0,0.0,0.0,0.0,0.0,0.0,0.0,0.0,0.0,0.0,0.0,0.0,0.0,0.0,0.0,0.0,0.0,0.0,0.0,0.0,0.0,0.0,0.0,0.0,0.0,0.0,0.0,0.0,0.0,0.0,0.0,0.0,0.0,0.0,0.0,0.0,0.0,0.0,0.0,-1.594,-1.6644,-1.6648,0.0,0.0,0.0,0.0,-1.7697,-1.7995,0.0,0.0,0.0,0.0,0.0,0.0,0.0,0.0,0.0,0.0,0.0,0.0,0.0,0.0,0.0,0.0,0.0,0.0,0.0,0.0,0.0,0.0,0.0,0.0,0.0,0.0,0.0,0.0,0.0,0.0,0.0,0.0,0.0,0.0,0.0,0.0,0.0,0.0,0.0,0.0,0.0,0.0,0.0,0.0,0.0,0.0,0.0,0.0,0.0,0.0,0.0,0.0,0.0,0.0,0.0,0.0,-1.9466,-2.0845,-2.206,-2.3191,-2.3936,-2.4322,-2.4322,-2.3641,-2.2889,0.0,0.0,0.0,0.0,0.0,0.0,0.0,0.0,0.0,0.0,0.0,0.0,0.0,0.0,0.0,0.0,0.0,0.0,0.0,0.0,0.0,0.0,0.0,0.0,0.0,0.0,0.0,0.0,0.0,0.0,0.0,0.0,0.0,0.0,0.0,0.0,0.0,0.0,0.0,0.0,0.0,-1.6677,-1.7373,-1.7696,-1.7863,0.0,0.0,-1.8709,-1.8623,-1.9011,0.0,0.0,0.0,0.0,0.0,0.0,0.0,0.0,0.0,0.0,0.0,0.0,0.0,0.0,0.0,0.0,0.0,0.0,0.0,0.0,0.0,0.0,0.0,0.0,0.0,0.0,0.0,0.0,0.0,0.0,0.0,0.0,0.0,0.0,0.0,0.0,0.0,0.0,0.0,0.0,0.0,0.0,0.0,0.0,0.0,0.0,0.0,0.0,0.0,0.0,0.0,0.0,0.0,0.0,0.0,-1.8817,-1.9837,-2.1481,-2.2772,-2.3694,-2.3998,-2.4371,-2.4814,-2.3836,-2.3103,0.0,0.0,0.0,0.0,0.0,0.0,0.0,0.0,0.0,0.0,0.0,0.0,0.0,0.0,0.0,0.0,0.0,0.0,0.0,0.0,0.0,0.0,0.0,0.0,0.0,0.0,0.0,0.0,0.0,0.0,0.0,0.0,0.0,0.0,0.0,0.0,0.0,0.0,0.0,0.0,0.0,0.0,-1.7954,-1.8179,0.0,0.0,0.0,-1.9007,-1.8998,0.0,0.0,0.0,0.0,0.0,0.0,0.0,0.0,0.0,0.0,0.0,0.0,0.0,0.0,0.0,0.0,0.0,0.0,0.0,0.0,0.0,0.0,0.0,0.0,0.0,0.0,0.0,0.0,0.0,0.0,0.0,0.0,0.0,0.0,0.0,0.0,0.0,0.0,0.0,0.0,0.0,0.0,0.0,0.0,0.0,0.0,0.0,0.0,0.0,0.0,0.0,0.0,0.0,0.0,0.0,0.0,0.0,-2.0257,-2.2196,-2.3582,-2.4204,-2.4288,-2.4587,-2.5217,-2.416,0.0,0.0,0.0,0.0,0.0,0.0,0.0,0.0,0.0,0.0,0.0,0.0,0.0,0.0,0.0,0.0,0.0,0.0,0.0,0.0,0.0,0.0,0.0,0.0,0.0,0.0,0.0,-1.5281,0.0,0.0,0.0,0.0,0.0,0.0,0.0,0.0,0.0,0.0,0.0,0.0,0.0,0.0,-1.7829,-1.8448,-1.8735,-1.8982,0.0,0.0,-1.9316,-1.9316,-1.9536,-1.9478,0.0,0.0,0.0,0.0,0.0,0.0,0.0,0.0,0.0,0.0,0.0,0.0,0.0,0.0,0.0,0.0,0.0,0.0,0.0,0.0,0.0,0.0,0.0,0.0,0.0,0.0,0.0,0.0,0.0,0.0,0.0,0.0,0.0,0.0,0.0,0.0,0.0,0.0,0.0,0.0,0.0,0.0,0.0,0.0,0.0,0.0,0.0,0.0,0.0,0.0,0.0,0.0,0.0,0.0,0.0,-2.1069,-2.3447,-2.4634,-2.479,-2.504,-2.5241,-2.53,-2.4644,-2.3857,0.0,0.0,0.0,0.0,0.0,0.0,0.0,0.0,0.0,0.0,0.0,0.0,0.0,0.0,0.0,0.0,0.0,0.0,0.0,0.0,0.0,0.0,0.0,0.0,0.0,0.0,0.0,0.0,0.0,0.0,0.0,0.0,0.0,0.0,0.0,0.0,0.0,0.0,0.0,0.0,0.0,-1.8456,-1.9076,-1.9444,-1.9675,0.0,0.0,-1.9701,-1.971,-2.0009,-2.0121,-1.9672,0.0,0.0,0.0,0.0,0.0,0.0,0.0,0.0,0.0,0.0,0.0,0.0,0.0,0.0,0.0,0.0,0.0,0.0,0.0,0.0,0.0,0.0,0.0,0.0,0.0,0.0,0.0,0.0,0.0,0.0,0.0,0.0,0.0,0.0,0.0,0.0,0.0,0.0,0.0,0.0,0.0,0.0,0.0,0.0,0.0,0.0,0.0,0.0,0.0,0.0,0.0,0.0,0.0,-2.1145,-2.1757,-2.3873,-2.5052,-2.5123,-2.517,-2.5241,-2.5312,-2.4668,-2.3961,0.0,0.0,0.0,0.0,0.0,0.0,0.0,0.0,0.0,0.0,0.0,0.0,0.0,0.0,0.0,0.0,0.0,0.0,0.0,0.0,0.0,0.0,0.0,0.0,0.0,0.0,0.0,0.0,-1.685,-1.675,-1.6362,0.0,0.0,0.0,0.0,0.0,0.0,0.0,0.0,0.0,0.0,-1.9178,-1.9913,-2.0,0.0,0.0,-2.0067,-1.9741,-1.9782,-1.9935,-1.9977,-1.9669,-1.9356,0.0,0.0,0.0,0.0,0.0,0.0,0.0,0.0,0.0,0.0,0.0,0.0,0.0,0.0,0.0,0.0,0.0,0.0,0.0,0.0,0.0,0.0,0.0,0.0,0.0,0.0,0.0,0.0,0.0,0.0,0.0,0.0,0.0,0.0,0.0,0.0,0.0,0.0,0.0,0.0,0.0,0.0,0.0,0.0,0.0,0.0,0.0,0.0,0.0,0.0,0.0,0.0,-2.1724,-2.2172,-2.4073,-2.5123,-2.5253,-2.517,-2.5182,-2.53,-2.4823,-2.4267,0.0,0.0,0.0,0.0,0.0,0.0,0.0,0.0,0.0,0.0,0.0,0.0,0.0,0.0,0.0,0.0,0.0,0.0,0.0,0.0,0.0,0.0,0.0,0.0,0.0,0.0,0.0,0.0,-1.7011,-1.671,-1.6306,0.0,0.0,0.0,0.0,0.0,0.0,0.0,0.0,0.0,0.0,-1.9696,-2.0324,-2.028,-2.0358,-2.052,-2.0078,-1.9813,-1.9803,-1.9762,-1.9762,-1.9587,0.0,0.0,0.0,0.0,0.0,0.0,0.0,0.0,0.0,0.0,0.0,0.0,0.0,0.0,0.0,0.0,0.0,0.0,0.0,0.0,0.0,0.0,0.0,0.0,0.0,0.0,0.0,0.0,0.0,0.0,-2.0399,0.0,0.0,0.0,0.0,0.0,0.0,0.0,0.0,0.0,0.0,0.0,0.0,0.0,0.0,0.0,0.0,0.0,0.0,0.0,0.0,0.0,0.0,-2.1793,-2.2183,-2.4155,-2.5123,-2.5123,-2.5241,-2.5312,-2.5312,-2.53,-2.4977,-2.4255,0.0,0.0,0.0,0.0,0.0,0.0,0.0,0.0,0.0,0.0,0.0,0.0,0.0,0.0,0.0,0.0,0.0,0.0,0.0,0.0,0.0,0.0,0.0,0.0,0.0,0.0,-1.5899,-1.602,-1.6167,0.0,0.0,0.0,0.0,0.0,0.0,0.0,0.0,0.0,0.0,-1.9333,-2.0079,-2.0105,-2.0401,-2.0546,-2.0382,-2.0102,-1.9837,-1.9671,-1.9587,-1.9587,0.0,0.0,0.0,0.0,0.0,0.0,0.0,0.0,0.0,0.0,0.0,0.0,0.0,0.0,0.0,0.0,0.0,0.0,0.0,0.0,0.0,0.0,0.0,0.0,0.0,0.0,0.0,-2.2504,-2.2452,0.0,0.0,0.0,0.0,0.0,0.0,0.0,0.0,0.0,0.0,0.0,-2.4608,-2.4085,0.0,0.0,0.0,0.0,0.0,0.0,0.0,0.0,0.0,0.0,0.0,0.0,-2.2298,-2.2617,-2.4284,-2.5253,-2.5241,-2.53,-2.5312,-2.5312,-2.5312,-2.4919,-2.4129,0.0,0.0,0.0,0.0,0.0,0.0,0.0,0.0,0.0,0.0,0.0,0.0,0.0,0.0,0.0,0.0,0.0,0.0,0.0,0.0,0.0,0.0,0.0,0.0,0.0,-1.6375,0.0,0.0,0.0,0.0,0.0,0.0,0.0,0.0,0.0,0.0,0.0,-1.8283,-1.9333,-1.954,-1.9722,-2.0133,-2.0215,-2.0201,0.0,0.0,0.0,0.0,0.0,0.0,0.0,0.0,0.0,0.0,0.0,0.0,0.0,0.0,-1.6737,-1.6049,-1.596,-1.6085,-1.5894,0.0,0.0,0.0,0.0,0.0,0.0,0.0,0.0,0.0,0.0,0.0,0.0,0.0,0.0,-2.4017,0.0,-2.3726,0.0,0.0,0.0,0.0,0.0,0.0,0.0,0.0,-2.481,-2.5419,-2.6022,-2.5563,-2.5499,0.0,-2.4598,-2.3506,0.0,0.0,0.0,0.0,0.0,0.0,0.0,0.0,-2.2605,-2.2832,-2.4423,-2.5241,-2.5312,-2.5312,-2.5312,-2.5312,-2.5312,-2.5003,-2.4459,-2.3686,-2.2925,0.0,0.0,0.0,0.0,0.0,0.0,0.0,0.0,0.0,0.0,0.0,0.0,0.0,0.0,0.0,0.0,0.0,0.0,0.0,0.0,0.0,0.0,0.0,-1.6603,0.0,0.0,0.0,0.0,0.0,0.0,0.0,0.0,0.0,-1.8374,-1.8542,-1.8896,-1.9808,-1.972,-1.9655,-2.0051,0.0,0.0,0.0,0.0,0.0,0.0,0.0,-1.9196,-1.9018,-1.9423,-1.9725,-1.9516,-1.9411,-1.9254,-1.8835,0.0,0.0,-1.7597,-1.7351,-1.7413,-1.7431,-1.7545,-1.7673,-1.7771,-1.8102,-1.8427,0.0,0.0,0.0,0.0,0.0,0.0,0.0,0.0,-2.5959,-2.5484,0.0,-2.5226,0.0,0.0,0.0,0.0,0.0,-2.3667,0.0,0.0,-2.6501,-2.711,-2.7264,-2.7187,-2.7123,-2.6969,-2.6061,-2.5472,-2.5078,-2.322,0.0,0.0,0.0,0.0,0.0,0.0,-2.2708,-2.3082,-2.4389,-2.5182,-2.5312,-2.5312,-2.5312,-2.5312,-2.5312,-2.53,-2.5288,-2.461,-2.4141,-2.3781,-2.2173,0.0,0.0,0.0,0.0,0.0,0.0,0.0,0.0,0.0,0.0,0.0,0.0,0.0,0.0,0.0,0.0,0.0,0.0,0.0,0.0,-1.6607,0.0,0.0,0.0,0.0,0.0,0.0,0.0,0.0,0.0,0.0,-1.8955,-1.9385,-1.9684,-1.9718,0.0,0.0,0.0,0.0,-2.0036,-1.9304,-1.9212,-1.9144,-1.896,-1.9169,-1.9391,-1.9383,0.0,0.0,-2.044,-2.0448,-2.024,-1.9737,-2.0529,-2.0828,-1.887,-1.843,-1.8311,-1.8586,-1.8665,-1.8738,-1.9088,-1.9494,-1.9917,-2.8152,0.0,0.0,0.0,0.0,-2.635,-2.6884,-2.7734,-2.7626,-2.7346,-2.7012,-2.6787,0.0,0.0,0.0,0.0,0.0,0.0,-2.5775,-2.6731,-2.7183,-2.7669,-2.8201,-2.7799,-2.7799,-2.8058,-2.7092,-2.6751,-2.6909,-2.5319,-2.3808,-2.2468,0.0,0.0,0.0,0.0,-2.3131,-2.371,-2.4695,-2.5241,-2.5312,-2.5312,-2.5312,-2.5312,-2.5312,-2.5241,-2.5182,-2.4968,-2.4449,-2.3442,-2.2725,0.0,0.0,0.0,0.0,0.0,0.0,0.0,0.0,0.0,0.0,0.0,0.0,0.0,0.0,0.0,0.0,0.0,0.0,0.0,-1.6937,-1.7441,-1.7515,0.0,0.0,0.0,0.0,0.0,0.0,0.0,0.0,0.0,-1.9748,-1.9298,-1.9049,0.0,0.0,-1.9093,-1.9072,-1.9515,-1.9959,-1.9849,-2.0079,0.0,0.0,-2.0246,-2.0031,-2.0031,-2.042,-2.0933,-2.1425,-2.1513,-2.1505,-2.1246,-2.1541,-2.1597,-2.1133,-2.0934,-2.086,-2.0953,-2.0976,-2.1,-2.1093,-2.1337,-2.1274,-2.9929,-2.9088,-2.8092,-2.786,-2.8116,-2.8012,-2.8496,-2.933,-2.9087,-2.8717,-2.8249,-2.8146,-2.7417,-2.6342,-2.6034,0.0,0.0,0.0,-2.6987,-2.779,-2.7853,-2.8184,-2.8573,-2.8262,-2.8262,-2.8587,-2.7908,-2.7776,-2.8118,-2.6739,-2.5391,-2.3977,0.0,0.0,-2.2359,-2.3059,-2.3604,-2.4129,-2.511,-2.5624,-2.5612,-2.5841,-2.5949,-2.5949,-2.5745,-2.5553,-2.5481,-2.523,-2.4684,-2.3741,-2.3168,-2.2302,0.0,0.0,0.0,0.0,0.0,0.0,0.0,0.0,0.0,0.0,0.0,-1.5894,0.0,0.0,0.0,0.0,-1.7086,-1.7397,-1.7852,-1.8044,0.0,0.0,0.0,0.0,0.0,0.0,0.0,-1.8869,-1.947,-1.9966,-2.0262,-1.966,-1.9326,-2.0046,-1.9679,-1.9304,-1.9349,0.0,-2.0347,-2.0554,-2.0633,-2.0757,-2.0765,-2.0712,-2.0783,-2.0974,-2.1147,-2.1441,-2.1854,-2.2061,-2.2156,-2.2172,-2.2275,-2.2378,-2.2378,-2.2378,-2.2323,-2.2196,-2.2164,-2.2212,-2.2347,-2.2378,-2.2307,-3.1292,-3.1174,-2.9491,-2.916,-2.9813,-2.9624,-2.9957,-3.0568,-3.028,-2.96,-2.8802,-2.924,-2.8615,-2.7201,-2.6871,0.0,-2.7304,-2.7521,-2.7944,-2.8587,-2.8587,-2.8587,-2.8587,-2.8587,-2.8587,-2.8587,-2.8641,-2.8668,-2.8641,-2.7691,-2.6831,-2.6019,-2.4347,-2.3423,-2.3388,-2.3812,-2.4141,-2.435,-2.5517,-2.6117,-2.6178,-2.6671,-2.6923,-2.6911,-2.643,-2.6142,-2.6081,-2.5493,-2.4956,-2.4478,-2.3527,-2.2755,-2.2136,0.0,0.0,0.0,0.0,0.0,0.0,0.0,0.0,0.0,0.0,0.0,0.0,0.0,0.0,0.0,-1.8217,0.0,-1.9036,-1.8512,0.0,0.0,0.0,-1.8002,-1.8959,-1.909,-1.9349,-1.988,0.0,0.0,-2.0736,-2.0377,-2.0247,-2.0917,-2.0738,-2.0429,-2.0135,-2.0636,-2.121,-2.1269,-2.1075,-2.0768,-2.0818,-2.1211,-2.1617,-2.2004,-2.2113,-2.2113,-2.2201,-2.2424,-2.2506,-2.2395,-2.2672,-2.2998,-2.3006,-2.2966,-2.2919,-2.2585,-2.2529,-2.2625,-2.2887,-2.2958,-2.2919,-3.1467,-3.1394,-3.0951,-3.0863,-3.0881,-3.0778,-3.069,-3.0762,-3.0582,-3.0119,-2.9563,-2.9532,-2.9122,-2.842,-2.8216,-2.8184,-2.8241,-2.8306,-2.8465,-2.8587,-2.8587,-2.8587,-2.8587,-2.8587,-2.8587,-2.8627,-2.9062,-2.9265,-2.9279,-2.9038,-2.8536,-2.7614,-2.6552,-2.5329,-2.3906,-2.392,-2.4318,-2.4932,-2.5576,-2.6175,-2.6731,-2.68,-2.6923,-2.6923,-2.6803,-2.6538,-2.6117,-2.5985,-2.5444,-2.4513,-2.4074,-2.3401,-2.2291,-2.1208,0.0,0.0,0.0,0.0,0.0,0.0,0.0,0.0,0.0,-1.6628,-1.6936,0.0,-1.7979,0.0,-1.9022,-1.9446,-1.9668,-1.9131,0.0,0.0,-1.8788,-1.8974,-1.9177,-1.9885,-2.0392,-2.0509,-2.0997,-2.1461,-2.1558,-2.1423,-2.1484,-2.1961,-2.1281,-2.0545,-2.0184,-2.0858,-2.1467,-2.1385,-2.1793,-2.218,-2.2367,-2.2677,-2.2805,-2.3053,-2.3018,-2.3108,-2.3164,-2.3166,-2.3231,-2.2887,-2.2942,-2.3014,-2.3014,-2.3014,-2.2998,-2.2911,-2.2887,-2.2911,-2.3006,-2.3014,-2.2942,-3.1467,-3.1467,-3.1467,-3.1482,-3.1336,-3.1307,-3.1132,-3.0955,-3.0762,-3.0447,-3.0007,-2.9761,-2.9415,-2.8908,-2.8844,-2.8729,-2.8587,-2.8587,-2.8587,-2.8587,-2.8587,-2.8587,-2.86,-2.8872,-2.898,-2.9007,-2.9591,-2.9889,-2.9916,-2.9954,-2.9512,-2.8765,-2.7838,-2.6719,-2.5252,-2.4719,-2.4684,-2.5123,-2.5874,-2.6713,-2.7596,-2.7633,-2.7435,-2.7131,-2.6892,-2.6447,-2.591,-2.5526,-2.5048,-2.4284,-2.4043,-2.3543,-2.2681,-2.1851,-2.1261,0.0,0.0,0.0,0.0,0.0,0.0,0.0,0.0,0.0,0.0,0.0,-1.8702,-1.935,-2.0308,-2.0973,-2.0944,-2.0382,-1.9905,-1.9842,-1.9723,-1.9764,-2.0093,-2.0757,-2.1291,-2.14,-2.1895,-2.229,-2.238,-2.225,-2.2197,-2.258,-2.2064,-2.1419,-2.1303,-2.1694,-2.2036,-2.1928,-2.2443,-2.2997,-2.3309,-2.3359,-2.3411,-2.3525,-2.3615,-2.369,-2.3656,-2.3585,-2.3472,-2.3247,-2.3127,-2.3014,-2.3014,-2.3014,-2.3014,-2.3014,-2.3014,-2.3014,-2.3014,-2.3014,-2.2934,-3.1721,-3.1779,-3.1779,-3.1779,-3.1735,-3.1779,-3.1514,-3.1146,-3.0895,-3.0582,-3.019,-2.9884,-2.9526,-2.9162,-2.9182,-2.9018,-2.8774,-2.879,-2.8817,-2.8831,-2.8817,-2.8817,-2.8845,-2.9347,-2.9591,-2.9631,-3.0228,-3.0527,-3.0527,-3.0608,-3.0304,-2.9623,-2.8633,-2.7703,-2.6783,-2.5757,-2.5278,-2.523,-2.6284,-2.7296,-2.8282,-2.8306,-2.7999,-2.7311,-2.6847,-2.6308,-2.5651,-2.4985,-2.4403,-2.4043,-2.3751,-2.3457,-2.3065,-2.2386,-2.198,0.0,-2.105,0.0,0.0,0.0,0.0,0.0,0.0,0.0,0.0,-1.9573,-1.9646,-2.0389,-2.1739,-2.2411,-2.2237,-2.1559,-2.1144,-2.1061,-2.0642,-2.0589,-2.1145,-2.1557,-2.1898,-2.2336,-2.2608,-2.2876,-2.3071,-2.2841,-2.2687,-2.2959,-2.2702,-2.2475,-2.2526,-2.2518,-2.2518,-2.2653,-2.2903,-2.3312,-2.3685,-2.3704,-2.3761,-2.3958,-2.4008,-2.4033,-2.4033,-2.3809,-2.3593,-2.3585,-2.3247,-2.3127,-2.3127,-2.3014,-2.3014,-2.3014,-2.3014,-2.3014,-2.3014,-2.3014,-2.3014,-3.3125,-3.3125,-3.3125,-3.3125,-3.3125,-3.3125,-3.2393,-3.1234,-3.094,-3.0447,-2.9884,-2.9588,-2.9401,-2.9331,-2.9559,-2.957,-2.9531,-2.9902,-3.0066,-3.0066,-3.0066,-3.0066,-3.0079,-3.0188,-3.0242,-3.0269,-3.0839,-3.111,-3.1137,-3.1612,-3.1154,-2.9796,-2.9374,-2.8422,-2.6978,0.0,0.0,0.0,-2.6092,-2.6562,-2.72,-2.7224,-2.7036,-2.6764,-2.6669,0.0,-2.5675,-2.5471,-2.5066,-2.4441,-2.4043,0.0,0.0,0.0,0.0,0.0,0.0,0.0,0.0,0.0,0.0,0.0,-2.205,-2.1967,-2.1078,-2.1718,-2.2161,-2.2261,-2.2168,-2.1928,-2.17,-2.1024,-2.0596,-2.0605,-2.0796,-2.1076,-2.1566,-2.1979,-2.2391,-2.294,-2.319,-2.339,-2.3547,-2.343,-2.3267,-2.3229,-2.2946,-2.2653,-2.2662,-2.267,-2.2662,-2.2696,-2.316,-2.3708,-2.4054,-2.4386,-2.4471,-2.459,-2.459,-2.4599,-2.4376,-2.4264,-2.4153,-2.3921,-2.3593,-2.336,-2.336,-2.3135,-2.3014,-2.3014,-2.3014,-2.3014,-2.3014,-2.3014,-2.3014,-3.3499,0.0,-3.3499,-3.3499,0.0,-3.3499,-3.305,-3.2378,-3.2016,-3.1511,-3.0885,-3.063,-3.0451,-3.0271,-3.0301,-3.0253,-3.0213,-3.0337,-3.0405,-3.0405,-3.0405,-3.0405,-3.0418,-3.0717,-3.0866,-3.0866,-3.1436,-3.1748,-3.1734,-3.2033,-3.1788,-3.0983,-3.0315,-2.9576,-2.8695,-2.7705,-2.6974,-2.6609,-2.6497,-2.6767,-2.7272,-2.7055,-2.6784,-2.6621,0.0,0.0,0.0,0.0,0.0,0.0,0.0,0.0,0.0,0.0,0.0,-2.349,-2.2971,-2.2692,-2.2788,-2.2981,-2.3094,-2.3193,-2.3823,-2.3598,-2.2196,-2.3252,-2.3903,-2.3576,-2.3691,-2.3826,-2.3669,-2.2725,-2.2207,-2.2332,-2.2017,-2.1878,-2.2291,-2.2685,-2.2984,-2.3272,-2.3624,-2.3834,-2.3619,-2.3646,-2.3447,-2.3256,-2.3112,-2.3021,-2.303,-2.2928,-2.2929,-2.3306,-2.3657,-2.4076,-2.4444,-2.4667,-2.4821,-2.4821,-2.4821,-2.471,-2.4599,-2.4496,-2.4376,-2.4144,-2.3817,-2.3585,-2.3585,-2.3352,-2.3014,-2.3135,-2.3127,-2.3014,-2.3014,-2.3014,-2.3014,-3.3858,-3.3858,-3.3858,-3.3858,-3.3858,-3.3858,-3.3781,-3.3704,0.0,0.0,0.0,-3.1772,-3.1575,-3.1324,-3.114,-3.0992,-3.0911,-3.0732,-3.073,-3.0717,-3.073,-3.073,-3.073,-3.1219,-3.145,-3.1477,-3.1951,-3.2169,-3.2169,-3.2169,-3.2169,-3.1969,-3.1076,-3.056,-3.0361,-2.8895,-2.8,-2.7711,-2.7172,-2.714,-2.7548,-2.7164,-2.6772,-2.6621,-2.6621,-2.6344,-2.5718,-2.6083,-2.6042,-2.5494,-2.5774,-2.5708,-2.5378,-2.5133,-2.5023,-2.4814,-2.4581,-2.4469,-2.4636,-2.4476,-2.4469,-2.4727,-2.5087,-2.4762,-2.3379,-2.4513,-2.5049,-2.4366,-2.5061,-2.5486,-2.5402,-2.4268,-2.3663,-2.4098,-2.307,-2.2593,-2.2902,-2.3336,-2.3547,-2.3666,-2.3941,-2.4053,-2.3646,-2.3646,-2.3691,-2.3379,-2.3414,-2.3496,-2.3574,-2.3375,-2.3443,-2.3999,-2.4153,-2.435,-2.4701,-2.4812,-2.4821,-2.4821,-2.4821,-2.4821,-2.4821,-2.4599,-2.4496,-2.4487,-2.4041,-2.3809,-2.3809,-2.3472,-2.3239,-2.336,-2.3239,-2.3014,-2.3014,-2.3014,-2.3014,-3.522,-3.5235,-3.522,-3.522,-3.522,-3.522,-3.5026,-3.4617,-3.3348,-3.2547,-3.1982,-3.1772,-3.1641,-3.1603,-3.1652,-3.1682,-3.164,-3.1823,-3.1938,0.0,-3.1938,-3.1938,-3.1924,-3.2019,-3.2046,-3.206,-3.2141,-3.2169,-3.2169,-3.2169,-3.1936,-3.1381,-3.1154,-3.0878,-3.0277,-2.9528,-2.9142,-2.9049,-2.7645,-2.6971,-2.7043,-2.6971,-2.6772,-2.6621,-2.6633,-2.6498,-2.62,-2.6271,-2.6259,-2.6112,-2.5547,-2.5125,-2.5038,-2.4385,-2.3794,-2.3828,-2.3982,-2.4062,-2.4172,-2.4686,-2.5251,-2.5655,-2.5753,-2.5507,-2.4968,-2.5431,-2.5535,-2.4851,-2.4488,-2.3961,-2.3702,-2.3133,-2.2859,-2.3168,-2.2953,-2.293,-2.3409,-2.3519,-2.3694,-2.3996,-2.4115,-2.4152,-2.4089,-2.3981,-2.3917,-2.4095,-2.378,-2.367,-2.3952,-2.3811,-2.3811,-2.4127,-2.4239,-2.4401,-2.4727,-2.4821,-2.4821,-2.4821,-2.4821,-2.4821,-2.4821,-2.471,-2.471,-2.471,-2.4376,-2.4161,-2.4049,-2.3697,-2.3376,-2.3263,-2.3046,-2.3014,-2.3014,-2.3014,-2.3022,-3.5489,-3.5489,-3.5489,-3.5489,-3.5489,-3.5489,-3.5359,-3.5023,-3.4236,-3.3609,-3.3025,-3.2809,-3.2673,-3.2551,-3.2389,-3.2289,-3.2303,-3.2249,-3.2169,-3.2169,-3.2169,-3.2169,-3.2169,-3.2169,-3.2169,-3.2169,-3.2169,-3.2169,-3.2169,-3.2169,-3.2023,-3.1776,-3.1776,-3.1394,-3.0771,-3.0177,-2.9716,-2.9394,-2.805,-2.7368,-2.7356,-2.7079,-2.6992,-2.7191,-2.7203,-2.7114,-2.7049,-2.7311,-2.7335,-2.7049,-2.6931,-2.6811,-2.6578,-2.6201,-2.583,-2.5608,-2.5498,-2.5383,-2.5394,-2.5469,-2.5655,-2.5884,-2.5895,-2.5808,-2.56,-2.5764,-2.592,-2.5819,-2.5497,-2.5417,-2.5492,-2.4906,-2.4451,-2.4436,-2.4117,-2.3916,-2.3883,-2.3877,-2.395,-2.4115,-2.4161,-2.4244,-2.4263,-2.429,-2.4334,-2.4396,-2.4193,-2.4251,-2.4453,-2.4419,-2.4359,-2.4513,-2.4556,-2.4616,-2.4795,-2.4821,-2.4821,-2.4821,-2.4821,-2.4821,-2.4821,-2.483,-2.483,-2.4821,-2.4607,-2.446,-2.4369,-2.3924,-2.3578,-2.361,-2.3238,-2.3038,-2.3014,-2.3014,-2.3085,-3.5489,-3.5489,-3.5489,-3.5489,-3.5489,-3.5489,-3.5374,-3.5213,-3.5001,-3.4534,-3.402,-3.3744,-3.3536,-3.3312,-3.2931,-3.2775,-3.2704,-3.2372,-3.2228,-3.2169,-3.2169,-3.2169,-3.2169,-3.2169,-3.2169,-3.2169,-3.2169,-3.2169,-3.2169,-3.2169,-3.2169,-3.2169,-3.2169,-3.195,-3.1381,-3.0696,-3.0101,-2.9537,-2.848,-2.7897,-2.7885,-2.75,-2.7488,-2.7861,-2.7897,-2.7897,-2.7921,-2.8294,-2.8318,-2.7945,-2.8095,-2.8092,-2.7785,-2.7472,-2.7254,-2.6887,-2.6653,-2.6509,-2.6467,-2.6146,-2.5979,-2.5906,-2.6005,-2.607,-2.607,-2.6168,-2.6321,-2.6508,-2.6444,-2.6616,-2.6836,-2.6292,-2.5829,-2.56,-2.5005,-2.4475,-2.4285,-2.4161,-2.4198,-2.4253,-2.4299,-2.4455,-2.459,-2.4811,-2.4863,-2.4702,-2.4657,-2.4798,-2.4753,-2.4821,-2.4821,-2.4821,-2.4821,-2.4812,-2.4821,-2.4821,-2.4821,-2.4821,-2.4821,-2.4821,-2.4838,-2.4872,-2.4949,-2.4984,-2.4836,-2.4754,-2.4834,-2.4284,-2.3861,-2.3787,-2.3366,-2.3022,-2.3014,-2.3014,-2.3085,-3.5489,-3.5489,-3.5489,-3.5489,-3.5489,-3.5489,-3.5359,-3.5213,-3.4986,-3.4668,-3.4361,-3.402,-3.3758,-3.3536,-3.3143,-3.2846,-3.2704,-3.2489,-3.23,-3.2241,-3.2169,-3.2169,-3.2169,-3.2169,-3.2169,-3.2169,-3.2169,-3.2169,-3.2169,-3.2169,-3.2169,-3.2169,-3.2169,-3.2169,-3.195,-3.0934,-3.0241,-3.0165,-2.9069,-2.8438,-2.8438,-2.8402,-2.839,-2.8438,-2.8438,-2.8438,-2.8402,-2.8486,-2.8498,-2.8414,-2.7873,-2.7411,-2.7117,-2.6356,-2.5858,-2.5911,-2.6097,-2.6266,-2.6257,-2.6157,-2.6085,-2.5928,-2.6321,-2.6562,-2.6583,-2.6933,-2.6998,-2.6748,-2.6494,-2.6631,-2.6802,-2.5845,-2.5241,-2.5324,-2.4818,-2.4214,-2.4242,-2.4161,-2.4299,-2.4693,-2.4702,-2.4876,-2.5225,-2.5344,-2.529,-2.5112,-2.4998,-2.5023,-2.4795,-2.4821,-2.4821,-2.4821,-2.4821,-2.4821,-2.4821,-2.4821,-2.4821,-2.4821,-2.4821,-2.4838,-2.4898,-2.5104,-2.5318,-2.5343,-2.5557,-2.5515,-2.5069,-2.4655,-2.4179,-2.3753,-2.3332,-2.3014,-2.3014,-2.3014,-2.3062,-3.5489,-3.5489,-3.5489,-3.5489,-3.5489,-3.5489,-3.5424,-3.5374,-3.5001,-3.4802,-3.4549,-3.4103,-3.3744,-3.3605,-3.3129,-3.2988,-3.2846,-3.2632,-3.2489,-3.23,-3.2286,-3.23,-3.2169,-3.2169,-3.2169,-3.2169,-3.2169,-3.2169,-3.2169,-3.2169,-3.2169,-3.2169,-3.2169,-3.2169,-3.2096,-3.132,-3.0846,-3.0771,-3.0024,-2.9419,-2.904,-2.8657,-2.851,-2.851,-2.851,-2.851,-2.851,-2.851,-2.851,-2.8498,-2.8215,-2.787,-2.7552,-2.7202,-2.686,-2.6611,-2.6438,-2.6397,-2.6229,-2.6337,-2.6417,-2.6332,-2.6769,-2.7031,-2.7042,-2.7468,-2.7654,-2.7445,-2.7352,-2.7517,-2.7868,-2.7024,-2.6169,-2.5693,-2.5137,-2.4726,-2.426,-2.4381,-2.4611,-2.4766,-2.4996,-2.5271,-2.5656,-2.5824,-2.5694,-2.5439,-2.538,-2.5119,-2.4821,-2.4821,-2.4821,-2.4821,-2.4821,-2.4821,-2.4821,-2.4821,-2.483,-2.483,-2.4821,-2.4855,-2.5129,-2.5232,-2.5429,-2.566,-2.5874,-2.5846,-2.5409,-2.4837,-2.4367,-2.3825,-2.3363,-2.3014,-2.3014,-2.3014,-2.3014,-3.5489,-3.5489,-3.5489,-3.5489,-3.5489,-3.5489,-3.5489,-3.5439,-3.5082,-3.4868,-3.4683,-3.4157,-3.3813,-3.3675,-3.3297,-3.3072,-3.2988,-3.2846,-3.2632,-3.2417,-3.2417,-3.2286,-3.2169,-3.2169,-3.2169,-3.2169,-3.2169,-3.2169,-3.2169,-3.2169,-3.2169,-3.2169,-3.2169,-3.2169,-3.2109,-3.1542,-3.122,-3.1145,-3.0482,-2.9871,-2.9341,-2.8816,-2.851,-2.851,-2.851,-2.851,-2.851,-2.851,-2.851,-2.851,-2.851,-2.8363,-2.8042,-2.7938,-2.7765,-2.736,-2.7044,-2.67,-2.6501,-2.6686,-2.6768,-2.6846,-2.7239,-2.7512,-2.7588,-2.7949,-2.8211,-2.8222,-2.8233,-2.8381,-2.8668,-2.8072,-2.703,-2.5887,-2.5479,-2.5039,-2.4526,-2.462,-2.4867,-2.5078,-2.5381,-2.5683,-2.6068,-2.6028,-2.5863,-2.5652,-2.534,-2.5026,-2.4812,-2.4821,-2.4821,-2.4821,-2.4821,-2.4821,-2.4821,-2.4821,-2.4838,-2.4967,-2.5001,-2.5138,-2.5463,-2.5574,-2.5703,-2.6071,-2.6148,-2.605,-2.593,-2.531,-2.4491,-2.3953,-2.3443,-2.3022,-2.3014,-2.3014,-2.3014,-3.5489,-3.5489,-3.5489,-3.5489,-3.5489,-3.5489,-3.5489,-3.5504,-3.5067,-3.4868,-3.4802,-3.4225,-3.3896,-3.3813,-3.3452,-3.3171,-3.2988,-3.2988,-3.2761,-3.2489,-3.2417,-3.2359,-3.2169,-3.2169,-3.2169,-3.2169,-3.2169,-3.2169,-3.2169,-3.2169,-3.2169,-3.2169,-3.2169,-3.2169,-3.2096,-3.1542,-3.1233,-3.1158,-3.0165,-2.9496,-2.9353,-2.8803,-2.851,-2.851,-2.851,-2.851,-2.851,-2.851,-2.851,-2.851,-2.851,-2.8431,-2.8179,-2.8108,-2.7912,-2.7626,-2.7499,-2.7415,-2.7251,-2.7227,-2.7267,-2.7349,-2.773,-2.7924,-2.8036,-2.8396,-2.8637,-2.8702,-2.8669,-2.8724,-2.8675,-2.8092,-2.7169,-2.5952,-2.5548,-2.521,-2.4785,-2.4914,-2.5152,-2.5665,-2.5885,-2.6087,-2.6481,-2.6008,-2.5798,-2.5578,-2.5255,-2.4812,-2.4821,-2.4821,-2.4821,-2.4821,-2.4821,-2.4821,-2.4821,-2.4821,-2.4975,-2.5138,-2.5258,-2.5455,-2.584,-2.6157,-2.6311,-2.6491,-2.6687,-2.6696,-2.6419,-2.5749,-2.4792,-2.4001,-2.3348,-2.3046,-2.3022,-2.3014,-2.3054,-3.5489,-3.5489,-3.5489,-3.5489,-3.5489,-3.5489,-3.5489,-3.5439,-3.5082,-3.4935,-3.4802,-3.4225,-3.3896,-3.3882,-3.3466,-3.3241,-3.3171,-3.3157,-3.3002,-3.2775,-3.2632,-3.2503,-3.2359,-3.2241,-3.2169,-3.2169,-3.2169,-3.2169,-3.2169,-3.2169,-3.2169,-3.2169,-3.2169,-3.2169,-3.2169,-3.1936,-3.185,-3.179,-3.1009,-3.0393,-2.9947,-2.9419,-2.8882,-2.851,-2.851,-2.851,-2.851,-2.851,-2.851,-2.851,-2.851,-2.8431,-2.8179,-2.8087,-2.7822,-2.758,-2.7418,-2.7332,-2.7341,-2.7431,-2.7634,-2.7741,-2.8222,-2.8484,-2.8517,-2.8659,-2.885,-2.885,-2.885,-2.885,-2.8664,-2.807,-2.7315,-2.6709,-2.6045,-2.5666,-2.5522,-2.5507,-2.5656,-2.594,-2.6169,-2.6435,-2.6409,-2.6245,-2.5907,-2.5679,-2.5348,-2.5026,-2.4821,-2.4821,-2.4821,-2.4821,-2.4821,-2.4821,-2.4821,-2.4821,-2.4932,-2.5198,-2.542,-2.5746,-2.6105,-2.6345,-2.6499,-2.6662,-2.6953,-2.6739,-2.6259,-2.5376,-2.4447,-2.3745,-2.3101,-2.3109,-2.3014,-2.3062,-2.3165,-3.5733,-3.5683,-3.5569,-3.5489,-3.5489,-3.5489,-3.5489,-3.5439,-3.5148,-3.4935,-3.4802,-3.4278,-3.402,-3.3813,-3.3536,-3.334,-3.3326,-3.3312,-3.3157,-3.2988,-3.2846,-3.2632,-3.2417,-3.23,-3.2228,-3.2169,-3.2169,-3.2169,-3.2169,-3.2169,-3.2169,-3.2169,-3.2169,-3.2169,-3.2169,-3.2169,-3.2169,-3.2096,-3.1381,-3.0696,-3.0254,-2.9484,-2.8961,-2.859,-2.851,-2.851,-2.851,-2.851,-2.851,-2.851,-2.851,-2.8431,-2.8259,-2.8203,-2.795,-2.7777,-2.7685,-2.7667,-2.7759,-2.7995,-2.821,-2.8313,-2.8642,-2.885,-2.885,-2.885,-2.885,-2.885,-2.885,-2.885,-2.8757,-2.8269,-2.7883,-2.7521,-2.6803,-2.6274,-2.6352,-2.6134,-2.6074,-2.6178,-2.6399,-2.6554,-2.6582,-2.6236,-2.6017,-2.5679,-2.5459,-2.5128,-2.4923,-2.4821,-2.4821,-2.4821,-2.4821,-2.4821,-2.4881,-2.4941,-2.5198,-2.5472,-2.5771,-2.608,-2.6354,-2.6559,-2.6662,-2.6842,-2.6807,-2.6423,-2.5839,-2.4845,-2.4122,-2.3456,-2.322,-2.326,-2.3197,-2.3141,-2.3308,-3.6211,-3.6085,-3.5668,-3.5489,-3.5489,-3.5489,-3.5489,-3.5424,-3.5294,-3.5067,-3.4868,-3.4549,-3.4142,-3.3896,-3.3675,-3.3466,-3.3326,-3.3312,-3.3241,-3.3058,-3.2988,-3.2775,-3.2489,-3.2417,-3.23,-3.2169,-3.2169,-3.2169,-3.2169,-3.2169,-3.2169,-3.2169,-3.2169,-3.2169,-3.2169,-3.2169,-3.2169,-3.195,-3.1084,-3.0393,-3.0177,-2.9184,-2.8669,-2.851,-2.851,-2.851,-2.851,-2.851,-2.851,-2.851,-2.851,-2.851,-2.851,-2.8431,-2.8351,-2.825,-2.8386,-2.8582,-2.8677,-2.8862,-2.8982,-2.9043,-2.9106,-2.9035,-2.885,-2.885,-2.885,-2.885,-2.885,-2.885,-2.885,-2.8757,-2.8545,-2.8166,-2.7455,-2.7031,-2.692,-2.6461,-2.6114,-2.6454,-2.6582,-2.6582,-2.6582,-2.6245,-2.6017,-2.5679,-2.545,-2.5119,-2.4923,-2.4821,-2.4821,-2.4821,-2.4821,-2.4821,-2.4949,-2.5121,-2.548,-2.5831,-2.6148,-2.6456,-2.6713,-2.691,-2.6713,-2.6773,-2.6379,-2.6099,-2.5645,-2.4713,-2.4318,-2.3748,-2.3592,-2.3387,-2.334,-2.3324,-2.3546,-3.6037,-3.5733,-3.5554,-3.5489,-3.5489,-3.5489,-3.5489,-3.5489,-3.5294,-3.5067,-3.4868,-3.4534,-3.4225,-3.3896,-3.3689,-3.348,-3.3326,-3.3312,-3.3241,-3.3157,-3.3072,-3.2917,-3.2775,-3.2561,-3.2286,-3.2241,-3.2169,-3.2169,-3.2169,-3.2169,-3.2169,-3.2169,-3.2169,-3.2169,-3.2169,-3.2169,-3.2169,-3.2096,-3.1381,-3.0771,-3.033,-2.9574,-2.8961,-2.859,-2.851,-2.851,-2.851,-2.851,-2.851,-2.851,-2.851,-2.851,-2.851,-2.851,-2.8431,-2.8226,-2.8421,-2.8617,-2.8712,-2.893,-2.924,-2.9271,-2.9209,-2.9128,-2.9035,-2.885,-2.885,-2.885,-2.885,-2.885,-2.885,-2.885,-2.8589,-2.825,-2.7798,-2.7379,-2.7131,-2.6733,-2.6534,-2.6545,-2.6591,-2.6591,-2.6582,-2.6364,-2.6017,-2.5789,-2.5459,-2.5119,-2.4923,-2.4821,-2.4821,-2.4821,-2.4821,-2.483,-2.4915,-2.5129,-2.5497,-2.5874,-2.6242,-2.6619,-2.6919,-2.7047,-2.685,-2.6465,-2.6071,-2.563,-2.518,-2.4775,-2.4364,-2.4024,-2.3821,-2.3624,-2.3419,-2.3602,-2.3856,-3.6461,-3.6022,-3.5861,-3.5619,-3.5489,-3.5489,-3.5489,-3.5504,-3.5374,-3.5213,-3.5016,-3.4735,-3.4414,-3.4088,-3.3813,-3.3619,-3.3396,-3.3312,-3.3312,-3.3312,-3.3157,-3.3072,-3.2988,-3.2561,-3.2359,-3.2241,-3.2169,-3.2169,-3.2169,-3.2169,-3.2169,-3.2169,-3.2169,-3.2169,-3.2169,-3.2169,-3.2169,-3.2109,-3.1542,-3.1009,-3.062,-3.0024,-2.9406,-2.8961,-2.8803,-2.8736,-2.851,-2.851,-2.851,-2.851,-2.851,-2.851,-2.851,-2.851,-2.8419,-2.839,-2.868,-2.8923,-2.9028,-2.9378,-2.9489,-2.951,-2.9301,-2.9128,-2.9024,-2.885,-2.885,-2.885,-2.885,-2.885,-2.885,-2.885,-2.8653,-2.8492,-2.8003,-2.7544,-2.7007,-2.6732,-2.6673,-2.6591,-2.6591,-2.6591,-2.6582,-2.6473,-2.6136,-2.5907,-2.556,-2.534,-2.5034,-2.4932,-2.4821,-2.4821,-2.4821,-2.4838,-2.4847,-2.5129,-2.5497,-2.5874,-2.6242,-2.6628,-2.697,-2.703,-2.6927,-2.6234,-2.5746,-2.5352,-2.4887,-2.4586,-2.4348,-2.4127,-2.391,-2.3795,-2.3785,-2.3967,-2.4206,-3.7358,-3.6845,-3.6383,-3.591,-3.5554,-3.5504,-3.5489,-3.5504,-3.5504,-3.5374,-3.5148,-3.4949,-3.4668,-3.4346,-3.4005,-3.3827,-3.3605,-3.3396,-3.3312,-3.3312,-3.3241,-3.3157,-3.2988,-3.2632,-3.2431,-3.2228,-3.2241,-3.2241,-3.2169,-3.2169,-3.2169,-3.2169,-3.2169,-3.2169,-3.2169,-3.2169,-3.2169,-3.2096,-3.1616,-3.1307,-3.1145,-3.062,-3.0012,-2.9496,-2.9341,-2.9106,-2.8736,-2.859,-2.851,-2.851,-2.851,-2.851,-2.851,-2.851,-2.851,-2.8479,-2.9011,-2.9291,-2.946,-2.9785,-2.9966,-2.9646,-2.9474,-2.9301,-2.9024,-2.885,-2.885,-2.885,-2.885,-2.885,-2.885,-2.885,-2.8793,-2.8676,-2.8107,-2.7406,-2.676,-2.6582,-2.6582,-2.6591,-2.6591,-2.6591,-2.6591,-2.6582,-2.6364,-2.6136,-2.5798,-2.5578,-2.5366,-2.5043,-2.4821,-2.4821,-2.4821,-2.483,-2.4838,-2.4941,-2.53,-2.566,-2.608,-2.6525,-2.6876,-2.6944,-2.6799,-2.6105,-2.5532,-2.5112,-2.4727,-2.4607,-2.4487,-2.4331,-2.4168,-2.404,-2.4193,-2.4408,-2.4563,-3.7013,-3.6585,-3.6226,-3.5973,-3.5861,-3.5619,-3.5489,-3.5489,-3.5489,-3.5294,-3.5067,-3.5067,-3.4735,-3.4182,-3.4128,-3.3868,-3.3605,-3.3396,-3.3312,-3.3312,-3.3312,-3.3157,-3.3058,-3.2917,-3.2632,-3.2359,-3.23,-3.2286,-3.2169,-3.2169,-3.2169,-3.2169,-3.2169,-3.2169,-3.2169,-3.2169,-3.2169,-3.2169,-3.2023,-3.1629,-3.1233,-3.1084,-3.0696,-3.0088,-2.9639,-2.9328,-2.9118,-2.8736,-2.851,-2.851,-2.851,-2.851,-2.851,-2.851,-2.8431,-2.8414,-2.8988,-2.9262,-2.9265,-2.9831,-3.0079,-3.0034,-2.9669,-2.9497,-2.9301,-2.9024,-2.885,-2.885,-2.885,-2.885,-2.885,-2.8872,-2.8646,-2.8074,-2.7928,-2.7506,-2.6825,-2.6591,-2.6591,-2.6591,-2.6591,-2.6591,-2.6591,-2.6582,-2.6473,-2.6127,-2.5907,-2.5679,-2.5357,-2.5043,-2.4821,-2.4821,-2.4821,-2.4821,-2.4838,-2.4889,-2.5086,-2.5429,-2.5857,-2.6354,-2.6645,-2.6816,-2.6499,-2.5994,-2.5592,-2.5172,-2.4941,-2.471,-2.4599,-2.4487,-2.4524,-2.4555,-2.4441,-2.458,-2.4781,-3.7194,-3.6785,-3.6585,-3.6414,-3.6163,-3.5876,-3.5683,-3.5683,-3.5569,-3.5374,-3.5228,-3.5148,-3.4935,-3.4452,-3.4332,-3.4059,-3.3799,-3.3536,-3.3466,-3.3396,-3.3326,-3.3157,-3.2988,-3.2917,-3.269,-3.2417,-3.2345,-3.23,-3.2241,-3.2169,-3.2169,-3.2169,-3.2169,-3.2169,-3.2169,-3.2169,-3.2169,-3.2169,-3.2169,-3.2009,-3.1629,-3.1629,-3.1246,-3.0784,-3.0317,-3.0012,-2.9419,-2.8803,-2.851,-2.851,-2.851,-2.851,-2.851,-2.851,-2.8431,-2.8215,-2.894,-2.9262,-2.9242,-2.9731,-3.0091,-3.0057,-2.9783,-2.9588,-2.9301,-2.9024,-2.8943,-2.8839,-2.885,-2.885,-2.8894,-2.8932,-2.8721,-2.8167,-2.7988,-2.7631,-2.6763,-2.6591,-2.6591,-2.6591,-2.6591,-2.6591,-2.6591,-2.6591,-2.6473,-2.6245,-2.5907,-2.5679,-2.545,-2.5026,-2.4821,-2.4821,-2.4821,-2.4821,-2.4821,-2.4864,-2.5035,-2.5343,-2.5652,-2.6157,-2.6499,-2.6687,-2.6482,-2.6114,-2.5677,-2.5318,-2.5112,-2.4924,-2.471,-2.4692,-2.4842,-2.4813,-2.4644,-2.4696,-2.4911,-3.7626,-3.7254,-3.721,-3.6968,-3.6554,-3.6163,-3.6052,-3.5988,-3.5748,-3.5569,-3.5489,-3.5279,-3.5016,-3.4868,-3.4481,-3.4278,-3.4059,-3.3744,-3.3605,-3.3536,-3.3382,-3.3227,-3.3072,-3.2931,-3.2775,-3.2561,-3.23,-3.2241,-3.2241,-3.2241,-3.2169,-3.2169,-3.2169,-3.2169,-3.2169,-3.2169,-3.2169,-3.2169,-3.2169,-3.2169,-3.2096,-3.2096,-3.179,-3.1394,-3.0921,-3.0317,-2.9496,-2.8816,-2.851,-2.851,-2.851,-2.851,-2.851,-2.851,-2.8351,-2.8369,-2.8893,-2.9262,-2.9132,-2.9719,-3.0136,-2.9977,-2.9977,-2.9703,-2.9312,-2.9128,-2.9035,-2.885,-2.885,-2.885,-2.8894,-2.9128,-2.887,-2.8342,-2.8309,-2.7835,-2.6882,-2.6636,-2.6591,-2.6591,-2.6591,-2.6591,-2.6582,-2.6582,-2.6473,-2.6136,-2.5798,-2.5569,-2.534,-2.5026,-2.4821,-2.4821,-2.4821,-2.4821,-2.4821,-2.483,-2.5052,-2.5309,-2.5549,-2.5943,-2.6396,-2.6568,-2.6525,-2.6302,-2.5994,-2.5652,-2.5309,-2.5129,-2.4958,-2.4761,-2.4819,-2.4673,-2.4536,-2.4691,-2.4878,-3.7658,-3.7405,-3.7181,-3.6999,-3.6877,-3.6554,-3.6367,-3.6367,-3.6052,-3.5782,-3.5638,-3.5329,-3.5082,-3.475,-3.4549,-3.4278,-3.4128,-3.3882,-3.3758,-3.3605,-3.3396,-3.3312,-3.3241,-3.3157,-3.3016,-3.2846,-3.2704,-3.2489,-3.2359,-3.2241,-3.2182,-3.2182,-3.2169,-3.2169,-3.2169,-3.2169,-3.2169,-3.2169,-3.2169,-3.2169,-3.2169,-3.2169,-3.2096,-3.1863,-3.1097,-3.0165,-2.9484,-2.8816,-2.851,-2.851,-2.851,-2.851,-2.851,-2.851,-2.8351,-2.8255,-2.8809,-2.9227,-2.9046,-2.9573,-3.0216,-3.0136,-2.9966,-2.9794,-2.9485,-2.922,-2.9035,-2.885,-2.885,-2.885,-2.8872,-2.8833,-2.8696,-2.8433,-2.8219,-2.7843,-2.6852,-2.6616,-2.6608,-2.6554,-2.6573,-2.6482,-2.6245,-2.6245,-2.6127,-2.5907,-2.567,-2.5441,-2.5229,-2.5017,-2.4898,-2.4778,-2.4821,-2.4821,-2.4821,-2.483,-2.4967,-2.5138,-2.5352,-2.5626,-2.6088,-2.6379,-2.6302,-2.6354,-2.6396,-2.6037,-2.5652,-2.5343,-2.5172,-2.5044,-2.4829,-2.4734,-2.4811,-2.4851,-2.4763,-3.7599,-3.748,-3.7301,-3.7241,-3.7181,-3.6862,-3.6739,-3.6677,-3.6367,-3.6163,-3.6022,-3.5638,-3.5249,-3.4986,-3.4683,-3.4414,-3.4074,-3.3868,-3.3675,-3.3466,-3.3326,-3.3312,-3.3312,-3.3241,-3.3157,-3.2988,-3.2775,-3.2632,-3.2503,-3.2372,-3.23,-3.23,-3.2241,-3.2169,-3.2169,-3.2169,-3.2169,-3.2169,-3.2169,-3.2169,-3.2169,-3.2169,-3.2169,-3.2023,-3.1246,-3.0545,-3.0241,-2.9341,-2.904,-2.8882,-2.8657,-2.851,-2.851,-2.851,-2.8363,-2.8265,-2.8574,-2.9005,-2.9097,-2.9489,-2.9975,-3.0193,-3.0125,-2.9863,-2.9577,-2.9393,-2.9128,-2.8943,-2.885,-2.885,-2.885,-2.8861,-2.865,-2.8507,-2.8284,-2.7919,-2.7352,-2.7016,-2.671,-2.655,-2.6463,-2.6545,-2.6364,-2.6218,-2.6127,-2.6017,-2.5431,-2.5204,-2.5125,-2.4913,-2.4812,-2.4718,-2.4795,-2.4821,-2.4821,-2.4838,-2.4872,-2.4967,-2.5044,-2.5309,-2.5643,-2.5883,-2.6045,-2.6208,-2.6405,-2.6396,-2.6054,-2.5737,-2.548,-2.5472,-2.5264,-2.5076,-2.4904,-2.496,-2.4641,-3.7539,-3.7539,-3.7539,-3.748,-3.7464,-3.7181,-3.706,-3.6999,-3.6754,-3.6554,-3.6476,-3.6022,-3.5623,-3.535,-3.5001,-3.4534,-3.4142,-3.3813,-3.3605,-3.3466,-3.334,-3.3326,-3.3312,-3.3241,-3.3241,-3.3072,-3.2846,-3.2775,-3.2632,-3.2489,-3.2359,-3.2345,-3.2228,-3.2169,-3.2169,-3.2169,-3.2169,-3.2169,-3.2169,-3.2169,-3.2169,-3.2169,-3.2169,-3.2096,-3.1542,-3.1145,-3.0771,-3.0024,-2.9341,-2.9341,-2.8803,-2.859,-2.851,-2.851,-2.8419,-2.8203,-2.848,-2.8654,-2.8819,-2.9224,-2.9711,-3.0101,-3.0204,-3.0034,-2.9669,-2.9485,-2.9209,-2.9035,-2.8861,-2.885,-2.885,-2.885,-2.885,-2.8751,-2.8476,-2.8252,-2.7945,-2.7441,-2.6806,-2.6337,-2.6267,-2.6353,-2.6345,-2.6155,-2.6091,-2.5963,-2.5477,-2.5037,-2.4977,-2.4853,-2.4667,-2.471,-2.4795,-2.4821,-2.4821,-2.483,-2.4864,-2.4872,-2.4881,-2.5044,-2.5292,-2.5515,-2.5797,-2.6317,-2.648,-2.6471,-2.6428,-2.6153,-2.5998,-2.5908,-2.5771,-2.5417,-2.5227,-2.5104,-2.483,-3.7817,-3.7817,-3.7599,-3.7539,-3.7642,-3.748,-3.7436,-3.7361,-3.706,-3.6938,-3.6877,-3.6336,-3.5864,-3.5479,-3.5234,-3.4854,-3.4399,-3.402,-3.3813,-3.3675,-3.3466,-3.3326,-3.3326,-3.3312,-3.3241,-3.3227,-3.3072,-3.2917,-3.2704,-3.2489,-3.2431,-3.23,-3.2241,-3.2169,-3.2169,-3.2169,-3.2169,-3.2169,-3.2169,-3.2169,-3.2169,-3.2169,-3.2169,-3.2169,-3.1616,-3.1307,-3.0996,-3.0101,-2.9419,-2.9341,-2.8803,-2.859,-2.851,-2.851,-2.8431,-2.8274,-2.8362,-2.855,-2.8579,-2.9017,-2.9424,-2.9699,-2.9952,-3.0079,-2.9829,-2.9588,-2.9405,-2.9117,-2.8943,-2.8839,-2.885,-2.885,-2.885,-2.879,-2.8729,-2.8441,-2.7872,-2.7344,-2.682,-2.6256,-2.6141,-2.6087,-2.6034,-2.5946,-2.5846,-2.5646,-2.5313,-2.4968,-2.4905,-2.4837,-2.4727,-2.477,-2.4812,-2.4821,-2.4821,-2.4821,-2.4838,-2.4838,-2.4847,-2.4847,-2.5069,-2.5258,-2.5549,-2.5938,-2.6282,-2.6446,-2.6494,-2.6416,-2.6317,-2.6165,-2.6011,-2.5848,-2.5608,-2.5467,-2.5405,-3.7876,-3.7876,-3.77,-3.7642,-3.7658,-3.7539,-3.748,-3.748,-3.7301,-3.7257,-3.7121,-3.6723,-3.6321,-3.6054,-3.5672,-3.5219,-3.4639,-3.4074,-3.3951,-3.3813,-3.3605,-3.3466,-3.341,-3.3396,-3.3312,-3.3241,-3.3157,-3.3086,-3.3016,-3.2704,-3.2574,-3.2431,-3.23,-3.2169,-3.2169,-3.2169,-3.2169,-3.2169,-3.2169,-3.2169,-3.2169,-3.2169,-3.2169,-3.2096,-3.1936,-3.1703,-3.1556,-3.0859,-3.0177,-2.9871,-2.9263,-2.8895,-2.859,-2.851,-2.8431,-2.8226,-2.8197,-2.8316,-2.8266,-2.8688,-2.8769,-2.9114,-2.9561,-2.9724,-2.9659,-2.9579,-2.9555,-2.9312,-2.9117,-2.8932,-2.8932,-2.885,-2.885,-2.885,-2.8757,-2.8373,-2.7747,-2.716,-2.6615,-2.6126,-2.5769,-2.5687,-2.5624,-2.5584,-2.5514,-2.5386,-2.506,-2.4853,-2.4761,-2.4761,-2.471,-2.4795,-2.4821,-2.4821,-2.4821,-2.4821,-2.4821,-2.4821,-2.4821,-2.4821,-2.4864,-2.5061,-2.5129,-2.5258,-2.5749,-2.6295,-2.6385,-2.6325,-2.6311,-2.6405,-2.6319,-2.6242,-2.6108,-2.5922,-2.577,-3.7992,-3.7992,-3.7817,-3.7759,-3.7716,-3.7583,-3.7539,-3.7539,-3.748,-3.748,-3.7421,-3.7044,-3.6785,-3.6585,-3.6117,-3.5544,-3.4957,-3.4332,-3.4142,-3.3882,-3.3675,-3.3619,-3.355,-3.3396,-3.3312,-3.3312,-3.3241,-3.3312,-3.3157,-3.2917,-3.2775,-3.2561,-3.2372,-3.2241,-3.2228,-3.2241,-3.2169,-3.2169,-3.2169,-3.2169,-3.2169,-3.2169,-3.2169,-3.2169,-3.2169,-3.2169,-3.2023,-3.1394,-3.0784,-3.0254,-2.9716,-2.9106,-2.8669,-2.851,-2.8431,-2.8191,-2.7962,-2.8058,-2.8128,-2.818,-2.8276,-2.8563,-2.9033,-2.9175,-2.9169,-2.9353,-2.9636,-2.9463,-2.9301,-2.9117,-2.9024,-2.8932,-2.885,-2.885,-2.8757,-2.8466,-2.7683,-2.6986,-2.6237,-2.5778,-2.5376,-2.5199,-2.5045,-2.5011,-2.4952,-2.4861,-2.4663,-2.4637,-2.4547,-2.4624,-2.4641,-2.477,-2.4821,-2.4821,-2.4821,-2.4821,-2.4821,-2.4821,-2.4821,-2.4821,-2.4821,-2.4872,-2.4924,-2.5001,-2.5206,-2.5617,-2.5917,-2.6251,-2.6379,-2.6482,-2.6585,-2.6636,-2.65,-2.644,-2.6202,-3.8237,-3.8294,-3.7992,-3.7876,-3.7876,-3.77,-3.7583,-3.7539,-3.748,-3.748,-3.748,-3.7421,-3.7105,-3.6723,-3.6196,-3.5672,-3.5219,-3.4957,-3.4587,-3.4317,-3.3991,-3.3799,-3.3591,-3.3396,-3.3326,-3.3312,-3.3312,-3.3157,-3.3072,-3.3002,-3.2846,-3.2704,-3.2489,-3.2345,-3.23,-3.2241,-3.2169,-3.2169,-3.2169,-3.2169,-3.2169,-3.2169,-3.2169,-3.2169,-3.2169,-3.2169,-3.2169,-3.1629,-3.1009,-3.033,-2.9716,-2.9106,-2.8578,-2.851,-2.8271,-2.8042,-2.7893,-2.7928,-2.7918,-2.7939,-2.7908,-2.8115,-2.8517,-2.8735,-2.89,-2.901,-2.9274,-2.9474,-2.9463,-2.9382,-2.9198,-2.9128,-2.8943,-2.885,-2.885,-2.8362,-2.76,-2.6924,-2.6167,-2.5216,-2.482,-2.4564,-2.4497,-2.4408,-2.4272,-2.4279,-2.4303,-2.427,-2.4324,-2.4401,-2.4616,-2.4761,-2.4821,-2.4821,-2.4821,-2.4821,-2.4821,-2.4821,-2.4821,-2.4821,-2.4821,-2.4821,-2.483,-2.4924,-2.5078,-2.5198,-2.5472,-2.5848,-2.6285,-2.6465,-2.6465,-2.6713,-2.7004,-2.6919,-2.6594,-3.8335,-3.8408,-3.818,-3.8049,-3.8049,-3.7817,-3.7642,-3.7599,-3.7539,-3.748,-3.748,-3.748,-3.7361,-3.7029,-3.6585,-3.6274,-3.6006,-3.5593,-3.5335,-3.5088,-3.4839,-3.4505,-3.4221,-3.3948,-3.3756,-3.3382,-3.3312,-3.3241,-3.3157,-3.3072,-3.2917,-3.2704,-3.2489,-3.2359,-3.2359,-3.2241,-3.2169,-3.2169,-3.2169,-3.2169,-3.2169,-3.2169,-3.2169,-3.2169,-3.2169,-3.2169,-3.2096,-3.2009,-3.1246,-3.0558,-3.0012,-2.9406,-2.8736,-2.851,-2.8431,-2.8283,-2.8054,-2.7812,-2.7603,-2.7543,-2.7552,-2.7679,-2.8012,-2.8402,-2.8643,-2.8809,-2.9075,-2.9488,-2.9331,-2.9274,-2.9418,-2.922,-2.9128,-2.8943,-2.885,-2.8081,-2.741,-2.6839,-2.6071,-2.5109,-2.4251,-2.4136,-2.4106,-2.4155,-2.3982,-2.3852,-2.3939,-2.4067,-2.4149,-2.4196,-2.447,-2.4787,-2.4821,-2.4821,-2.4821,-2.4821,-2.4804,-2.4812,-2.4821,-2.4821,-2.4821,-2.4821,-2.4821,-2.4821,-2.4915,-2.5026,-2.525,-2.5437,-2.5874,-2.6105,-2.6302,-2.6508,-2.6705,-2.6739,-2.6619,-3.8391,-3.8391,-3.8294,-3.8221,-3.818,-3.7876,-3.77,-3.77,-3.7524,-3.748,-3.748,-3.748,-3.748,-3.7421,-3.7089,-3.6785,-3.6662,-3.6243,-3.5976,-3.5864,-3.5672,-3.5219,-3.481,-3.4476,-3.4153,-3.3507,-3.3577,-3.3437,-3.3241,-3.3157,-3.3002,-3.286,-3.2646,-3.2503,-3.2372,-3.2241,-3.2169,-3.2169,-3.2169,-3.2169,-3.2169,-3.2169,-3.2169,-3.2169,-3.2169,-3.2169,-3.2169,-3.2169,-3.1556,-3.0784,-3.0317,-2.9716,-2.8961,-2.859,-2.8431,-2.8283,-2.8054,-2.7743,-2.7406,-2.7277,-2.7231,-2.7346,-2.7529,-2.7966,-2.8402,-2.854,-2.8735,-2.9164,-2.9021,-2.9194,-2.9353,-2.9101,-2.8995,-2.8855,-2.8839,-2.7882,-2.7115,-2.6744,-2.6167,-2.5197,-2.443,-2.3746,-2.3817,-2.3969,-2.379,-2.3434,-2.3548,-2.3738,-2.3857,-2.3948,-2.4127,-2.441,-2.4401,-2.4453,-2.4607,-2.4641,-2.4684,-2.4735,-2.4753,-2.4804,-2.4787,-2.4812,-2.4821,-2.4821,-2.4821,-2.4872,-2.4984,-2.5215,-2.5446,-2.5711,-2.5951,-2.6114,-2.6268,-2.6362,-2.6499,-3.8391,-3.8391,-3.8391,-3.8278,-3.8164,-3.7976,-3.7817,-3.77,-3.7583,-3.748,-3.748,-3.748,-3.748,-3.748,-3.7405,-3.715,-3.6723,-3.6662,-3.6399,-3.5928,-3.5544,-3.5479,-3.5285,-3.5008,-3.461,-3.4153,-3.3948,-3.3701,-3.3452,-3.3312,-3.3241,-3.3255,-3.286,-3.2717,-3.2503,-3.23,-3.2169,-3.2169,-3.2169,-3.2169,-3.2169,-3.2169,-3.2169,-3.2169,-3.2169,-3.2169,-3.2169,-3.2169,-3.1863,-3.1084,-3.062,-3.0012,-2.9263,-2.8895,-2.859,-2.8203,-2.8078,-2.7743,-2.7394,-2.7231,-2.7231,-2.7242,-2.7346,-2.7552,-2.7966,-2.8023,-2.8276,-2.8677,-2.8596,-2.8672,-2.8712,-2.8656,-2.8699,-2.876,-2.8674,-2.8193,-2.7442,-2.6935,-2.636,-2.5392,-2.4618,-2.4035,-2.3546,-2.3707,-2.345,-2.3106,-2.3134,-2.3315,-2.3582,-2.3674,-2.3717,-2.3845,-2.3828,-2.3939,-2.4213,-2.429,-2.4324,-2.4419,-2.4479,-2.4616,-2.4727,-2.4753,-2.4684,-2.4821,-2.4821,-2.4821,-2.4847,-2.5061,-2.5266,-2.5429,-2.5592,-2.572,-2.596,-2.6157,-2.6294,-3.8391,-3.8391,-3.8391,-3.8351,-3.8294,-3.8164,-3.7992,-3.7817,-3.77,-3.7599,-3.748,-3.748,-3.748,-3.748,-3.748,-3.7421,-3.7225,-3.7225,-3.6968,-3.6892,-3.6708,-3.6383,-3.6117,-3.5672,-3.54,-3.4795,-3.4341,-3.4085,-3.3825,-3.3507,-3.3312,-3.3171,-3.3002,-3.2775,-3.2503,-3.23,-3.2241,-3.2169,-3.2169,-3.2169,-3.2169,-3.2169,-3.2169,-3.2169,-3.2169,-3.2169,-3.2169,-3.2169,-3.179,-3.132,-3.1009,-3.033,-2.9639,-2.9184,-2.8724,-2.8179,-2.8066,-2.7731,-2.7464,-2.7313,-2.7231,-2.7231,-2.7242,-2.7323,-2.7564,-2.7541,-2.7782,-2.8069,-2.8191,-2.8236,-2.8623,-2.8496,-2.8466,-2.8588,-2.8558,-2.8207,-2.7849,-2.7327,-2.6829,-2.6061,-2.5187,-2.4313,-2.3827,-2.3456,-2.3064,-2.2687,-2.2825,-2.2886,-2.3151,-2.3348,-2.3383,-2.3443,-2.3451,-2.3562,-2.3836,-2.3913,-2.3948,-2.4076,-2.4205,-2.4307,-2.4436,-2.4444,-2.4436,-2.4624,-2.4804,-2.4787,-2.483,-2.4941,-2.5061,-2.5163,-2.5215,-2.5266,-2.5557,-2.5891,-2.6037,-3.8391,-3.8391,-3.8391,-3.8391,-3.8391,-3.8237,-3.8107,-3.7992,-3.7817,-3.77,-3.7539,-3.7524,-3.7539,-3.7539,-3.748,-3.748,-3.748,-3.748,-3.7405,-3.7345,-3.721,-3.7089,-3.6708,-3.6383,-3.607,-3.5449,-3.4993,-3.4728,-3.4124,-3.3756,-3.3507,-3.3297,-3.3157,-3.286,-3.2561,-3.23,-3.2169,-3.2169,-3.2169,-3.2169,-3.2169,-3.2169,-3.2169,-3.2169,-3.2169,-3.2169,-3.2169,-3.2169,-3.2023,-3.1629,-3.1233,-3.0771,-3.0075,-2.9447,-2.8888,-2.8462,-2.8007,-2.7696,-2.7452,-2.7301,-2.7231,-2.7231,-2.7231,-2.7231,-2.7231,-2.7231,-2.7495,-2.7667,-2.7698,-2.7882,-2.8339,-2.8087,-2.8128,-2.8244,-2.8633,-2.8426,-2.8164,-2.7702,-2.7337,-2.6829,-2.5954,-2.5089,-2.4115,-2.3628,-2.3046,-2.2745,-2.2713,-2.2706,-2.2818,-2.2972,-2.3014,-2.3083,-2.316,-2.3306,-2.3477,-2.3511,-2.358,-2.3828,-2.3922,-2.3931,-2.4008,-2.4042,-2.4196,-2.4427,-2.4581,-2.4693,-2.4795,-2.4881,-2.4872,-2.4864,-2.4941,-2.5044,-2.5172,-2.5489,-2.5669,-3.8391,-3.8391,-3.8391,-3.8391,-3.8408,-3.8221,-3.818,-3.818,-3.7934,-3.7801,-3.77,-3.77,-3.7599,-3.7539,-3.7539,-3.748,-3.748,-3.748,-3.7405,-3.7329,-3.7329,-3.7165,-3.706,-3.6877,-3.66,-3.6258,-3.58,-3.519,-3.4298,-3.4138,-3.3825,-3.3437,-3.3157,-3.3002,-3.2704,-3.2372,-3.2241,-3.2169,-3.2241,-3.2169,-3.2169,-3.2169,-3.2169,-3.2169,-3.2169,-3.2169,-3.2169,-3.2169,-3.2096,-3.1936,-3.1542,-3.1233,-3.0846,-2.9617,-2.9012,-2.8767,-2.8119,-2.758,-2.7219,-2.7231,-2.7231,-2.7231,-2.7231,-2.7231,-2.7231,-2.7242,-2.7254,-2.7438,-2.7215,-2.7292,-2.7386,-2.7527,-2.7712,-2.7939,-2.8232,-2.8433,-2.8149,-2.8191,-2.7814,-2.7432,-2.6768,-2.6061,-2.4884,-2.3917,-2.3238,-2.2846,-2.2653,-2.2687,-2.2638,-2.2681,-2.2766,-2.2809,-2.2997,-2.2963,-2.3083,-2.3109,-2.322,-2.3485,-2.3588,-2.3537,-2.3588,-2.3665,-2.3871,-2.417,-2.4367,-2.4479,-2.465,-2.4812,-2.4812,-2.4821,-2.4821,-2.4898,-2.4984,-2.5078,-2.5283,-3.8391,-3.8391,-3.8391,-3.8391,-3.8391,-3.8335,-3.8294,-3.8164,-3.7992,-3.7876,-3.7817,-3.7759,-3.77,-3.7642,-3.7524,-3.7539,-3.748,-3.748,-3.7405,-3.7405,-3.7405,-3.7405,-3.7301,-3.7165,-3.6984,-3.6662,-3.6258,-3.5672,-3.4728,-3.4461,-3.3879,-3.3437,-3.3157,-3.3072,-3.2846,-3.2574,-3.2359,-3.2286,-3.2228,-3.2169,-3.2169,-3.2169,-3.2169,-3.2169,-3.2169,-3.2169,-3.2169,-3.2169,-3.2169,-3.2169,-3.1776,-3.1629,-3.1307,-3.0176,-2.9757,-2.9238,-2.853,-2.7995,-2.7464,-2.7231,-2.7231,-2.7231,-2.7231,-2.7231,-2.7231,-2.7231,-2.7231,-2.7149,-2.7149,-2.7204,-2.7284,-2.733,-2.7379,-2.7442,-2.7693,-2.7962,-2.7955,-2.832,-2.8313,-2.785,-2.7295,-2.621,-2.5111,-2.4295,-2.3529,-2.3138,-2.2946,-2.2653,-2.2687,-2.2687,-2.273,-2.2722,-2.2756,-2.2663,-2.2706,-2.2818,-2.2843,-2.2997,-2.3049,-2.3006,-2.3091,-2.3263,-2.3511,-2.3785,-2.4033,-2.4282,-2.4453,-2.4624,-2.4778,-2.4821,-2.4821,-2.4821,-2.4889,-2.4915,-2.4949,-3.8391,-3.8391,-3.8391,-3.8391,-3.8391,-3.8391,-3.8335,-3.8221,-3.8107,-3.8049,-3.7992,-3.7934,-3.7817,-3.7716,-3.7599,-3.7524,-3.7539,-3.748,-3.748,-3.748,-3.748,-3.748,-3.7405,-3.7389,-3.7285,-3.7044,-3.6646,-3.6054,-3.5204,-3.481,-3.4085,-3.3507,-3.3157,-3.3157,-3.3002,-3.2775,-3.2489,-3.2489,-3.2431,-3.2372,-3.23,-3.23,-3.2228,-3.2241,-3.2169,-3.2169,-3.2169,-3.2169,-3.2169,-3.2169,-3.2096,-3.2023,-3.1616,-3.0996,-3.0469,-2.9549,-2.8474,-2.7926,-2.7383,-2.7231,-2.7231,-2.7231,-2.7231,-2.7231,-2.7231,-2.7231,-2.7231,-2.7231,-2.7231,-2.7242,-2.7242,-2.7231,-2.7193,-2.7273,-2.7499,-2.7793,-2.7922,-2.8197,-2.8333,-2.7905,-2.7457,-2.6349,-2.5459,-2.4651,-2.3926,-2.3529,-2.3238,-2.2946,-2.2653,-2.2653,-2.2653,-2.2653,-2.2653,-2.2687,-2.2595,-2.2713,-2.2713,-2.2662,-2.2713,-2.2689,-2.2723,-2.292,-2.316,-2.3365,-2.3571,-2.3828,-2.4196,-2.441,-2.4556,-2.4718,-2.4821,-2.4821,-2.4821,-2.4821,-2.4821,-3.8359,-3.8359,-3.8391,-3.8391,-3.8391,-3.8391,-3.8391,-3.8391,-3.8391,-3.8294,-3.818,-3.8164,-3.7992,-3.7775,-3.77,-3.7599,-3.7539,-3.7539,-3.748,-3.748,-3.748,-3.748,-3.748,-3.748,-3.7405,-3.7405,-3.721,-3.6507,-3.5737,-3.5073,-3.4288,-3.3646,-3.3297,-3.3241,-3.3086,-3.2931,-3.2775,-3.2704,-3.2632,-3.2489,-3.2431,-3.2345,-3.23,-3.2241,-3.2169,-3.2169,-3.2169,-3.2169,-3.2169,-3.2169,-3.2169,-3.2169,-3.179,-3.1022,-3.0317,-2.9394,-2.8155,-2.7545,-2.7219,-2.7231,-2.7231,-2.7231,-2.7231,-2.7231,-2.7231,-2.7231,-2.7231,-2.7231,-2.7231,-2.7231,-2.7231,-2.7231,-2.7161,-2.7401,-2.7595,-2.7695,-2.7663,-2.7798,-2.7917,-2.7723,-2.7357,-2.6641,-2.5865,-2.5043,-2.4422,-2.4282,-2.4005,-2.3447,-2.3055,-2.2653,-2.2653,-2.2653,-2.2653,-2.2653,-2.2653,-2.2653,-2.2653,-2.2653,-2.2653,-2.2705,-2.2603,-2.2629,-2.2835,-2.3023,-2.3109,-2.3391,-2.3888,-2.4179,-2.4342,-2.4496,-2.4633,-2.4778,-2.4761,-2.4812,-2.4821,-3.763,-3.7679,-3.8181,-3.8391,-3.8391,-3.8391,-3.8391,-3.8391,-3.8391,-3.8408,-3.8335,-3.8107,-3.7934,-3.7817,-3.7658,-3.7539,-3.7539,-3.748,-3.748,-3.748,-3.748,-3.748,-3.748,-3.748,-3.7405,-3.7329,-3.7194,-3.6831,-3.5849,-3.5124,-3.4543,-3.3879,-3.3563,-3.3382,-3.3312,-3.3157,-3.3016,-3.2931,-3.2846,-3.2632,-3.2489,-3.2417,-3.23,-3.2241,-3.2169,-3.2169,-3.2169,-3.2169,-3.2169,-3.2169,-3.2169,-3.2169,-3.2096,-3.179,-3.1246,-2.9704,-2.8554,-2.7569,-2.7313,-2.7231,-2.7231,-2.7231,-2.7231,-2.7231,-2.7231,-2.7231,-2.7231,-2.7231,-2.7231,-2.7231,-2.7231,-2.7231,-2.7231,-2.7346,-2.7495,-2.7458,-2.7512,-2.7622,-2.7736,-2.7386,-2.7031,-2.6697,-2.593,-2.5411,-2.489,-2.491,-2.4638,-2.4085,-2.3529,-2.312,-2.2653,-2.2653,-2.2653,-2.2653,-2.2653,-2.2653,-2.2653,-2.2653,-2.2653,-2.2653,-2.267,-2.2696,-2.2621,-2.2723,-2.2886,-2.3246,-2.3699,-2.3888,-2.3965,-2.4205,-2.4376,-2.4564,-2.4718,-2.477,-2.4812,-3.694,-3.7005,-3.7388,-3.7711,-3.7954,-3.797,-3.8116,-3.8343,-3.8391,-3.8391,-3.8391,-3.8221,-3.8049,-3.8008,-3.7833,-3.7658,-3.7599,-3.7539,-3.748,-3.748,-3.748,-3.748,-3.748,-3.748,-3.7464,-3.7329,-3.721,-3.7029,-3.6117,-3.527,-3.461,-3.4476,-3.3894,-3.3701,-3.3577,-3.3452,-3.3241,-3.3086,-3.3016,-3.2789,-3.2632,-3.2489,-3.2372,-3.2241,-3.2169,-3.2169,-3.2169,-3.2169,-3.2169,-3.2169,-3.2169,-3.2169,-3.2023,-3.179,-3.0934,-2.9394,-2.8566,-2.7719,-2.7313,-2.7231,-2.7231,-2.7231,-2.7231,-2.7231,-2.7231,-2.7231,-2.7231,-2.7231,-2.7231,-2.7231,-2.7231,-2.7231,-2.7231,-2.7242,-2.7242,-2.7242,-2.738,-2.7518,-2.7311,-2.6981,-2.668,-2.6453,-2.6051,-2.5543,-2.5282,-2.5218,-2.4941,-2.445,-2.4017,-2.3737,-2.3103,-2.2644,-2.2644,-2.2653,-2.2653,-2.2653,-2.2653,-2.2653,-2.2653,-2.2653,-2.2653,-2.2662,-2.2687,-2.2638,-2.2723,-2.3066,-2.3391,-2.3451,-2.3545,-2.3811,-2.405,-2.4205,-2.4444,-2.4718,-2.4761,-3.6316,-3.6332,-3.634,-3.6724,-3.7209,-3.7339,-3.7728,-3.8294,-3.8359,-3.8391,-3.8408,-3.8351,-3.8221,-3.7992,-3.7817,-3.7716,-3.7599,-3.7539,-3.748,-3.748,-3.748,-3.748,-3.748,-3.748,-3.748,-3.748,-3.7405,-3.715,-3.6646,-3.5864,-3.527,-3.5124,-3.4409,-3.4013,-3.3733,-3.3465,-3.3241,-3.3003,-3.3073,-3.3016,-3.2775,-3.2632,-3.2574,-3.2314,-3.2241,-3.2169,-3.2169,-3.2169,-3.2169,-3.2169,-3.2169,-3.2169,-3.1863,-3.1259,-3.0177,-2.9328,-2.8645,-2.8018,-2.7545,-2.7301,-2.7231,-2.7231,-2.7231,-2.7231,-2.7231,-2.7231,-2.7231,-2.7231,-2.7231,-2.7231,-2.7231,-2.7231,-2.7231,-2.7231,-2.7231,-2.7231,-2.7288,-2.7298,-2.7156,-2.6903,-2.669,-2.6357,-2.6032,-2.5622,-2.5552,-2.5472,-2.5289,-2.483,-2.426,-2.4022,-2.3538,-2.2841,-2.2636,-2.2644,-2.2653,-2.2653,-2.2653,-2.2653,-2.2653,-2.2653,-2.2653,-2.2653,-2.2653,-2.2696,-2.2655,-2.2758,-2.2972,-2.3049,-2.3203,-2.3485,-2.3699,-2.3828,-2.4093,-2.441,-2.4693,-3.548,-3.5545,-3.606,-3.6416,-3.6627,-3.7112,-3.7388,-3.7647,-3.8181,-3.8319,-3.8221,-3.8091,-3.7992,-3.7892,-3.7716,-3.7599,-3.7599,-3.7524,-3.7539,-3.748,-3.748,-3.748,-3.748,-3.748,-3.748,-3.748,-3.748,-3.7345,-3.6952,-3.6445,-3.5991,-3.58,-3.4978,-3.4249,-3.3767,-3.3431,-3.3142,-3.2792,-3.2961,-3.3045,-3.2904,-3.2747,-3.2561,-3.2359,-3.23,-3.2241,-3.2241,-3.2241,-3.2169,-3.2169,-3.2169,-3.2109,-3.1977,-3.1136,-3.0508,-2.9883,-2.904,-2.8407,-2.7938,-2.7545,-2.7301,-2.7231,-2.7231,-2.7231,-2.7231,-2.7231,-2.7231,-2.7231,-2.7231,-2.7231,-2.7231,-2.7231,-2.7231,-2.7231,-2.7231,-2.7231,-2.7231,-2.7149,-2.7056,-2.6866,-2.6601,-2.6356,-2.6031,-2.5862,-2.5791,-2.5878,-2.5962,-2.5503,-2.4409,-2.389,-2.3786,-2.3171,-2.2767,-2.2627,-2.2644,-2.2653,-2.2653,-2.2653,-2.2653,-2.2653,-2.2653,-2.2653,-2.2653,-2.2653,-2.2696,-2.2689,-2.2706,-2.2773,-2.2869,-2.316,-2.3306,-2.3408,-2.3614,-2.3905,-2.4316,-3.4903,-3.4917,-3.5188,-3.5509,-3.5833,-3.6222,-3.6562,-3.6967,-3.7614,-3.781,-3.7762,-3.7889,-3.7934,-3.7775,-3.7658,-3.7599,-3.7539,-3.7524,-3.7539,-3.748,-3.748,-3.748,-3.748,-3.748,-3.748,-3.748,-3.748,-3.7405,-3.7207,-3.6937,-3.6616,-3.6368,-3.5424,-3.461,-3.4046,-3.36,-3.297,-3.2469,-3.2806,-3.2877,-3.2807,-3.2764,-3.2747,-3.2561,-3.2431,-3.2372,-3.23,-3.23,-3.2228,-3.2241,-3.2169,-3.2109,-3.189,-3.1447,-3.0823,-3.0266,-2.9561,-2.8882,-2.8303,-2.7799,-2.7383,-2.729,-2.7196,-2.7185,-2.7231,-2.7231,-2.7231,-2.7231,-2.7231,-2.7231,-2.7231,-2.7231,-2.7231,-2.7231,-2.7231,-2.7231,-2.7149,-2.7056,-2.6974,-2.6903,-2.6617,-2.6223,-2.5869,-2.5551,-2.5508,-2.5259,-2.5497,-2.5581,-2.4636,-2.3629,-2.3542,-2.3304,-2.2681,-2.2515,-2.2644,-2.2653,-2.2653,-2.2653,-2.261,-2.2644,-2.2644,-2.2644,-2.2653,-2.2653,-2.2653,-2.267,-2.267,-2.2653,-2.267,-2.2809,-2.2912,-2.2972,-2.3203,-2.3434,-2.3776,-3.453,-3.4448,-3.4233,-3.4457,-3.5024,-3.5185,-3.5574,-3.6206,-3.6886,-3.7067,-3.7069,-3.7697,-3.7905,-3.786,-3.7775,-3.77,-3.7642,-3.7524,-3.748,-3.748,-3.748,-3.748,-3.748,-3.748,-3.748,-3.748,-3.748,-3.7338,-3.7152,-3.6927,-3.6761,-3.6763,-3.6076,-3.5232,-3.4584,-3.3732,-3.2777,-3.2396,-3.2483,-3.2609,-3.2709,-3.2849,-3.2834,-3.2761,-3.269,-3.2561,-3.2489,-3.2345,-3.2286,-3.2155,-3.2082,-3.1829,-3.1602,-3.1196,-3.0682,-3.0108,-2.9542,-2.8907,-2.8348,-2.7842,-2.7493,-2.7255,-2.7117,-2.7082,-2.707,-2.7139,-2.7139,-2.7231,-2.7231,-2.7231,-2.7231,-2.7231,-2.7231,-2.7231,-2.7231,-2.7231,-2.7149,-2.7056,-2.6974,-2.6891,-2.6561,-2.6229,-2.5895,-2.5559,-2.5221,-2.4956,-2.4869,-2.4819,-2.4568,-2.3631,-2.2971,-2.272,-2.2136,-2.2212,-2.2438,-2.2429,-2.2244,-2.2372,-2.2329,-2.2441,-2.2636,-2.2644,-2.2653,-2.2653,-2.2653,-2.2636,-2.2644,-2.2653,-2.2679,-2.2595,-2.2663,-2.2766,-2.2869,-2.3083,-2.3254,-3.4448,-3.4366,-3.43,-3.4298,-3.4392,-3.4926,-3.5266,-3.5493,-3.6157,-3.6373,-3.641,-3.6878,-3.7342,-3.7743,-3.7599,-3.7539,-3.7539,-3.748,-3.748,-3.748,-3.748,-3.748,-3.7433,-3.7338,-3.7449,-3.7338,-3.718,-3.7085,-3.6722,-3.6537,-3.6227,-3.5734,-3.4561,-3.3756,-3.3013,-3.2498,-3.2316,-3.2044,-3.237,-3.2707,-3.2807,-3.2933,-3.2932,-3.2846,-3.2632,-3.2489,-3.2417,-3.23,-3.2241,-3.2096,-3.1882,-3.1481,-3.1023,-3.0718,-3.0197,-2.9796,-2.9254,-2.8785,-2.83,-2.7605,-2.7168,-2.6757,-2.6604,-2.6462,-2.6565,-2.6783,-2.6898,-2.7208,-2.7231,-2.7231,-2.7231,-2.7231,-2.7231,-2.7231,-2.7231,-2.7231,-2.7149,-2.7056,-2.6974,-2.6891,-2.6727,-2.6396,-2.6063,-2.5728,-2.5559,-2.5211,-2.4946,-2.4867,-2.4283,-2.3457,-2.2636,-2.2172,-2.1822,-2.1787,-2.1936,-2.1816,-2.1773,-2.1953,-2.2115,-2.2158,-2.2287,-2.2627,-2.2644,-2.2441,-2.2475,-2.2501,-2.2518,-2.2653,-2.2653,-2.267,-2.2662,-2.2713,-2.2672,-2.2758,-2.2937]},{"header":{"parameterUnit":"m.s-1","parameterCategory":1,"la1":31.0,"la2":29.5877,"lo1":-88.7671,"lo2":-86.6584,"dy":0.0162,"dx":0.0185,"nx":115,"ny":88,"refTime":"2023-04-28T18:00:00:Z","depth":0,"parameterNumber":3,"parameterNumberName":"V-component_of_WINDS"},"data":[0.0,0.0,0.0,0.0,0.0,0.0,0.0,0.0,0.0,0.0,0.0,0.0,0.0,0.0,0.0,0.0,0.0,0.0,0.0,0.0,0.0,0.0,0.0,0.0,0.0,0.0,0.0,0.0,0.0,0.0,0.0,0.0,0.0,0.0,0.0,0.0,0.0,0.0,0.0,0.0,0.0,0.0,0.0,0.0,0.0,0.0,0.0,0.0,0.0,0.0,0.0,0.0,0.0,0.0,0.0,0.0,0.0,0.0,0.0,0.0,0.0,0.0,0.0,0.0,0.0,0.0,0.0,0.0,0.0,0.0,0.0,0.0,0.0,0.0,0.0,0.0,0.0,0.0,0.0,0.0,0.0,0.0,0.0,0.0,0.0,0.0,0.0,0.0,0.0,0.0,0.0,0.0,0.0,0.0,0.0,0.0,0.0,0.0,0.0,0.0,0.0,0.0,0.0,0.0,0.0,0.0,0.0,0.0,0.0,0.0,0.0,0.0,0.0,0.0,0.0,0.0,0.0,0.0,0.0,0.0,0.0,0.0,0.0,0.0,0.0,0.0,0.0,0.0,0.0,0.0,0.0,0.0,0.0,0.0,0.0,0.0,0.0,0.0,0.0,0.0,0.0,0.0,0.0,0.0,0.0,0.0,0.0,0.0,0.0,0.0,0.0,0.0,0.0,0.0,0.0,0.0,0.0,0.0,0.0,0.0,0.0,0.0,0.0,0.0,0.0,0.0,0.0,0.0,0.0,0.0,0.0,0.0,0.0,0.0,0.0,0.0,0.0,0.0,0.0,0.0,0.0,0.0,0.0,0.0,0.0,0.0,0.0,0.0,0.0,0.0,0.0,0.0,0.0,0.0,0.0,0.0,0.0,0.0,0.0,0.0,0.0,0.0,0.0,0.0,0.0,0.0,0.0,0.0,0.0,0.0,0.0,0.0,0.0,0.0,0.0,0.0,0.0,0.0,0.0,0.0,0.0,0.0,0.0,0.0,0.0,0.0,0.0,0.0,0.0,0.0,0.0,0.0,0.0,0.0,0.0,0.0,0.0,0.0,0.0,0.0,0.0,0.0,0.0,0.0,0.0,0.0,0.0,0.0,0.0,0.0,0.0,0.0,0.0,0.0,0.0,0.0,0.0,0.0,0.0,0.0,0.0,0.0,0.0,0.0,0.0,0.0,0.0,0.0,0.0,0.0,0.0,0.0,0.0,0.0,0.0,0.0,0.0,0.0,0.0,0.0,0.0,0.0,0.0,0.0,0.0,0.0,0.0,0.0,0.0,0.0,0.0,0.0,0.0,0.0,0.0,0.0,0.0,0.0,0.0,0.0,0.0,0.0,0.0,0.0,0.0,0.0,0.0,0.0,0.0,0.0,0.0,0.0,0.0,0.0,0.0,0.0,0.0,0.0,0.0,0.0,0.0,0.0,0.0,0.0,0.0,0.0,0.0,0.0,0.0,0.0,0.0,0.0,0.0,0.0,0.0,0.0,0.0,0.0,0.0,0.0,0.0,0.0,0.0,0.0,0.0,0.0,0.0,0.0,0.0,0.0,0.0,0.0,0.0,0.0,0.0,0.0,0.0,0.0,0.0,0.0,0.0,0.0,0.0,0.0,0.0,0.0,0.0,0.0,0.0,0.0,0.0,0.0,0.0,0.0,0.0,0.0,0.0,0.0,0.0,0.0,0.0,0.0,0.0,0.0,0.0,0.0,0.0,0.0,0.0,0.0,0.0,0.0,0.0,0.0,0.0,0.0,0.0,0.0,0.0,0.0,0.0,0.0,0.0,0.0,0.0,0.0,0.0,0.0,0.0,0.0,0.0,0.0,0.0,0.0,0.0,0.0,0.0,0.0,0.0,0.0,0.0,0.0,0.0,0.0,0.0,0.0,0.0,0.0,0.0,0.0,0.0,0.0,0.0,0.0,0.0,0.0,0.0,0.0,0.0,0.0,0.0,0.0,0.0,0.0,0.0,0.0,0.0,0.0,0.0,0.0,0.0,0.0,0.0,0.0,0.0,0.0,0.0,0.0,0.0,0.0,0.0,0.0,0.0,0.0,0.0,0.0,0.0,0.0,0.0,0.0,0.0,0.0,0.0,0.0,0.0,0.0,0.0,0.0,0.0,0.0,0.0,0.0,0.0,0.0,0.0,0.0,0.0,0.0,0.0,0.0,0.0,0.0,0.0,0.0,0.0,0.0,0.0,0.0,0.0,0.0,0.0,0.0,0.0,0.0,0.0,0.0,0.0,0.0,0.0,0.0,0.0,0.0,0.0,0.0,0.0,0.0,0.0,0.0,0.0,0.0,0.0,0.0,0.0,0.0,0.0,0.0,0.0,0.0,0.0,0.0,0.0,0.0,0.0,0.0,0.0,0.0,0.0,0.0,0.0,0.0,0.0,0.0,0.0,0.0,0.0,0.0,0.0,0.0,0.0,0.0,0.0,0.0,0.0,0.0,0.0,0.0,0.0,0.0,0.0,0.0,0.0,0.0,0.0,0.0,0.0,0.0,0.0,0.0,0.0,0.0,0.0,0.0,0.0,0.0,0.0,0.0,0.0,0.0,0.0,0.0,0.0,0.0,0.0,0.0,0.0,0.0,0.0,0.0,0.0,0.0,0.0,0.0,0.0,0.0,0.0,0.0,0.0,0.0,0.0,0.0,0.0,0.0,0.0,0.0,0.0,0.0,0.0,0.0,0.0,0.0,0.0,0.0,0.0,0.0,0.0,0.0,0.0,0.0,0.0,0.0,0.0,0.0,0.0,0.0,0.0,0.0,0.0,0.0,0.0,0.0,0.0,0.0,0.0,0.0,0.0,0.0,0.0,0.0,0.0,0.0,0.0,0.0,0.0,0.0,0.0,0.0,0.0,0.0,0.0,0.0,0.0,0.0,0.0,0.0,0.0,0.0,0.0,0.0,0.0,0.0,0.0,0.0,0.0,0.0,0.0,0.0,0.0,0.0,0.0,0.0,0.0,0.0,0.0,0.0,0.0,0.0,0.0,0.0,0.0,0.0,0.0,0.0,0.0,0.0,0.0,0.0,0.0,0.0,0.0,0.0,0.0,0.0,0.0,0.0,0.0,0.0,0.0,0.0,0.0,0.0,0.0,0.0,0.0,0.0,0.0,0.0,0.0,0.0,0.0,0.0,0.0,0.0,0.0,0.0,0.0,0.0,0.0,0.0,0.0,0.0,0.0,0.0,0.0,0.0,0.0,0.0,0.0,0.0,0.0,0.0,0.0,0.0,0.0,0.0,0.0,0.0,0.0,0.0,0.0,0.0,0.0,0.0,0.0,0.0,0.0,0.0,0.0,0.0,0.0,0.0,0.0,0.0,0.0,0.0,0.0,0.0,0.0,0.0,0.0,0.0,0.0,0.0,0.0,0.0,0.0,0.0,0.0,0.0,0.0,0.0,0.0,0.0,0.0,0.0,0.0,0.0,0.0,0.0,0.0,0.0,0.0,0.0,0.0,0.0,0.0,0.0,0.0,0.0,0.0,0.0,0.0,0.0,0.0,0.0,0.0,0.0,0.0,0.0,0.0,0.0,0.0,0.0,0.0,0.0,0.0,0.0,0.0,0.0,0.0,0.0,0.0,0.0,0.0,0.0,0.0,0.0,0.0,0.0,0.0,0.0,0.0,0.0,0.0,0.0,0.0,0.0,0.0,0.0,0.0,0.0,0.0,0.0,0.0,0.0,0.0,0.0,0.0,0.0,0.0,0.0,0.0,0.0,0.0,0.0,0.0,0.0,0.0,0.0,0.0,0.0,0.0,0.0,0.0,0.0,0.0,0.0,0.0,0.0,0.0,0.0,0.0,0.0,0.0,0.0,0.0,0.0,0.0,0.0,0.0,0.0,0.0,0.0,0.0,0.0,0.0,0.0,0.0,0.0,0.0,0.0,0.0,0.0,0.0,0.0,0.0,0.0,0.0,0.0,0.0,0.0,0.0,0.0,0.0,0.0,0.0,0.0,0.0,0.0,0.0,0.0,0.0,0.0,0.0,0.0,0.0,0.0,0.0,0.0,0.0,0.0,0.0,0.0,0.0,0.0,0.0,0.0,0.0,0.0,0.0,0.0,0.0,0.0,0.0,0.0,0.0,0.0,0.0,0.0,0.0,0.0,0.0,0.0,0.0,0.0,0.0,0.0,0.0,0.0,0.0,0.0,0.0,0.0,0.0,0.0,0.0,0.0,0.0,0.0,0.0,0.0,0.0,0.0,0.0,0.0,0.0,0.0,0.0,0.0,0.0,0.0,0.0,0.0,0.0,0.0,0.0,0.0,-3.0791,0.0,0.0,0.0,0.0,0.0,0.0,0.0,0.0,0.0,0.0,0.0,0.0,0.0,0.0,0.0,0.0,0.0,0.0,0.0,0.0,0.0,0.0,0.0,0.0,0.0,0.0,0.0,0.0,0.0,0.0,0.0,0.0,0.0,0.0,0.0,0.0,0.0,0.0,0.0,0.0,0.0,0.0,0.0,0.0,0.0,0.0,0.0,0.0,0.0,0.0,0.0,0.0,0.0,0.0,0.0,0.0,0.0,0.0,0.0,0.0,0.0,0.0,0.0,0.0,0.0,0.0,0.0,0.0,0.0,0.0,0.0,0.0,0.0,0.0,0.0,0.0,0.0,0.0,0.0,0.0,0.0,0.0,0.0,0.0,0.0,0.0,0.0,0.0,0.0,0.0,0.0,0.0,0.0,0.0,0.0,0.0,0.0,0.0,0.0,0.0,0.0,0.0,0.0,0.0,0.0,0.0,0.0,0.0,0.0,0.0,-3.0752,-3.0784,-3.0796,-3.08,-3.08,0.0,0.0,0.0,0.0,0.0,0.0,0.0,0.0,0.0,0.0,0.0,0.0,0.0,0.0,0.0,0.0,0.0,0.0,0.0,0.0,0.0,0.0,0.0,0.0,0.0,0.0,0.0,0.0,0.0,0.0,0.0,0.0,0.0,0.0,0.0,0.0,0.0,0.0,0.0,0.0,0.0,0.0,0.0,0.0,0.0,0.0,0.0,0.0,0.0,0.0,0.0,0.0,0.0,0.0,0.0,0.0,0.0,0.0,0.0,0.0,0.0,0.0,0.0,0.0,0.0,0.0,0.0,0.0,0.0,0.0,0.0,0.0,0.0,0.0,0.0,0.0,0.0,0.0,0.0,0.0,0.0,0.0,0.0,0.0,0.0,0.0,0.0,0.0,0.0,0.0,0.0,0.0,0.0,0.0,0.0,0.0,0.0,0.0,0.0,0.0,0.0,0.0,0.0,0.0,0.0,0.0,0.0,0.0,0.0,0.0,0.0,0.0,-3.0784,-3.078,-3.078,0.0,0.0,0.0,0.0,0.0,0.0,0.0,0.0,0.0,0.0,0.0,0.0,0.0,0.0,0.0,0.0,0.0,0.0,0.0,0.0,0.0,0.0,0.0,0.0,0.0,0.0,0.0,0.0,0.0,0.0,0.0,0.0,0.0,0.0,0.0,0.0,0.0,0.0,0.0,0.0,0.0,0.0,0.0,0.0,0.0,0.0,0.0,0.0,0.0,0.0,0.0,0.0,0.0,0.0,0.0,0.0,0.0,0.0,0.0,0.0,0.0,0.0,0.0,0.0,0.0,0.0,0.0,0.0,0.0,0.0,0.0,0.0,0.0,0.0,0.0,0.0,0.0,0.0,0.0,0.0,0.0,0.0,0.0,0.0,0.0,0.0,0.0,0.0,0.0,0.0,0.0,0.0,0.0,0.0,0.0,0.0,0.0,0.0,0.0,0.0,0.0,0.0,0.0,0.0,0.0,0.0,0.0,0.0,0.0,0.0,-3.0709,-3.0704,-3.0697,0.0,-3.0706,0.0,0.0,0.0,0.0,0.0,0.0,0.0,0.0,0.0,0.0,0.0,0.0,0.0,0.0,0.0,0.0,0.0,0.0,0.0,0.0,0.0,0.0,0.0,0.0,0.0,0.0,0.0,0.0,0.0,0.0,0.0,0.0,0.0,0.0,0.0,0.0,0.0,0.0,0.0,0.0,0.0,0.0,0.0,0.0,0.0,0.0,0.0,0.0,0.0,0.0,0.0,0.0,0.0,0.0,0.0,0.0,0.0,0.0,0.0,0.0,0.0,0.0,0.0,0.0,0.0,0.0,0.0,0.0,0.0,0.0,0.0,0.0,0.0,0.0,0.0,0.0,0.0,0.0,0.0,0.0,0.0,0.0,0.0,0.0,0.0,0.0,0.0,0.0,0.0,0.0,0.0,0.0,0.0,0.0,0.0,0.0,0.0,0.0,0.0,0.0,0.0,0.0,0.0,0.0,0.0,0.0,0.0,0.0,0.0,0.0,-3.0651,-3.0637,-3.0653,-3.0626,0.0,0.0,0.0,0.0,0.0,0.0,0.0,0.0,0.0,0.0,0.0,0.0,0.0,0.0,0.0,0.0,0.0,0.0,0.0,0.0,0.0,0.0,0.0,0.0,0.0,0.0,0.0,0.0,0.0,0.0,0.0,0.0,0.0,0.0,0.0,0.0,0.0,0.0,0.0,0.0,0.0,0.0,0.0,0.0,0.0,0.0,0.0,0.0,0.0,0.0,0.0,0.0,0.0,0.0,0.0,0.0,0.0,0.0,0.0,0.0,0.0,0.0,0.0,0.0,0.0,0.0,0.0,0.0,0.0,0.0,0.0,0.0,0.0,0.0,0.0,0.0,0.0,0.0,0.0,0.0,0.0,0.0,0.0,0.0,0.0,0.0,0.0,0.0,0.0,0.0,0.0,0.0,0.0,0.0,0.0,0.0,0.0,0.0,0.0,0.0,0.0,0.0,0.0,0.0,0.0,0.0,0.0,0.0,0.0,0.0,-3.05,-3.05,-3.0491,-3.052,-3.0501,-3.0424,0.0,0.0,0.0,0.0,0.0,0.0,0.0,0.0,0.0,0.0,0.0,0.0,0.0,0.0,0.0,0.0,0.0,0.0,0.0,0.0,0.0,0.0,0.0,0.0,0.0,0.0,0.0,0.0,0.0,0.0,0.0,0.0,0.0,0.0,0.0,0.0,0.0,0.0,0.0,0.0,0.0,0.0,0.0,0.0,0.0,0.0,0.0,0.0,0.0,0.0,0.0,0.0,0.0,0.0,0.0,0.0,0.0,0.0,0.0,0.0,0.0,0.0,0.0,0.0,0.0,0.0,0.0,0.0,0.0,0.0,0.0,0.0,0.0,0.0,0.0,0.0,0.0,0.0,0.0,0.0,0.0,0.0,0.0,0.0,0.0,0.0,0.0,0.0,0.0,0.0,0.0,0.0,0.0,0.0,0.0,0.0,0.0,0.0,0.0,0.0,0.0,0.0,0.0,0.0,0.0,0.0,0.0,0.0,-3.0321,-3.0314,-3.0273,-3.0222,-3.0273,-3.0273,0.0,0.0,0.0,0.0,0.0,0.0,0.0,0.0,0.0,0.0,0.0,0.0,0.0,0.0,0.0,0.0,0.0,0.0,0.0,0.0,0.0,0.0,0.0,0.0,0.0,0.0,0.0,0.0,0.0,0.0,0.0,0.0,0.0,0.0,0.0,0.0,0.0,0.0,0.0,0.0,0.0,0.0,0.0,0.0,0.0,0.0,0.0,0.0,0.0,0.0,0.0,0.0,0.0,0.0,0.0,0.0,0.0,0.0,0.0,0.0,0.0,0.0,0.0,0.0,0.0,0.0,0.0,0.0,0.0,0.0,0.0,0.0,0.0,0.0,0.0,0.0,0.0,0.0,0.0,0.0,0.0,0.0,0.0,0.0,0.0,0.0,0.0,0.0,0.0,0.0,0.0,0.0,0.0,0.0,0.0,0.0,0.0,0.0,0.0,0.0,0.0,0.0,0.0,0.0,0.0,0.0,0.0,0.0,0.0,-3.0117,-3.0089,-3.0099,-3.0079,-3.0104,-3.0085,0.0,0.0,0.0,0.0,0.0,0.0,0.0,0.0,0.0,0.0,0.0,0.0,0.0,0.0,0.0,0.0,0.0,0.0,0.0,0.0,0.0,0.0,0.0,0.0,0.0,0.0,0.0,0.0,0.0,0.0,0.0,0.0,0.0,0.0,0.0,0.0,0.0,0.0,0.0,0.0,0.0,0.0,0.0,0.0,0.0,0.0,0.0,0.0,0.0,0.0,0.0,0.0,0.0,0.0,0.0,0.0,0.0,0.0,0.0,0.0,0.0,0.0,0.0,0.0,0.0,0.0,0.0,0.0,0.0,0.0,0.0,0.0,0.0,0.0,0.0,0.0,0.0,0.0,0.0,0.0,0.0,0.0,0.0,0.0,0.0,0.0,0.0,0.0,0.0,0.0,0.0,0.0,0.0,0.0,0.0,0.0,0.0,0.0,0.0,0.0,0.0,0.0,0.0,0.0,0.0,0.0,0.0,0.0,0.0,-3.0629,0.0,-3.0614,-3.0617,-3.0633,-3.0614,0.0,0.0,0.0,0.0,0.0,0.0,0.0,0.0,0.0,0.0,0.0,0.0,0.0,0.0,0.0,0.0,0.0,0.0,0.0,0.0,0.0,0.0,0.0,0.0,0.0,0.0,0.0,0.0,0.0,0.0,0.0,0.0,0.0,0.0,0.0,0.0,0.0,0.0,0.0,0.0,0.0,0.0,0.0,0.0,0.0,0.0,0.0,0.0,0.0,0.0,0.0,0.0,0.0,0.0,0.0,0.0,0.0,0.0,0.0,0.0,0.0,0.0,0.0,0.0,0.0,0.0,0.0,0.0,0.0,0.0,0.0,0.0,0.0,0.0,0.0,0.0,0.0,0.0,0.0,0.0,0.0,0.0,0.0,0.0,0.0,0.0,0.0,0.0,0.0,0.0,0.0,0.0,0.0,0.0,0.0,0.0,0.0,0.0,0.0,0.0,0.0,0.0,0.0,0.0,0.0,0.0,0.0,0.0,-3.1336,-3.1927,-3.1883,-3.1784,-3.1877,-3.1821,-3.184,0.0,0.0,0.0,0.0,0.0,0.0,0.0,0.0,0.0,0.0,0.0,0.0,0.0,0.0,0.0,0.0,0.0,0.0,0.0,0.0,0.0,0.0,0.0,0.0,0.0,0.0,0.0,0.0,0.0,0.0,0.0,0.0,0.0,0.0,0.0,0.0,0.0,0.0,0.0,0.0,0.0,0.0,0.0,0.0,0.0,0.0,0.0,0.0,0.0,0.0,0.0,0.0,0.0,0.0,0.0,0.0,0.0,0.0,0.0,0.0,0.0,0.0,0.0,0.0,0.0,0.0,0.0,0.0,0.0,0.0,0.0,0.0,0.0,0.0,0.0,0.0,0.0,0.0,0.0,0.0,0.0,0.0,0.0,0.0,0.0,0.0,0.0,0.0,0.0,0.0,0.0,0.0,0.0,0.0,0.0,0.0,0.0,0.0,0.0,0.0,0.0,0.0,0.0,0.0,0.0,0.0,0.0,0.0,0.0,-3.1672,-3.1565,-3.1542,-3.1542,-3.156,-3.1584,0.0,0.0,0.0,0.0,0.0,0.0,0.0,0.0,0.0,0.0,0.0,0.0,0.0,0.0,0.0,0.0,0.0,0.0,0.0,0.0,0.0,0.0,0.0,0.0,0.0,0.0,0.0,0.0,0.0,0.0,0.0,0.0,0.0,0.0,0.0,0.0,0.0,0.0,0.0,0.0,0.0,0.0,0.0,0.0,0.0,0.0,0.0,0.0,0.0,0.0,0.0,0.0,0.0,0.0,0.0,0.0,0.0,0.0,0.0,0.0,0.0,0.0,0.0,0.0,0.0,0.0,0.0,0.0,0.0,0.0,0.0,0.0,0.0,0.0,0.0,0.0,0.0,0.0,0.0,0.0,0.0,0.0,0.0,0.0,0.0,0.0,0.0,0.0,0.0,0.0,0.0,0.0,0.0,0.0,0.0,0.0,0.0,0.0,0.0,0.0,0.0,0.0,0.0,0.0,0.0,0.0,0.0,0.0,0.0,-3.2502,-3.2447,-3.242,-3.2392,-3.242,-3.2302,-3.2135,0.0,0.0,0.0,0.0,0.0,0.0,0.0,0.0,0.0,0.0,0.0,0.0,0.0,0.0,0.0,0.0,0.0,0.0,0.0,0.0,0.0,0.0,0.0,0.0,0.0,0.0,0.0,0.0,0.0,0.0,0.0,0.0,0.0,0.0,0.0,0.0,0.0,0.0,0.0,0.0,0.0,0.0,0.0,0.0,0.0,0.0,0.0,0.0,0.0,0.0,0.0,0.0,0.0,0.0,0.0,0.0,0.0,0.0,0.0,0.0,0.0,0.0,0.0,0.0,0.0,0.0,0.0,0.0,0.0,0.0,0.0,0.0,0.0,0.0,0.0,0.0,0.0,0.0,0.0,0.0,0.0,0.0,0.0,0.0,0.0,0.0,0.0,0.0,0.0,0.0,0.0,0.0,0.0,0.0,0.0,0.0,0.0,0.0,0.0,0.0,0.0,0.0,0.0,0.0,0.0,0.0,0.0,0.0,-3.4013,-3.4181,-3.416,-3.402,-3.402,-3.3795,0.0,0.0,0.0,0.0,0.0,0.0,0.0,0.0,0.0,0.0,0.0,0.0,0.0,0.0,0.0,0.0,0.0,0.0,0.0,0.0,0.0,0.0,0.0,0.0,0.0,0.0,0.0,0.0,0.0,0.0,0.0,0.0,0.0,0.0,0.0,0.0,0.0,0.0,0.0,0.0,0.0,0.0,0.0,0.0,0.0,0.0,0.0,0.0,0.0,0.0,0.0,0.0,0.0,0.0,0.0,0.0,0.0,0.0,0.0,0.0,0.0,0.0,0.0,0.0,0.0,0.0,0.0,0.0,0.0,0.0,0.0,0.0,0.0,0.0,0.0,0.0,0.0,0.0,0.0,0.0,0.0,0.0,0.0,0.0,0.0,0.0,0.0,0.0,0.0,0.0,0.0,0.0,0.0,0.0,0.0,0.0,0.0,0.0,0.0,0.0,0.0,0.0,0.0,0.0,0.0,0.0,0.0,0.0,0.0,-3.4193,-3.4806,-3.467,-3.3706,-3.3687,-3.3419,0.0,0.0,0.0,0.0,0.0,0.0,0.0,0.0,0.0,0.0,0.0,0.0,0.0,0.0,0.0,0.0,0.0,0.0,0.0,0.0,0.0,0.0,0.0,0.0,0.0,0.0,0.0,0.0,0.0,0.0,0.0,0.0,0.0,0.0,0.0,0.0,0.0,0.0,0.0,0.0,0.0,0.0,0.0,0.0,0.0,0.0,0.0,0.0,0.0,0.0,0.0,0.0,0.0,0.0,0.0,0.0,0.0,0.0,0.0,0.0,0.0,0.0,0.0,0.0,0.0,0.0,0.0,0.0,0.0,0.0,0.0,0.0,0.0,0.0,0.0,0.0,0.0,0.0,0.0,0.0,0.0,0.0,0.0,0.0,0.0,0.0,0.0,0.0,0.0,0.0,0.0,0.0,0.0,0.0,0.0,0.0,0.0,0.0,0.0,0.0,0.0,0.0,0.0,0.0,0.0,0.0,0.0,0.0,-3.4288,-3.4185,-3.5232,-3.5192,-3.3965,-3.3885,-3.3528,0.0,0.0,0.0,0.0,0.0,0.0,0.0,0.0,0.0,0.0,0.0,0.0,0.0,0.0,0.0,0.0,0.0,0.0,0.0,0.0,0.0,0.0,0.0,0.0,0.0,0.0,0.0,0.0,0.0,0.0,0.0,0.0,0.0,0.0,0.0,0.0,0.0,0.0,0.0,0.0,0.0,0.0,0.0,0.0,0.0,0.0,0.0,0.0,0.0,0.0,0.0,0.0,0.0,0.0,0.0,0.0,0.0,0.0,0.0,0.0,0.0,0.0,0.0,0.0,0.0,0.0,0.0,0.0,0.0,0.0,0.0,0.0,0.0,0.0,0.0,0.0,0.0,0.0,0.0,0.0,0.0,0.0,0.0,0.0,0.0,0.0,0.0,0.0,0.0,0.0,0.0,0.0,0.0,0.0,0.0,0.0,0.0,0.0,0.0,0.0,0.0,0.0,0.0,0.0,0.0,0.0,0.0,0.0,-3.4504,-3.4185,-3.5393,-3.5608,-3.4563,-3.4271,-3.3873,0.0,0.0,0.0,0.0,0.0,0.0,0.0,0.0,0.0,0.0,0.0,0.0,0.0,0.0,0.0,0.0,0.0,0.0,0.0,0.0,0.0,0.0,0.0,0.0,0.0,0.0,0.0,0.0,0.0,0.0,0.0,0.0,0.0,0.0,0.0,0.0,0.0,0.0,0.0,0.0,0.0,0.0,0.0,0.0,0.0,0.0,0.0,0.0,0.0,0.0,0.0,0.0,0.0,0.0,0.0,0.0,0.0,0.0,0.0,0.0,0.0,0.0,0.0,0.0,0.0,0.0,0.0,0.0,0.0,0.0,0.0,0.0,0.0,0.0,0.0,0.0,0.0,0.0,0.0,0.0,0.0,0.0,0.0,0.0,0.0,0.0,0.0,0.0,0.0,0.0,0.0,0.0,0.0,0.0,0.0,0.0,0.0,0.0,0.0,0.0,0.0,0.0,0.0,0.0,0.0,0.0,0.0,0.0,-3.4323,-3.4491,-3.507,-3.5157,-3.4698,-3.4109,-3.3505,0.0,0.0,0.0,0.0,0.0,0.0,0.0,0.0,0.0,0.0,0.0,0.0,0.0,0.0,0.0,0.0,0.0,0.0,0.0,0.0,0.0,0.0,0.0,0.0,0.0,0.0,0.0,0.0,0.0,0.0,0.0,0.0,0.0,0.0,0.0,0.0,0.0,0.0,0.0,0.0,0.0,0.0,0.0,0.0,0.0,0.0,0.0,0.0,-3.4418,0.0,0.0,0.0,0.0,0.0,0.0,0.0,0.0,0.0,0.0,0.0,0.0,0.0,0.0,0.0,0.0,0.0,0.0,0.0,0.0,0.0,0.0,0.0,0.0,0.0,0.0,0.0,0.0,0.0,0.0,0.0,0.0,0.0,0.0,0.0,0.0,0.0,0.0,0.0,0.0,0.0,0.0,0.0,0.0,0.0,0.0,0.0,0.0,0.0,0.0,0.0,0.0,0.0,0.0,0.0,0.0,0.0,0.0,0.0,-3.4127,-3.4307,-3.4822,-3.4897,-3.4431,-3.3516,-3.3043,0.0,0.0,0.0,0.0,0.0,0.0,0.0,0.0,0.0,0.0,0.0,0.0,0.0,0.0,0.0,0.0,0.0,0.0,0.0,0.0,0.0,0.0,0.0,0.0,0.0,0.0,0.0,0.0,0.0,0.0,0.0,0.0,0.0,0.0,0.0,0.0,0.0,0.0,0.0,0.0,0.0,0.0,0.0,0.0,0.0,0.0,0.0,0.0,0.0,0.0,0.0,0.0,0.0,0.0,0.0,0.0,0.0,0.0,0.0,0.0,0.0,0.0,0.0,0.0,0.0,0.0,0.0,0.0,0.0,0.0,0.0,0.0,0.0,0.0,0.0,0.0,0.0,0.0,0.0,0.0,0.0,0.0,0.0,0.0,0.0,0.0,0.0,0.0,0.0,0.0,0.0,0.0,0.0,0.0,0.0,0.0,0.0,0.0,0.0,0.0,0.0,0.0,0.0,0.0,0.0,0.0,0.0,-3.3813,-3.3989,-3.4191,-3.4612,-3.461,-3.4084,-3.2788,-3.2438,-3.3084,0.0,0.0,0.0,0.0,0.0,0.0,0.0,0.0,0.0,0.0,0.0,0.0,0.0,0.0,0.0,0.0,0.0,0.0,0.0,0.0,0.0,0.0,0.0,0.0,0.0,0.0,0.0,0.0,0.0,0.0,0.0,0.0,0.0,0.0,0.0,0.0,0.0,0.0,-3.3247,-3.3363,0.0,0.0,0.0,0.0,0.0,0.0,0.0,0.0,-3.5834,0.0,0.0,0.0,0.0,0.0,0.0,0.0,0.0,0.0,0.0,0.0,0.0,0.0,0.0,0.0,0.0,0.0,0.0,0.0,0.0,0.0,0.0,0.0,0.0,0.0,0.0,0.0,0.0,0.0,0.0,0.0,0.0,0.0,0.0,0.0,0.0,0.0,0.0,0.0,0.0,0.0,0.0,0.0,0.0,0.0,0.0,0.0,0.0,0.0,0.0,0.0,0.0,0.0,0.0,0.0,0.0,-3.3994,-3.3733,-3.4049,-3.5057,-3.4431,-3.4101,-3.4052,-3.2235,-3.1566,-3.2266,0.0,0.0,0.0,0.0,0.0,0.0,0.0,0.0,0.0,0.0,0.0,0.0,0.0,0.0,0.0,0.0,0.0,0.0,0.0,0.0,0.0,0.0,0.0,0.0,0.0,0.0,0.0,0.0,0.0,0.0,0.0,0.0,0.0,0.0,0.0,0.0,0.0,0.0,0.0,-3.411,-3.4429,0.0,0.0,0.0,0.0,0.0,0.0,0.0,0.0,-3.7398,0.0,0.0,0.0,0.0,0.0,0.0,0.0,0.0,0.0,0.0,0.0,0.0,0.0,0.0,0.0,0.0,0.0,0.0,0.0,0.0,0.0,0.0,0.0,0.0,0.0,0.0,0.0,0.0,0.0,0.0,0.0,0.0,0.0,0.0,0.0,0.0,0.0,0.0,0.0,0.0,0.0,0.0,0.0,0.0,0.0,0.0,0.0,0.0,0.0,0.0,0.0,0.0,0.0,0.0,0.0,-3.4146,-3.412,-3.4297,-3.4688,-3.4267,-3.3797,-3.3282,-3.1832,-3.129,0.0,0.0,0.0,0.0,0.0,0.0,0.0,0.0,0.0,0.0,0.0,0.0,0.0,0.0,0.0,0.0,0.0,0.0,0.0,0.0,0.0,0.0,0.0,0.0,0.0,0.0,0.0,0.0,0.0,0.0,0.0,0.0,0.0,0.0,0.0,0.0,0.0,0.0,0.0,0.0,-3.4327,-3.4523,-3.5772,0.0,0.0,0.0,0.0,0.0,0.0,-3.7633,-3.7978,0.0,0.0,0.0,0.0,0.0,0.0,0.0,0.0,0.0,0.0,0.0,0.0,0.0,0.0,0.0,0.0,0.0,0.0,0.0,0.0,0.0,0.0,0.0,0.0,0.0,0.0,0.0,0.0,0.0,0.0,0.0,0.0,0.0,0.0,0.0,0.0,0.0,0.0,0.0,0.0,0.0,0.0,0.0,0.0,0.0,0.0,0.0,0.0,0.0,0.0,0.0,0.0,0.0,0.0,0.0,-3.4047,-3.427,-3.4255,-3.412,-3.3968,-3.3523,-3.2726,-3.1592,-3.1158,0.0,0.0,0.0,0.0,0.0,0.0,0.0,0.0,0.0,0.0,0.0,0.0,0.0,0.0,0.0,0.0,0.0,0.0,0.0,0.0,0.0,0.0,0.0,0.0,0.0,0.0,0.0,0.0,0.0,0.0,0.0,0.0,0.0,0.0,0.0,0.0,0.0,0.0,0.0,0.0,0.0,-3.4977,-3.6523,-3.6113,0.0,0.0,0.0,0.0,-3.7736,-3.8373,0.0,0.0,0.0,0.0,0.0,0.0,0.0,0.0,0.0,0.0,0.0,0.0,0.0,0.0,0.0,0.0,0.0,0.0,0.0,0.0,0.0,0.0,0.0,0.0,0.0,0.0,0.0,0.0,0.0,0.0,0.0,0.0,0.0,0.0,0.0,0.0,0.0,0.0,0.0,0.0,0.0,0.0,0.0,0.0,0.0,0.0,0.0,0.0,0.0,0.0,0.0,0.0,0.0,0.0,0.0,0.0,-3.3212,-3.3359,-3.3647,-3.3901,-3.3403,-3.3171,-3.3171,-3.1659,-3.1074,0.0,0.0,0.0,0.0,0.0,0.0,0.0,0.0,0.0,0.0,0.0,0.0,0.0,0.0,0.0,0.0,0.0,0.0,0.0,0.0,0.0,0.0,0.0,0.0,0.0,0.0,0.0,0.0,0.0,0.0,0.0,0.0,0.0,0.0,0.0,0.0,0.0,0.0,0.0,0.0,0.0,-3.6594,-3.8122,-3.8167,-3.809,0.0,0.0,-3.9224,-3.9264,-3.9858,0.0,0.0,0.0,0.0,0.0,0.0,0.0,0.0,0.0,0.0,0.0,0.0,0.0,0.0,0.0,0.0,0.0,0.0,0.0,0.0,0.0,0.0,0.0,0.0,0.0,0.0,0.0,0.0,0.0,0.0,0.0,0.0,0.0,0.0,0.0,0.0,0.0,0.0,0.0,0.0,0.0,0.0,0.0,0.0,0.0,0.0,0.0,0.0,0.0,0.0,0.0,0.0,0.0,0.0,0.0,-3.309,-3.3014,-3.3557,-3.3761,-3.3527,-3.3335,-3.3087,-3.278,-3.1488,-3.0939,0.0,0.0,0.0,0.0,0.0,0.0,0.0,0.0,0.0,0.0,0.0,0.0,0.0,0.0,0.0,0.0,0.0,0.0,0.0,0.0,0.0,0.0,0.0,0.0,0.0,0.0,0.0,0.0,0.0,0.0,0.0,0.0,0.0,0.0,0.0,0.0,0.0,0.0,0.0,0.0,0.0,0.0,-3.8284,-3.8329,0.0,0.0,0.0,-3.9405,-3.9388,0.0,0.0,0.0,0.0,0.0,0.0,0.0,0.0,0.0,0.0,0.0,0.0,0.0,0.0,0.0,0.0,0.0,0.0,0.0,0.0,0.0,0.0,0.0,0.0,0.0,0.0,0.0,0.0,0.0,0.0,0.0,0.0,0.0,0.0,0.0,0.0,0.0,0.0,0.0,0.0,0.0,0.0,0.0,0.0,0.0,0.0,0.0,0.0,0.0,0.0,0.0,0.0,0.0,0.0,0.0,0.0,0.0,-3.2735,-3.3535,-3.3678,-3.3161,-3.3124,-3.2926,-3.2422,-3.1486,0.0,0.0,0.0,0.0,0.0,0.0,0.0,0.0,0.0,0.0,0.0,0.0,0.0,0.0,0.0,0.0,0.0,0.0,0.0,0.0,0.0,0.0,0.0,0.0,0.0,0.0,0.0,-3.2958,0.0,0.0,0.0,0.0,0.0,0.0,0.0,0.0,0.0,0.0,0.0,0.0,0.0,0.0,-3.7803,-3.8461,-3.8626,-3.8918,0.0,0.0,-3.9603,-3.9603,-4.0278,-4.0609,0.0,0.0,0.0,0.0,0.0,0.0,0.0,0.0,0.0,0.0,0.0,0.0,0.0,0.0,0.0,0.0,0.0,0.0,0.0,0.0,0.0,0.0,0.0,0.0,0.0,0.0,0.0,0.0,0.0,0.0,0.0,0.0,0.0,0.0,0.0,0.0,0.0,0.0,0.0,0.0,0.0,0.0,0.0,0.0,0.0,0.0,0.0,0.0,0.0,0.0,0.0,0.0,0.0,0.0,0.0,-3.2289,-3.272,-3.2989,-3.2897,-3.2633,-3.2453,-3.2382,-3.1828,-3.1374,0.0,0.0,0.0,0.0,0.0,0.0,0.0,0.0,0.0,0.0,0.0,0.0,0.0,0.0,0.0,0.0,0.0,0.0,0.0,0.0,0.0,0.0,0.0,0.0,0.0,0.0,0.0,0.0,0.0,0.0,0.0,0.0,0.0,0.0,0.0,0.0,0.0,0.0,0.0,0.0,0.0,-3.8478,-3.9111,-3.9866,-4.034,0.0,0.0,-4.0393,-4.0411,-4.1025,-4.1253,-4.0559,0.0,0.0,0.0,0.0,0.0,0.0,0.0,0.0,0.0,0.0,0.0,0.0,0.0,0.0,0.0,0.0,0.0,0.0,0.0,0.0,0.0,0.0,0.0,0.0,0.0,0.0,0.0,0.0,0.0,0.0,0.0,0.0,0.0,0.0,0.0,0.0,0.0,0.0,0.0,0.0,0.0,0.0,0.0,0.0,0.0,0.0,0.0,0.0,0.0,0.0,0.0,0.0,0.0,-3.2099,-3.1805,-3.241,-3.2648,-3.2594,-3.2508,-3.2453,-3.2398,-3.1859,-3.1368,0.0,0.0,0.0,0.0,0.0,0.0,0.0,0.0,0.0,0.0,0.0,0.0,0.0,0.0,0.0,0.0,0.0,0.0,0.0,0.0,0.0,0.0,0.0,0.0,0.0,0.0,0.0,0.0,-3.3981,-3.3965,-3.3547,0.0,0.0,0.0,0.0,0.0,0.0,0.0,0.0,0.0,0.0,-3.9105,-3.9722,-4.0115,0.0,0.0,-4.0692,-4.0699,-4.1243,-4.156,-4.1648,-4.147,-4.151,0.0,0.0,0.0,0.0,0.0,0.0,0.0,0.0,0.0,0.0,0.0,0.0,0.0,0.0,0.0,0.0,0.0,0.0,0.0,0.0,0.0,0.0,0.0,0.0,0.0,0.0,0.0,0.0,0.0,0.0,0.0,0.0,0.0,0.0,0.0,0.0,0.0,0.0,0.0,0.0,0.0,0.0,0.0,0.0,0.0,0.0,0.0,0.0,0.0,0.0,0.0,0.0,-3.1757,-3.1518,-3.2238,-3.2594,-3.2468,-3.2508,-3.2523,-3.2382,-3.206,-3.1626,0.0,0.0,0.0,0.0,0.0,0.0,0.0,0.0,0.0,0.0,0.0,0.0,0.0,0.0,0.0,0.0,0.0,0.0,0.0,0.0,0.0,0.0,0.0,0.0,0.0,0.0,0.0,0.0,-3.4119,-3.4072,-3.3617,0.0,0.0,0.0,0.0,0.0,0.0,0.0,0.0,0.0,0.0,-3.9721,-4.0105,-4.0455,-4.0831,-4.1383,-4.1165,-4.1077,-4.1753,-4.1902,-4.1902,-4.2005,0.0,0.0,0.0,0.0,0.0,0.0,0.0,0.0,0.0,0.0,0.0,0.0,0.0,0.0,0.0,0.0,0.0,0.0,0.0,0.0,0.0,0.0,0.0,0.0,0.0,0.0,0.0,0.0,0.0,0.0,-2.9681,0.0,0.0,0.0,0.0,0.0,0.0,0.0,0.0,0.0,0.0,0.0,0.0,0.0,0.0,0.0,0.0,0.0,0.0,0.0,0.0,0.0,0.0,-3.1709,-3.1534,-3.2201,-3.2594,-3.2594,-3.2453,-3.2398,-3.2398,-3.2382,-3.2114,-3.161,0.0,0.0,0.0,0.0,0.0,0.0,0.0,0.0,0.0,0.0,0.0,0.0,0.0,0.0,0.0,0.0,0.0,0.0,0.0,0.0,0.0,0.0,0.0,0.0,0.0,0.0,-3.2599,-3.3213,-3.3706,0.0,0.0,0.0,0.0,0.0,0.0,0.0,0.0,0.0,0.0,-3.9421,-4.0272,-4.0324,-4.0919,-4.1436,-4.156,-4.1675,-4.1823,-4.1945,-4.2005,-4.2005,0.0,0.0,0.0,0.0,0.0,0.0,0.0,0.0,0.0,0.0,0.0,0.0,0.0,0.0,0.0,0.0,0.0,0.0,0.0,0.0,0.0,0.0,0.0,0.0,0.0,0.0,0.0,-2.9064,-2.9128,0.0,0.0,0.0,0.0,0.0,0.0,0.0,0.0,0.0,0.0,0.0,-2.9068,-2.9478,0.0,0.0,0.0,0.0,0.0,0.0,0.0,0.0,0.0,0.0,0.0,0.0,-3.1405,-3.1272,-3.208,-3.2468,-3.2453,-3.2382,-3.2398,-3.2398,-3.2398,-3.2183,-3.1731,0.0,0.0,0.0,0.0,0.0,0.0,0.0,0.0,0.0,0.0,0.0,0.0,0.0,0.0,0.0,0.0,0.0,0.0,0.0,0.0,0.0,0.0,0.0,0.0,0.0,-3.3388,0.0,0.0,0.0,0.0,0.0,0.0,0.0,0.0,0.0,0.0,0.0,-3.7694,-3.9421,-3.9623,-3.9991,-4.1051,-4.1446,-4.1648,0.0,0.0,0.0,0.0,0.0,0.0,0.0,0.0,0.0,0.0,0.0,0.0,0.0,0.0,-4.4766,-4.4395,-4.4759,-4.5109,-4.5197,0.0,0.0,0.0,0.0,0.0,0.0,0.0,0.0,0.0,0.0,0.0,0.0,0.0,0.0,-2.8749,0.0,-2.904,0.0,0.0,0.0,0.0,0.0,0.0,0.0,0.0,-2.8793,-2.8858,-2.9028,-2.9407,-2.9463,0.0,-2.984,-2.9817,0.0,0.0,0.0,0.0,0.0,0.0,0.0,0.0,-3.1257,-3.1139,-3.1973,-3.2453,-3.2398,-3.2398,-3.2398,-3.2398,-3.2398,-3.2292,-3.202,-3.1576,-3.1265,0.0,0.0,0.0,0.0,0.0,0.0,0.0,0.0,0.0,0.0,0.0,0.0,0.0,0.0,0.0,0.0,0.0,0.0,0.0,0.0,0.0,0.0,0.0,-3.3668,0.0,0.0,0.0,0.0,0.0,0.0,0.0,0.0,0.0,-3.7259,-3.7807,-3.8743,-4.0166,-4.021,-4.0524,-4.1569,0.0,0.0,0.0,0.0,0.0,0.0,0.0,-4.2614,-4.2715,-4.3625,-4.4303,-4.4353,-4.491,-4.536,-4.5472,0.0,0.0,-4.496,-4.5202,-4.5659,-4.6008,-4.6006,-4.6041,-4.6296,-4.6251,-4.6186,0.0,0.0,0.0,0.0,0.0,0.0,0.0,0.0,-2.8453,-2.8303,0.0,-2.8638,0.0,0.0,0.0,0.0,0.0,-2.871,0.0,0.0,-2.9175,-2.9199,-2.9109,-2.9154,-2.9213,-2.9303,-2.9071,-2.9046,-2.9233,-2.972,0.0,0.0,0.0,0.0,0.0,0.0,-3.1255,-3.1052,-3.2073,-3.2523,-3.2398,-3.2398,-3.2398,-3.2398,-3.2398,-3.2382,-3.2367,-3.1928,-3.1747,-3.1992,-3.123,0.0,0.0,0.0,0.0,0.0,0.0,0.0,0.0,0.0,0.0,0.0,0.0,0.0,0.0,0.0,0.0,0.0,0.0,0.0,0.0,-3.3491,0.0,0.0,0.0,0.0,0.0,0.0,0.0,0.0,0.0,0.0,-3.8017,-3.9308,-4.0358,-4.0428,0.0,0.0,0.0,0.0,-4.1771,-4.2115,-4.2157,-4.2252,-4.2335,-4.3054,-4.3554,-4.3536,0.0,0.0,-4.5909,-4.5927,-4.5998,-4.5939,-4.7214,-4.7617,-4.5838,-4.5617,-4.5896,-4.6585,-4.6785,-4.6966,-4.7542,-4.7651,-4.7497,-2.6599,0.0,0.0,0.0,0.0,-2.7526,-2.7717,-2.7977,-2.8112,-2.8194,-2.8217,-2.8726,0.0,0.0,0.0,0.0,0.0,0.0,-2.8751,-2.9044,-2.9023,-2.9157,-2.9459,-2.9811,-2.9811,-2.9567,-3.0089,-3.0236,-3.0017,-3.0308,-3.0201,-2.9681,0.0,0.0,0.0,0.0,-3.1259,-3.1607,-3.2183,-3.2453,-3.2398,-3.2398,-3.2398,-3.2398,-3.2398,-3.2453,-3.2523,-3.2392,-3.2298,-3.2266,-3.2155,0.0,0.0,0.0,0.0,0.0,0.0,0.0,0.0,0.0,0.0,0.0,0.0,0.0,0.0,0.0,0.0,0.0,0.0,0.0,-3.4156,-3.4603,-3.4938,0.0,0.0,0.0,0.0,0.0,0.0,0.0,0.0,0.0,-3.9608,-3.9133,-3.9493,0.0,0.0,-4.1416,-4.2092,-4.2576,-4.2802,-4.281,-4.3306,0.0,0.0,-4.3917,-4.4209,-4.4209,-4.5597,-4.7015,-4.8122,-4.8318,-4.83,-4.8286,-4.8668,-4.8793,-4.8314,-4.8146,-4.8263,-4.8478,-4.8532,-4.8586,-4.8801,-4.878,-4.8637,-2.6596,-2.6654,-2.6775,-2.6904,-2.7033,-2.7169,-2.7399,-2.7712,-2.7967,-2.8097,-2.8126,-2.8641,-2.8641,-2.8125,-2.8411,0.0,0.0,0.0,-2.894,-2.9284,-2.9223,-2.9313,-2.9588,-2.9913,-2.9913,-2.9602,-3.019,-3.0312,-3.0021,-3.009,-2.9993,-2.9742,0.0,0.0,-3.0494,-3.1021,-3.1467,-3.1731,-3.2431,-3.2798,-3.2782,-3.3075,-3.3213,-3.3213,-3.2952,-3.2854,-3.2909,-3.2733,-3.2609,-3.2677,-3.2631,-3.245,0.0,0.0,0.0,0.0,0.0,0.0,0.0,0.0,0.0,0.0,0.0,-3.3511,0.0,0.0,0.0,0.0,-3.4082,-3.4516,-3.5227,-3.5414,0.0,0.0,0.0,0.0,0.0,0.0,0.0,-3.8474,-3.9266,-4.0045,-4.0639,-4.0087,-4.0292,-4.2027,-4.1962,-4.2115,-4.2952,0.0,-4.3634,-4.358,-4.3996,-4.4261,-4.4279,-4.4928,-4.5605,-4.629,-4.7219,-4.8157,-4.9085,-4.9549,-4.9763,-4.9799,-5.0031,-5.0263,-5.0263,-5.0263,-5.0138,-4.9852,-4.9781,-4.9888,-5.0191,-5.0263,-5.0102,-2.6726,-2.6625,-2.6207,-2.6255,-2.6609,-2.6791,-2.7092,-2.7523,-2.7868,-2.7967,-2.7813,-2.8484,-2.8367,-2.768,-2.7947,0.0,-2.9152,-2.9001,-2.9191,-2.9602,-2.9602,-2.9602,-2.9602,-2.9602,-2.9602,-2.9602,-2.9659,-2.9687,-2.9659,-2.9565,-2.9798,-3.033,-3.0746,-3.0943,-3.0896,-3.1457,-3.1747,-3.1734,-3.2807,-3.3429,-3.3506,-3.4137,-3.446,-3.4445,-3.3829,-3.346,-3.3383,-3.2925,-3.2819,-3.3081,-3.2831,-3.2802,-3.3129,0.0,0.0,0.0,0.0,0.0,0.0,0.0,0.0,0.0,0.0,0.0,0.0,0.0,0.0,0.0,-3.4995,0.0,-3.6374,-3.5943,0.0,0.0,0.0,-3.6505,-3.7819,-3.808,-3.8388,-3.9016,0.0,0.0,-4.1363,-4.178,-4.2212,-4.2886,-4.2994,-4.3315,-4.4183,-4.4253,-4.4219,-4.4342,-4.4435,-4.4536,-4.4901,-4.601,-4.7435,-4.8847,-4.9376,-4.9376,-4.9572,-5.0071,-5.0548,-5.0597,-5.1222,-5.1654,-5.1672,-5.1583,-5.1476,-5.0727,-5.0602,-5.0816,-5.1405,-5.1565,-5.1476,-2.6521,-2.6577,-2.6435,-2.6477,-2.6726,-2.6873,-2.7152,-2.7335,-2.7536,-2.7841,-2.8177,-2.8519,-2.8743,-2.892,-2.9091,-2.9313,-2.9501,-2.9439,-2.9476,-2.9602,-2.9602,-2.9602,-2.9602,-2.9602,-2.9602,-2.9645,-3.0094,-3.0305,-3.0319,-3.114,-3.1416,-3.135,-3.1925,-3.1986,-3.1581,-3.1743,-3.198,-3.2346,-3.3181,-3.3805,-3.4214,-3.4457,-3.446,-3.446,-3.4306,-3.3967,-3.3429,-3.326,-3.316,-3.3128,-3.3135,-3.3112,-3.3048,-3.2501,0.0,0.0,0.0,0.0,0.0,0.0,0.0,0.0,0.0,-3.335,-3.3239,0.0,-3.4172,0.0,-3.5587,-3.6002,-3.6037,-3.617,0.0,0.0,-3.7073,-3.7439,-3.784,-3.8816,-3.9807,-4.069,-4.1209,-4.1893,-4.3004,-4.3203,-4.3565,-4.4288,-4.412,-4.4058,-4.4289,-4.4731,-4.5006,-4.5088,-4.5434,-4.5985,-4.6632,-4.7544,-4.8629,-4.972,-4.993,-5.0125,-5.083,-5.1129,-5.1272,-5.1405,-5.153,-5.169,-5.169,-5.169,-5.1654,-5.1458,-5.1405,-5.1458,-5.1672,-5.169,-5.153,-2.6521,-2.6521,-2.6521,-2.6533,-2.6645,-2.6739,-2.6943,-2.7146,-2.7335,-2.7656,-2.8105,-2.8365,-2.878,-2.9289,-2.9352,-2.9491,-2.9602,-2.9602,-2.9602,-2.9602,-2.9602,-2.9602,-2.9617,-2.9897,-3.001,-3.0038,-3.0642,-3.0951,-3.0979,-3.1565,-3.1926,-3.1946,-3.2165,-3.2269,-3.2321,-3.2214,-3.2315,-3.2594,-3.3568,-3.45,-3.5322,-3.5368,-3.5274,-3.504,-3.4732,-3.4311,-3.3615,-3.3417,-3.324,-3.3272,-3.3398,-3.3467,-3.3468,-3.3013,-3.2583,0.0,0.0,0.0,0.0,0.0,0.0,0.0,0.0,0.0,0.0,0.0,-3.4805,-3.5454,-3.6263,-3.6695,-3.6644,-3.696,-3.724,-3.7318,-3.7888,-3.8374,-3.8599,-3.9662,-4.0683,-4.1551,-4.2285,-4.3048,-4.3924,-4.4143,-4.4519,-4.5288,-4.5238,-4.5158,-4.517,-4.5482,-4.5686,-4.5716,-4.627,-4.7151,-4.8324,-4.8972,-4.9639,-5.0449,-5.0643,-5.0803,-5.1314,-5.1454,-5.1505,-5.1607,-5.164,-5.169,-5.169,-5.169,-5.169,-5.169,-5.169,-5.169,-5.169,-5.169,-5.1512,-2.6735,-2.6666,-2.6666,-2.6666,-2.6747,-2.6666,-2.6797,-2.6956,-2.7214,-2.7536,-2.7908,-2.8235,-2.8638,-2.9035,-2.9182,-2.94,-2.9666,-2.9813,-2.9841,-2.9855,-2.9841,-2.9841,-2.9869,-3.0389,-3.0642,-3.0684,-3.1302,-3.1612,-3.1612,-3.1696,-3.1933,-3.2328,-3.2222,-3.2436,-3.3074,-3.2967,-3.2795,-3.2733,-3.3794,-3.4937,-3.6199,-3.623,-3.5999,-3.5592,-3.4988,-3.4441,-3.3886,-3.3459,-3.3282,-3.3398,-3.3607,-3.3813,-3.4034,-3.3502,-3.3209,0.0,-3.2883,0.0,0.0,0.0,0.0,0.0,0.0,0.0,0.0,-3.513,-3.5626,-3.6038,-3.6905,-3.7483,-3.7564,-3.7912,-3.8145,-3.8191,-3.8618,-3.9133,-3.9767,-4.0543,-4.1401,-4.223,-4.297,-4.3712,-4.4557,-4.4829,-4.5257,-4.5798,-4.6035,-4.6081,-4.6186,-4.6168,-4.6168,-4.6189,-4.6958,-4.8063,-4.9379,-4.9976,-5.0381,-5.1087,-5.1193,-5.1246,-5.1246,-5.135,-5.1472,-5.1454,-5.1607,-5.164,-5.164,-5.169,-5.169,-5.169,-5.169,-5.169,-5.169,-5.169,-5.169,-2.7795,-2.7795,-2.7795,-2.7795,-2.7795,-2.7795,-2.7422,-2.6794,-2.7134,-2.7656,-2.8235,-2.8573,-2.8766,-2.8949,-2.9688,-3.009,-3.0183,-3.083,-3.1134,-3.1134,-3.1134,-3.1134,-3.1148,-3.126,-3.1316,-3.1345,-3.1935,-3.2216,-3.2244,-3.2736,-3.3118,-3.3383,-3.3495,-3.3722,-3.4069,0.0,0.0,0.0,-3.3547,-3.3998,-3.4814,-3.4845,-3.4917,-3.488,-3.4756,0.0,-3.3917,-3.3802,-3.3568,-3.3181,-3.3398,0.0,0.0,0.0,0.0,0.0,0.0,0.0,0.0,0.0,0.0,0.0,-3.5806,-3.62,-3.5253,-3.6145,-3.6882,-3.7049,-3.7446,-3.779,-3.7967,-3.8322,-3.8532,-3.855,-3.9112,-3.9848,-4.056,-4.1336,-4.2334,-4.3833,-4.4076,-4.4457,-4.5234,-4.5493,-4.5664,-4.5837,-4.6023,-4.6189,-4.6207,-4.6224,-4.6207,-4.6277,-4.7485,-4.8608,-4.9591,-5.0277,-5.0735,-5.0981,-5.0981,-5.0998,-5.1105,-5.1158,-5.1211,-5.1298,-5.1472,-5.1556,-5.1556,-5.1658,-5.169,-5.169,-5.169,-5.169,-5.169,-5.169,-5.169,-2.8109,0.0,-2.8109,-2.8109,0.0,-2.8109,-2.7855,-2.741,-2.7831,-2.8373,-2.9053,-2.9322,-2.9535,-2.9748,-3.0301,-3.0651,-3.0745,-3.1278,-3.1485,-3.1485,-3.1485,-3.1485,-3.1499,-3.1808,-3.1963,-3.1963,-3.2553,-3.2876,-3.2862,-3.3171,-3.3352,-3.3518,-3.3521,-3.3577,-3.3746,-3.4061,-3.437,-3.4678,-3.4222,-3.426,-3.4906,-3.4629,-3.4593,-3.4694,0.0,0.0,0.0,0.0,0.0,0.0,0.0,0.0,0.0,0.0,0.0,-3.45,-3.4379,-3.4284,-3.4267,-3.5052,-3.5562,-3.5544,-3.6509,-3.6863,-3.622,-3.6852,-3.734,-3.7548,-3.7914,-3.8129,-3.8249,-3.8772,-3.9251,-3.9674,-4.034,-4.1147,-4.1923,-4.2664,-4.3456,-4.4232,-4.4665,-4.5062,-4.5615,-4.5667,-4.577,-4.5889,-4.6355,-4.6683,-4.67,-4.675,-4.7011,-4.7783,-4.8503,-4.9363,-5.0118,-5.0575,-5.0891,-5.0891,-5.0891,-5.0945,-5.0998,-5.107,-5.1105,-5.1193,-5.1368,-5.1454,-5.1454,-5.1538,-5.169,-5.1658,-5.164,-5.169,-5.169,-5.169,-5.169,-2.8411,-2.8411,-2.8411,-2.8411,-2.8411,-2.8411,-2.8472,-2.8533,0.0,0.0,0.0,-3.0019,-3.0227,-3.0515,-3.0869,-3.1128,-3.1318,-3.1685,-3.1822,-3.1808,-3.1822,-3.1822,-3.1822,-3.2328,-3.2567,-3.2595,-3.3087,-3.3312,-3.3312,-3.3312,-3.3312,-3.3395,-3.3325,-3.335,-3.3425,-3.3832,-3.4577,-3.5629,-3.4935,-3.4737,-3.526,-3.4768,-3.4577,-3.4694,-3.4694,-3.4488,-3.4129,-3.4613,-3.4716,-3.4297,-3.4673,-3.5061,-3.5253,-3.5236,-3.5243,-3.5438,-3.5766,-3.5937,-3.5846,-3.6287,-3.662,-3.6659,-3.7193,-3.7411,-3.7233,-3.7388,-3.7666,-3.8064,-3.8406,-3.8688,-3.893,-3.9601,-4.0373,-4.1115,-4.1834,-4.2492,-4.3301,-4.3889,-4.4285,-4.4509,-4.5027,-4.5476,-4.5667,-4.5667,-4.5754,-4.6133,-4.6706,-4.7385,-4.7542,-4.7662,-4.8064,-4.9205,-4.9521,-4.9925,-5.0645,-5.0873,-5.0891,-5.0891,-5.0891,-5.0891,-5.0891,-5.0998,-5.107,-5.1052,-5.1264,-5.135,-5.135,-5.1505,-5.1589,-5.1556,-5.1589,-5.169,-5.169,-5.169,-5.169,-2.9553,-2.9566,-2.9553,-2.9553,-2.9553,-2.9553,-2.9783,-2.996,-2.9246,-2.9177,-2.9824,-3.0019,-3.0158,-3.0254,-3.124,-3.1682,-3.1778,-3.2667,-3.3073,0.0,-3.3073,-3.3073,-3.3059,-3.3157,-3.3185,-3.3199,-3.3283,-3.3312,-3.3312,-3.3312,-3.3507,-3.3948,-3.3998,-3.4143,-3.4677,-3.519,-3.551,-3.5713,-3.4911,-3.4522,-3.4614,-3.4522,-3.4577,-3.4694,-3.4709,-3.469,-3.4769,-3.4862,-3.4847,-3.481,-3.4525,-3.4423,-3.4462,-3.4186,-3.3982,-3.403,-3.4732,-3.5174,-3.517,-3.6427,-3.7436,-3.8035,-3.8181,-3.7994,-3.7367,-3.788,-3.8398,-3.8821,-3.9189,-3.9878,-4.0848,-4.1307,-4.1883,-4.2671,-4.2942,-4.3352,-4.4027,-4.4234,-4.4561,-4.513,-4.5354,-4.5423,-4.5545,-4.558,-4.5944,-4.6534,-4.7178,-4.7735,-4.8837,-4.8819,-4.8819,-4.9469,-4.9697,-5.003,-5.0697,-5.0891,-5.0891,-5.0891,-5.0891,-5.0891,-5.0891,-5.0945,-5.0945,-5.0945,-5.1105,-5.1229,-5.1281,-5.1402,-5.1592,-5.1643,-5.1762,-5.169,-5.169,-5.169,-5.1708,-2.9779,-2.9779,-2.9779,-2.9779,-2.9779,-2.9779,-2.9934,-3.0177,-2.9892,-3.0129,-3.0796,-3.0998,-3.1141,-3.1297,-3.1968,-3.2289,-3.2303,-3.2961,-3.3312,-3.3312,-3.3312,-3.3312,-3.3312,-3.3312,-3.3312,-3.3312,-3.3312,-3.3312,-3.3312,-3.3312,-3.3452,-3.3632,-3.3632,-3.3962,-3.4476,-3.5023,-3.5415,-3.5657,-3.5263,-3.5029,-3.5014,-3.466,-3.4704,-3.5118,-3.5133,-3.5177,-3.5251,-3.5592,-3.5623,-3.5251,-3.5416,-3.558,-3.5754,-3.5571,-3.5552,-3.5737,-3.6246,-3.6589,-3.6605,-3.7406,-3.8035,-3.8375,-3.8391,-3.8262,-3.7954,-3.8197,-3.861,-3.9194,-3.945,-3.9896,-4.0796,-4.1247,-4.1926,-4.2971,-4.3285,-4.382,-4.4682,-4.4906,-4.5044,-4.5354,-4.5441,-4.5596,-4.6116,-4.6168,-4.6498,-4.7368,-4.7998,-4.8907,-5.0136,-5.0066,-4.9943,-5.0259,-5.0346,-5.0469,-5.0838,-5.0891,-5.0891,-5.0891,-5.0891,-5.0891,-5.0891,-5.0908,-5.0908,-5.0891,-5.1016,-5.1282,-5.167,-5.1598,-5.1736,-5.2108,-5.1889,-5.1744,-5.169,-5.169,-5.1851,-2.9779,-2.9779,-2.9779,-2.9779,-2.9779,-2.9779,-2.9946,-3.0075,-3.0292,-3.0823,-3.1447,-3.1743,-3.1963,-3.2169,-3.2503,-3.2632,-3.2704,-3.3086,-3.3227,-3.3312,-3.3312,-3.3312,-3.3312,-3.3312,-3.3312,-3.3312,-3.3312,-3.3312,-3.3312,-3.3312,-3.3312,-3.3312,-3.3312,-3.3521,-3.3948,-3.4543,-3.5088,-3.5514,-3.5644,-3.5707,-3.5691,-3.5199,-3.5183,-3.566,-3.5707,-3.5707,-3.5737,-3.6215,-3.6245,-3.5768,-3.6122,-3.6445,-3.6705,-3.6622,-3.6664,-3.7006,-3.7367,-3.7684,-3.7976,-3.8221,-3.8335,-3.8408,-3.8553,-3.8651,-3.8651,-3.8796,-3.9023,-3.9486,-3.9764,-4.0212,-4.0932,-4.1469,-4.2149,-4.3244,-4.3749,-4.4382,-4.5197,-4.5441,-4.551,-4.5613,-4.5699,-4.5992,-4.6738,-4.6909,-4.7257,-4.8221,-4.9185,-5.001,-5.075,-5.0891,-5.0891,-5.0891,-5.0891,-5.0873,-5.0891,-5.0891,-5.0891,-5.0891,-5.0891,-5.0891,-5.0926,-5.0996,-5.1154,-5.1224,-5.1491,-5.1899,-5.2358,-5.2077,-5.2057,-5.2499,-5.2175,-5.1708,-5.169,-5.169,-5.1851,-2.9779,-2.9779,-2.9779,-2.9779,-2.9779,-2.9779,-2.9934,-3.0075,-3.0279,-3.0672,-3.1075,-3.1447,-3.1757,-3.1963,-3.2286,-3.2561,-3.2704,-3.2917,-3.3157,-3.3241,-3.3312,-3.3312,-3.3312,-3.3312,-3.3312,-3.3312,-3.3312,-3.3312,-3.3312,-3.3312,-3.3312,-3.3312,-3.3312,-3.3312,-3.3521,-3.4356,-3.4942,-3.5008,-3.5897,-3.6399,-3.6399,-3.6353,-3.6338,-3.6399,-3.6399,-3.6399,-3.6353,-3.6461,-3.6476,-3.6368,-3.5998,-3.5885,-3.5985,-3.5457,-3.5266,-3.5663,-3.6251,-3.6995,-3.8026,-3.8237,-3.831,-3.844,-3.9023,-3.9379,-3.9412,-3.993,-4.0027,-3.9842,-4.041,-4.1205,-4.2071,-4.2802,-4.35,-4.4309,-4.4773,-4.5302,-4.5353,-4.5441,-4.5699,-4.6441,-4.6458,-4.6786,-4.7441,-4.7665,-4.8069,-4.902,-4.9866,-5.0465,-5.0838,-5.0891,-5.0891,-5.0891,-5.0891,-5.0891,-5.0891,-5.0891,-5.0891,-5.0891,-5.0891,-5.0926,-5.1049,-5.147,-5.1909,-5.1961,-5.24,-5.2898,-5.3154,-5.2874,-5.2449,-5.2729,-5.2404,-5.169,-5.169,-5.169,-5.1797,-2.9779,-2.9779,-2.9779,-2.9779,-2.9779,-2.9779,-2.9856,-2.9946,-3.0292,-3.052,-3.0836,-3.1386,-3.1743,-3.189,-3.2273,-3.2417,-3.2561,-3.2775,-3.2917,-3.3157,-3.3143,-3.3157,-3.3312,-3.3312,-3.3312,-3.3312,-3.3312,-3.3312,-3.3312,-3.3312,-3.3312,-3.3312,-3.3312,-3.3312,-3.3382,-3.4031,-3.4409,-3.4476,-3.5154,-3.5688,-3.6022,-3.6352,-3.6492,-3.6492,-3.6492,-3.6492,-3.6492,-3.6492,-3.6492,-3.6476,-3.6276,-3.6321,-3.6562,-3.6263,-3.6299,-3.6627,-3.7064,-3.7524,-3.8164,-3.8682,-3.8982,-3.9039,-3.9687,-4.0075,-4.0092,-4.0723,-4.0998,-4.088,-4.113,-4.1771,-4.2708,-4.3247,-4.3769,-4.4502,-4.4886,-4.5069,-4.5388,-4.5855,-4.6286,-4.6579,-4.701,-4.7527,-4.8252,-4.8825,-4.9357,-4.9928,-5.0352,-5.0657,-5.0891,-5.0891,-5.0891,-5.0891,-5.0891,-5.0891,-5.0891,-5.0891,-5.0908,-5.0908,-5.0891,-5.0961,-5.1523,-5.1733,-5.2137,-5.2611,-5.305,-5.3584,-5.4181,-5.3263,-5.2555,-5.2889,-5.2475,-5.169,-5.169,-5.169,-5.169,-2.9779,-2.9779,-2.9779,-2.9779,-2.9779,-2.9779,-2.9779,-2.9869,-3.0228,-3.0444,-3.0685,-3.1299,-3.1669,-3.1817,-3.2155,-3.2359,-3.2417,-3.2561,-3.2775,-3.2988,-3.2988,-3.3143,-3.3312,-3.3312,-3.3312,-3.3312,-3.3312,-3.3312,-3.3312,-3.3312,-3.3312,-3.3312,-3.3312,-3.3312,-3.3396,-3.3825,-3.407,-3.4138,-3.4758,-3.5285,-3.5752,-3.6226,-3.6492,-3.6492,-3.6492,-3.6492,-3.6492,-3.6492,-3.6492,-3.6492,-3.6492,-3.6631,-3.6877,-3.6907,-3.7013,-3.7314,-3.7567,-3.7956,-3.838,-3.9011,-3.9499,-3.98,-4.0383,-4.0788,-4.0901,-4.1436,-4.1824,-4.184,-4.1857,-4.2275,-4.2905,-4.3227,-4.368,-4.439,-4.458,-4.494,-4.5644,-4.6303,-4.6769,-4.7165,-4.7734,-4.8303,-4.9028,-4.9734,-5.0215,-5.0345,-5.0547,-5.0747,-5.0873,-5.0891,-5.0891,-5.0891,-5.0891,-5.0891,-5.0891,-5.0891,-5.0926,-5.1189,-5.1259,-5.154,-5.2207,-5.2435,-5.2699,-5.3454,-5.3612,-5.4007,-5.467,-5.3969,-5.2821,-5.3174,-5.2654,-5.1708,-5.169,-5.169,-5.169,-2.9779,-2.9779,-2.9779,-2.9779,-2.9779,-2.9779,-2.9779,-2.9792,-3.0216,-3.0444,-3.052,-3.1224,-3.1609,-3.1669,-3.2023,-3.2314,-3.2417,-3.2417,-3.2618,-3.2917,-3.2988,-3.3072,-3.3312,-3.3312,-3.3312,-3.3312,-3.3312,-3.3312,-3.3312,-3.3312,-3.3312,-3.3312,-3.3312,-3.3312,-3.3382,-3.3825,-3.4085,-3.4153,-3.5008,-3.5623,-3.5767,-3.6211,-3.6492,-3.6492,-3.6492,-3.6492,-3.6492,-3.6492,-3.6492,-3.6492,-3.6492,-3.6554,-3.6723,-3.6631,-3.6706,-3.6995,-3.7163,-3.7733,-3.8738,-3.9065,-3.9489,-4.0356,-4.1112,-4.1594,-4.1565,-4.2099,-4.2456,-4.2553,-4.2504,-4.2585,-4.2713,-4.3052,-4.3479,-4.4057,-4.4473,-4.5248,-4.637,-4.6611,-4.7303,-4.8269,-4.8683,-4.9062,-4.9804,-5.0228,-5.0359,-5.0471,-5.0655,-5.0873,-5.0891,-5.0891,-5.0891,-5.0891,-5.0891,-5.0891,-5.0891,-5.0891,-5.1207,-5.154,-5.1786,-5.219,-5.298,-5.3629,-5.3945,-5.4314,-5.4717,-5.5039,-5.5389,-5.4906,-5.3779,-5.3281,-5.244,-5.1762,-5.1708,-5.169,-5.1779,-2.9779,-2.9779,-2.9779,-2.9779,-2.9779,-2.9779,-2.9779,-2.9869,-3.0228,-3.0368,-3.052,-3.1224,-3.1609,-3.1596,-3.2036,-3.2241,-3.2314,-3.23,-3.2431,-3.2632,-3.2775,-3.2931,-3.3072,-3.3241,-3.3312,-3.3312,-3.3312,-3.3312,-3.3312,-3.3312,-3.3312,-3.3312,-3.3312,-3.3312,-3.3312,-3.3507,-3.3563,-3.3646,-3.4288,-3.481,-3.5219,-3.5688,-3.6148,-3.6492,-3.6492,-3.6492,-3.6492,-3.6492,-3.6492,-3.6492,-3.6492,-3.6554,-3.6723,-3.6769,-3.6921,-3.7103,-3.7222,-3.7793,-3.8866,-3.9542,-4.0208,-4.1128,-4.184,-4.2229,-4.2278,-4.2488,-4.2571,-4.2571,-4.2571,-4.2571,-4.2696,-4.3019,-4.3502,-4.4015,-4.4885,-4.5597,-4.6281,-4.7223,-4.8252,-4.8786,-4.9217,-4.9717,-4.993,-5.0149,-5.0302,-5.0397,-5.0564,-5.0747,-5.0891,-5.0891,-5.0891,-5.0891,-5.0891,-5.0891,-5.0891,-5.0891,-5.1119,-5.1663,-5.2119,-5.2786,-5.3524,-5.4015,-5.4331,-5.4665,-5.5262,-5.5127,-5.5054,-5.4111,-5.3336,-5.2711,-5.1886,-5.1904,-5.169,-5.1797,-5.2029,-2.9456,-2.9546,-2.9714,-2.9779,-2.9779,-2.9779,-2.9779,-2.9869,-3.0152,-3.0368,-3.052,-3.1136,-3.1447,-3.1669,-3.1963,-3.2196,-3.2182,-3.2169,-3.23,-3.2417,-3.2561,-3.2775,-3.2988,-3.3157,-3.3227,-3.3312,-3.3312,-3.3312,-3.3312,-3.3312,-3.3312,-3.3312,-3.3312,-3.3312,-3.3312,-3.3312,-3.3312,-3.3382,-3.3948,-3.4543,-3.4957,-3.5608,-3.6085,-3.6429,-3.6492,-3.6492,-3.6492,-3.6492,-3.6492,-3.6492,-3.6492,-3.6554,-3.6662,-3.6754,-3.6923,-3.7029,-3.7414,-3.8081,-3.9097,-3.9982,-4.0855,-4.1779,-4.2264,-4.2571,-4.2571,-4.2571,-4.2571,-4.2571,-4.2571,-4.2571,-4.2634,-4.2912,-4.335,-4.4042,-4.5052,-4.597,-4.6578,-4.7883,-4.8781,-4.9235,-4.9648,-4.9942,-4.9993,-5.0132,-5.0246,-5.0397,-5.0509,-5.0675,-5.0819,-5.0891,-5.0891,-5.0891,-5.0891,-5.0891,-5.1013,-5.1136,-5.1663,-5.2225,-5.2839,-5.3471,-5.4033,-5.4454,-5.4665,-5.5033,-5.4963,-5.4781,-5.4173,-5.3281,-5.2626,-5.207,-5.2154,-5.2243,-5.2101,-5.1976,-5.235,-2.8803,-2.8961,-2.9534,-2.9779,-2.9779,-2.9779,-2.9779,-2.9856,-3.0011,-3.0216,-3.0444,-3.0836,-3.1286,-3.1609,-3.1817,-3.2036,-3.2182,-3.2169,-3.2241,-3.2345,-3.2417,-3.2632,-3.2917,-3.2988,-3.3157,-3.3312,-3.3312,-3.3312,-3.3312,-3.3312,-3.3312,-3.3312,-3.3312,-3.3312,-3.3312,-3.3312,-3.3312,-3.3521,-3.4221,-3.481,-3.5023,-3.5879,-3.6367,-3.6492,-3.6492,-3.6492,-3.6492,-3.6492,-3.6492,-3.6492,-3.6492,-3.6492,-3.6492,-3.6554,-3.6616,-3.6816,-3.7499,-3.8451,-3.9471,-4.0277,-4.1198,-4.206,-4.2349,-4.2445,-4.2571,-4.2571,-4.2571,-4.2571,-4.2571,-4.2571,-4.2571,-4.2634,-4.3127,-4.4212,-4.5023,-4.6119,-4.758,-4.8483,-4.9114,-4.9752,-4.9993,-4.9993,-4.9993,-5.0149,-5.0246,-5.0397,-5.0492,-5.0657,-5.0819,-5.0891,-5.0891,-5.0891,-5.0891,-5.0891,-5.1154,-5.1505,-5.2242,-5.2962,-5.3612,-5.4244,-5.477,-5.5174,-5.477,-5.4893,-5.4086,-5.3809,-5.3465,-5.2696,-5.2449,-5.2109,-5.2373,-5.2529,-5.2422,-5.2386,-5.2886,-2.9052,-2.9456,-2.9702,-2.9779,-2.9779,-2.9779,-2.9779,-2.9779,-3.0011,-3.0216,-3.0444,-3.0823,-3.1224,-3.1609,-3.183,-3.205,-3.2182,-3.2169,-3.2241,-3.23,-3.2359,-3.2489,-3.2632,-3.2846,-3.3143,-3.3241,-3.3312,-3.3312,-3.3312,-3.3312,-3.3312,-3.3312,-3.3312,-3.3312,-3.3312,-3.3312,-3.3312,-3.3382,-3.3948,-3.4476,-3.489,-3.5559,-3.6085,-3.6429,-3.6492,-3.6492,-3.6492,-3.6492,-3.6492,-3.6492,-3.6492,-3.6492,-3.6492,-3.6492,-3.6554,-3.6785,-3.7546,-3.8498,-3.9518,-4.0372,-4.1183,-4.1997,-4.2302,-4.2381,-4.2445,-4.2571,-4.2571,-4.2571,-4.2571,-4.2571,-4.2571,-4.2571,-4.3193,-4.4344,-4.5363,-4.6481,-4.7954,-4.898,-4.9642,-4.9924,-5.0011,-5.0011,-4.9993,-5.0109,-5.0246,-5.0341,-5.0509,-5.0657,-5.0819,-5.0891,-5.0891,-5.0891,-5.0891,-5.0908,-5.1084,-5.1523,-5.2277,-5.305,-5.3805,-5.4577,-5.5191,-5.5455,-5.5051,-5.4261,-5.3454,-5.2843,-5.2496,-5.2235,-5.1953,-5.2112,-5.2269,-5.2444,-5.26,-5.301,-5.3581,-2.8486,-2.904,-2.93,-2.9624,-2.9779,-2.9779,-2.9779,-2.9792,-2.9946,-3.0075,-3.0305,-3.0596,-3.0986,-3.1373,-3.1669,-3.1904,-3.2109,-3.2169,-3.2169,-3.2169,-3.23,-3.2359,-3.2417,-3.2846,-3.3072,-3.3241,-3.3312,-3.3312,-3.3312,-3.3312,-3.3312,-3.3312,-3.3312,-3.3312,-3.3312,-3.3312,-3.3312,-3.3396,-3.3825,-3.4288,-3.461,-3.5154,-3.5672,-3.6085,-3.6211,-3.6289,-3.6492,-3.6492,-3.6492,-3.6492,-3.6492,-3.6492,-3.6492,-3.6492,-3.6538,-3.6832,-3.7717,-3.8732,-3.9408,-4.0435,-4.1342,-4.1949,-4.2238,-4.2381,-4.2429,-4.2571,-4.2571,-4.2571,-4.2571,-4.2571,-4.2571,-4.2571,-4.329,-4.4723,-4.5696,-4.6995,-4.8472,-4.9492,-4.9901,-5.0011,-5.0011,-5.0011,-4.9993,-5.0051,-5.0206,-5.0302,-5.0436,-5.0547,-5.0764,-5.0836,-5.0891,-5.0891,-5.0891,-5.0926,-5.0943,-5.1523,-5.2277,-5.305,-5.3805,-5.4595,-5.5297,-5.542,-5.5209,-5.3787,-5.2786,-5.1979,-5.1597,-5.1546,-5.1335,-5.1741,-5.2164,-5.2517,-5.28,-5.3831,-5.4367,-2.7267,-2.7891,-2.8554,-2.9209,-2.9702,-2.9792,-2.9779,-2.9792,-2.9792,-2.9946,-3.0152,-3.0381,-3.0672,-3.1061,-3.1434,-3.1683,-3.189,-3.2109,-3.2169,-3.2169,-3.2241,-3.23,-3.2417,-3.2775,-3.3002,-3.3227,-3.3241,-3.3241,-3.3312,-3.3312,-3.3312,-3.3312,-3.3312,-3.3312,-3.3312,-3.3312,-3.3312,-3.3382,-3.3756,-3.4016,-3.4138,-3.461,-3.5139,-3.5623,-3.5752,-3.5943,-3.6289,-3.6429,-3.6492,-3.6492,-3.6492,-3.6492,-3.6492,-3.6492,-3.6492,-3.6615,-3.8152,-3.8871,-3.9452,-4.0621,-4.1625,-4.1948,-4.2093,-4.2238,-4.2429,-4.2571,-4.2571,-4.2571,-4.2571,-4.2571,-4.2571,-4.2571,-4.3502,-4.523,-4.6319,-4.7708,-4.9543,-4.9993,-4.9993,-5.0011,-5.0011,-5.0011,-5.0011,-4.9993,-5.0109,-5.0206,-5.0359,-5.0471,-5.0599,-5.0782,-5.0891,-5.0891,-5.0891,-5.0908,-5.0926,-5.1136,-5.1874,-5.2611,-5.3471,-5.4384,-5.5104,-5.5244,-5.4946,-5.3524,-5.2348,-5.1487,-5.098,-5.1016,-5.1052,-5.1299,-5.1829,-5.2448,-5.3087,-5.3869,-5.4528,-2.7765,-2.8327,-2.8816,-2.9131,-2.93,-2.9624,-2.9779,-2.9779,-2.9779,-3.0011,-3.0216,-3.0216,-3.0596,-3.1185,-3.1272,-3.1582,-3.189,-3.2109,-3.2169,-3.2169,-3.2169,-3.23,-3.2345,-3.2489,-3.2775,-3.3072,-3.3157,-3.3143,-3.3312,-3.3312,-3.3312,-3.3312,-3.3312,-3.3312,-3.3312,-3.3312,-3.3312,-3.3312,-3.3452,-3.377,-3.4085,-3.4221,-3.4543,-3.5073,-3.5479,-3.5737,-3.5958,-3.6289,-3.6492,-3.6492,-3.6492,-3.6492,-3.6492,-3.6492,-3.6554,-3.6863,-3.8121,-3.9186,-3.9549,-4.0684,-4.1591,-4.172,-4.198,-4.2125,-4.2238,-4.2429,-4.2571,-4.2571,-4.2571,-4.2571,-4.2571,-4.2603,-4.3693,-4.5813,-4.7177,-4.8617,-4.9664,-5.0011,-5.0011,-5.0011,-5.0011,-5.0011,-5.0011,-4.9993,-5.0051,-5.0189,-5.0302,-5.0397,-5.0582,-5.0782,-5.0891,-5.0891,-5.0891,-5.0891,-5.0926,-5.1031,-5.1435,-5.2137,-5.3015,-5.4033,-5.463,-5.4981,-5.4331,-5.3296,-5.247,-5.161,-5.1136,-5.0945,-5.0998,-5.1052,-5.1705,-5.236,-5.2715,-5.3318,-5.4064,-2.7522,-2.8099,-2.8327,-2.8578,-2.8895,-2.9312,-2.9546,-2.9546,-2.9714,-2.9946,-3.0088,-3.0152,-3.0368,-3.0885,-3.1048,-3.1347,-3.1656,-3.1963,-3.2036,-3.2109,-3.2182,-3.23,-3.2417,-3.2489,-3.269,-3.2988,-3.3058,-3.3157,-3.3241,-3.3312,-3.3312,-3.3312,-3.3312,-3.3312,-3.3312,-3.3312,-3.3312,-3.3312,-3.3312,-3.3437,-3.377,-3.377,-3.4099,-3.4491,-3.4876,-3.5139,-3.5688,-3.6211,-3.6492,-3.6492,-3.6492,-3.6492,-3.6492,-3.6492,-3.6554,-3.677,-3.8231,-3.9186,-3.9518,-4.0734,-4.1607,-4.1752,-4.1947,-4.2061,-4.2238,-4.2429,-4.2508,-4.2555,-4.2571,-4.2571,-4.2636,-4.2893,-4.3807,-4.5296,-4.7278,-4.8838,-4.9808,-5.0011,-5.0011,-5.0011,-5.0011,-5.0011,-5.0011,-5.0011,-5.0051,-5.0149,-5.0302,-5.0397,-5.0492,-5.0747,-5.0891,-5.0891,-5.0891,-5.0891,-5.0891,-5.0978,-5.1329,-5.1961,-5.2593,-5.3629,-5.4331,-5.4717,-5.4296,-5.3541,-5.2646,-5.1909,-5.1487,-5.1101,-5.0945,-5.1192,-5.1792,-5.2022,-5.2253,-5.2661,-5.3422,-2.6962,-2.7441,-2.7534,-2.7857,-2.8431,-2.8895,-2.9064,-2.9143,-2.9468,-2.9714,-2.9779,-2.9998,-3.0305,-3.0444,-3.0911,-3.1136,-3.1347,-3.1743,-3.189,-3.1963,-3.2096,-3.2228,-3.2359,-3.2503,-3.2632,-3.2846,-3.3157,-3.3241,-3.3241,-3.3241,-3.3312,-3.3312,-3.3312,-3.3312,-3.3312,-3.3312,-3.3312,-3.3312,-3.3312,-3.3312,-3.3382,-3.3382,-3.3646,-3.3962,-3.4341,-3.4876,-3.5623,-3.6226,-3.6492,-3.6492,-3.6492,-3.6492,-3.6492,-3.6492,-3.6616,-3.6971,-3.8169,-3.9186,-3.955,-4.0718,-4.167,-4.1833,-4.1833,-4.2028,-4.2254,-4.2381,-4.2445,-4.2571,-4.2571,-4.2571,-4.2636,-4.3184,-4.3826,-4.4702,-4.6196,-4.773,-4.9255,-4.9832,-5.0011,-5.0011,-5.0011,-5.0011,-4.9993,-4.9993,-5.0051,-5.0206,-5.0359,-5.0453,-5.0547,-5.0747,-5.0891,-5.0891,-5.0891,-5.0891,-5.0891,-5.0908,-5.1365,-5.1891,-5.2383,-5.319,-5.4121,-5.4472,-5.4384,-5.3928,-5.3296,-5.2593,-5.1891,-5.1523,-5.1171,-5.105,-5.1456,-5.1439,-5.144,-5.2058,-5.2748,-2.6985,-2.7301,-2.7638,-2.7881,-2.8042,-2.8431,-2.8669,-2.8669,-2.9064,-2.9365,-2.9509,-2.9908,-3.0228,-3.0609,-3.0836,-3.1136,-3.1272,-3.1596,-3.1757,-3.189,-3.2109,-3.2169,-3.2241,-3.23,-3.2444,-3.2561,-3.2704,-3.2917,-3.3072,-3.3241,-3.3326,-3.3326,-3.3312,-3.3312,-3.3312,-3.3312,-3.3312,-3.3312,-3.3312,-3.3312,-3.3312,-3.3312,-3.3382,-3.3577,-3.4235,-3.5008,-3.5608,-3.6226,-3.6492,-3.6492,-3.6492,-3.6492,-3.6492,-3.6492,-3.6616,-3.7157,-3.8231,-3.9139,-3.9613,-4.0704,-4.1588,-4.167,-4.1817,-4.1963,-4.2109,-4.2318,-4.2445,-4.2571,-4.2571,-4.2571,-4.2603,-4.2747,-4.3355,-4.4204,-4.4941,-4.5885,-4.7461,-4.9021,-4.978,-4.9942,-4.9976,-5.0068,-5.0149,-5.0149,-5.0189,-5.0302,-5.038,-5.0474,-5.0602,-5.0729,-5.0766,-5.0803,-5.0891,-5.0891,-5.0891,-5.0908,-5.1189,-5.154,-5.1979,-5.2541,-5.3489,-5.4086,-5.3928,-5.4033,-5.4121,-5.3383,-5.2593,-5.1961,-5.161,-5.1347,-5.1191,-5.128,-5.1438,-5.1809,-5.1916,-2.7067,-2.7231,-2.7476,-2.7557,-2.7638,-2.803,-2.8191,-2.8271,-2.8669,-2.8895,-2.904,-2.9509,-2.9973,-3.0279,-3.0685,-3.0986,-3.136,-3.1582,-3.1817,-3.2036,-3.2182,-3.2169,-3.2169,-3.2241,-3.23,-3.2417,-3.2632,-3.2775,-3.2931,-3.3086,-3.3157,-3.3157,-3.3241,-3.3312,-3.3312,-3.3312,-3.3312,-3.3312,-3.3312,-3.3312,-3.3312,-3.3312,-3.3312,-3.3452,-3.4099,-3.4677,-3.4942,-3.5752,-3.6022,-3.6148,-3.6352,-3.6492,-3.6492,-3.6492,-3.6631,-3.7002,-3.792,-3.8842,-3.9503,-4.0402,-4.1257,-4.1557,-4.1654,-4.1866,-4.2045,-4.2174,-4.2381,-4.2508,-4.2571,-4.2571,-4.2571,-4.2587,-4.3081,-4.348,-4.4183,-4.4898,-4.5975,-4.775,-4.9193,-4.9412,-4.9769,-4.9924,-5.0109,-5.0097,-5.0189,-5.0246,-4.991,-5.0003,-5.0392,-5.0519,-5.0591,-5.068,-5.0838,-5.0891,-5.0891,-5.0926,-5.0996,-5.1189,-5.1347,-5.1891,-5.2576,-5.3067,-5.3401,-5.3734,-5.4138,-5.4121,-5.3418,-5.2769,-5.2242,-5.2225,-5.2087,-5.17,-5.1632,-5.2038,-5.1952,-2.7149,-2.7149,-2.7149,-2.7231,-2.7219,-2.7638,-2.78,-2.7881,-2.8203,-2.8431,-2.8498,-2.904,-2.9496,-2.9793,-3.0292,-3.0823,-3.1286,-3.1669,-3.189,-3.2036,-3.2196,-3.2182,-3.2169,-3.2241,-3.2241,-3.2359,-3.2561,-3.2632,-3.2775,-3.2917,-3.3072,-3.3058,-3.3227,-3.3312,-3.3312,-3.3312,-3.3312,-3.3312,-3.3312,-3.3312,-3.3312,-3.3312,-3.3312,-3.3382,-3.3825,-3.4138,-3.4476,-3.5154,-3.5752,-3.5752,-3.6211,-3.6429,-3.6492,-3.6492,-3.6538,-3.6754,-3.7623,-3.8372,-3.9125,-4.0039,-4.0893,-4.143,-4.1573,-4.172,-4.198,-4.2109,-4.2302,-4.2445,-4.2587,-4.2571,-4.2571,-4.2571,-4.2571,-4.2826,-4.364,-4.4134,-4.4721,-4.6354,-4.7622,-4.8506,-4.9143,-4.9562,-4.981,-4.9976,-5.0119,-5.0142,-4.9733,-4.9672,-5.0095,-5.0396,-5.0575,-5.0662,-5.0838,-5.0891,-5.0891,-5.0908,-5.0978,-5.0996,-5.1013,-5.1347,-5.1856,-5.2312,-5.2892,-5.366,-5.3993,-5.3975,-5.3888,-5.3326,-5.3011,-5.312,-5.2839,-5.2403,-5.23,-5.2337,-5.2057,-2.6727,-2.6727,-2.7067,-2.7149,-2.6974,-2.7231,-2.7324,-2.7394,-2.78,-2.7962,-2.8042,-2.8645,-2.9172,-2.9639,-2.996,-3.0432,-3.0973,-3.1447,-3.1669,-3.1817,-3.2036,-3.2182,-3.2182,-3.2169,-3.2241,-3.2228,-3.2359,-3.2489,-3.2704,-3.2917,-3.3002,-3.3157,-3.3241,-3.3312,-3.3312,-3.3312,-3.3312,-3.3312,-3.3312,-3.3312,-3.3312,-3.3312,-3.3312,-3.3312,-3.3756,-3.4016,-3.4274,-3.5088,-3.5688,-3.5752,-3.6211,-3.6429,-3.6492,-3.6492,-3.6554,-3.6847,-3.7468,-3.806,-3.8623,-3.9755,-4.0498,-4.0877,-4.1225,-4.1591,-4.1819,-4.2061,-4.219,-4.2365,-4.2508,-4.2555,-4.2571,-4.2571,-4.2571,-4.2682,-4.2794,-4.3173,-4.3751,-4.484,-4.622,-4.7124,-4.8146,-4.9062,-4.9222,-4.9578,-4.9916,-5.0063,-4.9948,-5.0078,-5.0502,-5.0643,-5.0697,-5.0785,-5.0873,-5.0891,-5.0891,-5.0891,-5.0926,-5.0926,-5.0943,-5.0943,-5.14,-5.1786,-5.2383,-5.2888,-5.3589,-5.3923,-5.3725,-5.3567,-5.366,-5.3647,-5.3331,-5.2997,-5.3092,-5.3095,-5.267,-2.6644,-2.6644,-2.6891,-2.6974,-2.6985,-2.7149,-2.7231,-2.7231,-2.7476,-2.7569,-2.7719,-2.8179,-2.8633,-2.8937,-2.9406,-2.9947,-3.0646,-3.136,-3.1522,-3.1669,-3.189,-3.2036,-3.2123,-3.2109,-3.2169,-3.2241,-3.23,-3.2372,-3.2444,-3.2704,-3.286,-3.3002,-3.3157,-3.3312,-3.3312,-3.3312,-3.3312,-3.3312,-3.3312,-3.3312,-3.3312,-3.3312,-3.3312,-3.3382,-3.3507,-3.3701,-3.3839,-3.4423,-3.5023,-3.5285,-3.5816,-3.6163,-3.6429,-3.6492,-3.6554,-3.6785,-3.725,-3.7747,-3.8199,-3.9125,-3.9598,-4.0072,-4.0688,-4.11,-4.1388,-4.1661,-4.2013,-4.2254,-4.2365,-4.2492,-4.2492,-4.2571,-4.2571,-4.2571,-4.2634,-4.2867,-4.3344,-4.4105,-4.4959,-4.5943,-4.7215,-4.8058,-4.8446,-4.8886,-4.9538,-4.9823,-4.9988,-5.0396,-5.0768,-5.0768,-5.0662,-5.0838,-5.0891,-5.0891,-5.0891,-5.0891,-5.0891,-5.0891,-5.0891,-5.0891,-5.0978,-5.1382,-5.1523,-5.1786,-5.2502,-5.3322,-5.38,-5.3677,-5.3945,-5.4138,-5.3963,-5.3805,-5.3827,-5.3743,-5.3426,-2.6479,-2.6479,-2.6727,-2.6809,-2.6903,-2.7056,-2.7149,-2.7149,-2.7231,-2.7231,-2.7313,-2.7788,-2.8099,-2.8327,-2.8858,-2.9561,-3.0254,-3.1048,-3.1286,-3.1596,-3.1817,-3.1904,-3.1977,-3.2109,-3.2169,-3.2169,-3.2241,-3.2169,-3.23,-3.2489,-3.2632,-3.2846,-3.3086,-3.3241,-3.3227,-3.3241,-3.3312,-3.3312,-3.3312,-3.3312,-3.3312,-3.3312,-3.3312,-3.3312,-3.3312,-3.3312,-3.3452,-3.3962,-3.4491,-3.4957,-3.5415,-3.5943,-3.6367,-3.6492,-3.6554,-3.6739,-3.6938,-3.7404,-3.7839,-3.8432,-3.8918,-3.9313,-3.9961,-4.0341,-4.0706,-4.1151,-4.174,-4.2077,-4.2238,-4.2365,-4.2429,-4.2492,-4.2571,-4.2571,-4.2634,-4.2805,-4.3246,-4.3822,-4.432,-4.5331,-4.6494,-4.7145,-4.7603,-4.8303,-4.897,-4.9323,-4.9466,-4.9958,-5.0329,-5.0487,-5.0522,-5.0785,-5.0891,-5.0891,-5.0891,-5.0891,-5.0891,-5.0891,-5.0891,-5.0891,-5.0891,-5.0996,-5.1101,-5.1259,-5.1681,-5.2523,-5.3138,-5.3822,-5.4086,-5.4296,-5.4507,-5.4612,-5.4635,-5.4512,-5.4323,-2.6157,-2.6074,-2.6479,-2.6644,-2.6644,-2.6891,-2.7056,-2.7149,-2.7231,-2.7231,-2.7231,-2.7313,-2.7708,-2.8179,-2.8791,-2.9406,-2.9947,-3.0254,-3.0735,-3.1035,-3.1421,-3.1656,-3.1877,-3.2109,-3.2182,-3.2169,-3.2169,-3.23,-3.2359,-3.2431,-3.2561,-3.2704,-3.2917,-3.3058,-3.3157,-3.3241,-3.3312,-3.3312,-3.3312,-3.3312,-3.3312,-3.3312,-3.3312,-3.3312,-3.3312,-3.3312,-3.3312,-3.377,-3.4288,-3.489,-3.5415,-3.5943,-3.6414,-3.6492,-3.6677,-3.6877,-3.7015,-3.7062,-3.7387,-3.793,-3.8412,-3.8697,-3.925,-3.955,-3.9961,-4.0483,-4.1231,-4.2093,-4.2077,-4.2158,-4.2285,-4.2381,-4.2508,-4.2571,-4.2571,-4.2851,-4.3323,-4.3722,-4.4202,-4.4797,-4.5952,-4.6443,-4.6809,-4.7647,-4.8417,-4.8697,-4.9012,-4.9486,-4.9872,-5.003,-5.0469,-5.0768,-5.0891,-5.0891,-5.0891,-5.0891,-5.0891,-5.0891,-5.0891,-5.0891,-5.0891,-5.0891,-5.0908,-5.1101,-5.1417,-5.1663,-5.2225,-5.2997,-5.3892,-5.4261,-5.4261,-5.477,-5.5367,-5.5191,-5.4828,-2.5979,-2.5906,-2.624,-2.6396,-2.6396,-2.6727,-2.6974,-2.7067,-2.7149,-2.7231,-2.7231,-2.7231,-2.7394,-2.7777,-2.8327,-2.8724,-2.9028,-2.9471,-2.9781,-3.0101,-3.0419,-3.0797,-3.1084,-3.1381,-3.1616,-3.2096,-3.2169,-3.2241,-3.23,-3.2359,-3.2489,-3.2704,-3.2917,-3.3072,-3.3072,-3.3241,-3.3312,-3.3312,-3.3312,-3.3312,-3.3312,-3.3312,-3.3312,-3.3312,-3.3312,-3.3312,-3.3382,-3.3437,-3.4099,-3.4691,-3.5139,-3.5672,-3.6289,-3.6492,-3.6554,-3.6693,-3.6893,-3.7076,-3.7304,-3.7736,-3.7923,-3.8096,-3.8555,-3.9092,-3.9424,-3.9834,-4.0388,-4.115,-4.131,-4.1614,-4.2013,-4.2318,-4.2381,-4.2508,-4.2571,-4.3035,-4.3443,-4.3798,-4.4259,-4.4835,-4.5371,-4.5874,-4.6308,-4.6899,-4.7579,-4.784,-4.8277,-4.8802,-4.9241,-4.9609,-5.0171,-5.082,-5.0891,-5.0891,-5.0891,-5.0891,-5.0855,-5.0873,-5.0891,-5.0891,-5.0891,-5.0891,-5.0891,-5.0891,-5.1084,-5.1312,-5.1485,-5.2155,-5.305,-5.3524,-5.3928,-5.4349,-5.4753,-5.4823,-5.4577,-2.5895,-2.5895,-2.6074,-2.6146,-2.624,-2.6644,-2.6891,-2.6891,-2.7138,-2.7231,-2.7231,-2.7231,-2.7231,-2.7313,-2.7696,-2.8099,-2.8259,-2.87,-2.9003,-2.9172,-2.9406,-2.9947,-3.0393,-3.0771,-3.1158,-3.1936,-3.1863,-3.2009,-3.2241,-3.23,-3.2431,-3.2574,-3.2789,-3.2931,-3.3086,-3.3241,-3.3312,-3.3312,-3.3312,-3.3312,-3.3312,-3.3312,-3.3312,-3.3312,-3.3312,-3.3312,-3.3312,-3.3312,-3.3839,-3.4491,-3.4876,-3.5415,-3.6085,-3.6429,-3.6554,-3.6693,-3.6893,-3.7152,-3.7377,-3.7543,-3.748,-3.7638,-3.7891,-3.8491,-3.9092,-3.9281,-3.955,-4.0325,-4.0499,-4.0928,-4.1534,-4.1949,-4.2188,-4.2379,-4.2555,-4.3141,-4.3604,-4.3856,-4.4202,-4.4763,-4.523,-4.5615,-4.5996,-4.6291,-4.6691,-4.7001,-4.749,-4.8137,-4.8644,-4.91,-4.9469,-5.0048,-5.003,-5.0136,-5.0452,-5.0522,-5.061,-5.0715,-5.075,-5.0855,-5.082,-5.0873,-5.0891,-5.0891,-5.0891,-5.0996,-5.1224,-5.1698,-5.2172,-5.2716,-5.3208,-5.3541,-5.3857,-5.405,-5.4331,-2.5895,-2.5895,-2.5895,-2.6063,-2.6229,-2.6467,-2.6727,-2.6891,-2.7056,-2.7231,-2.7231,-2.7231,-2.7231,-2.7231,-2.7301,-2.7615,-2.8179,-2.8259,-2.8566,-2.9094,-2.9561,-2.9639,-2.9871,-3.0165,-3.062,-3.1158,-3.1381,-3.1703,-3.2023,-3.2169,-3.2241,-3.2255,-3.2574,-3.2717,-3.2931,-3.3157,-3.3312,-3.3312,-3.3312,-3.3312,-3.3312,-3.3312,-3.3312,-3.3312,-3.3312,-3.3312,-3.3312,-3.3312,-3.3577,-3.4221,-3.461,-3.5139,-3.5816,-3.6163,-3.6429,-3.6754,-3.6924,-3.7152,-3.7361,-3.748,-3.748,-3.7496,-3.7638,-3.7923,-3.8491,-3.857,-3.8918,-3.9471,-3.9723,-4.0197,-4.0815,-4.1307,-4.1562,-4.2042,-4.2312,-4.2798,-4.3284,-4.3739,-4.4088,-4.4652,-4.5106,-4.5441,-4.5718,-4.6031,-4.6272,-4.6597,-4.6911,-4.754,-4.8083,-4.8538,-4.8626,-4.8889,-4.8854,-4.9082,-4.9644,-4.9802,-4.9872,-5.0066,-5.0188,-5.0469,-5.0697,-5.075,-5.061,-5.0891,-5.0891,-5.0891,-5.0943,-5.1382,-5.1803,-5.2137,-5.247,-5.2734,-5.3225,-5.3629,-5.391,-2.5895,-2.5895,-2.5895,-2.599,-2.6074,-2.6229,-2.6479,-2.6727,-2.6891,-2.7067,-2.7231,-2.7231,-2.7231,-2.7231,-2.7231,-2.7313,-2.7545,-2.7545,-2.7857,-2.7926,-2.8167,-2.8554,-2.8858,-2.9406,-2.9704,-3.038,-3.0921,-3.1233,-3.1542,-3.1936,-3.2169,-3.2314,-3.2431,-3.2632,-3.2931,-3.3157,-3.3241,-3.3312,-3.3312,-3.3312,-3.3312,-3.3312,-3.3312,-3.3312,-3.3312,-3.3312,-3.3312,-3.3312,-3.3646,-3.4031,-3.4288,-3.489,-3.5479,-3.5879,-3.6274,-3.6723,-3.6908,-3.7136,-3.7285,-3.7421,-3.748,-3.748,-3.7496,-3.7607,-3.7938,-3.7907,-3.8239,-3.8634,-3.898,-3.9404,-3.9944,-4.0322,-4.0654,-4.1401,-4.1943,-4.2415,-4.2883,-4.331,-4.3781,-4.4243,-4.4746,-4.5249,-4.5529,-4.5787,-4.6007,-4.6259,-4.654,-4.6923,-4.7467,-4.7871,-4.7941,-4.8064,-4.8082,-4.831,-4.8872,-4.903,-4.91,-4.9363,-4.9627,-4.9837,-5.0101,-5.0118,-5.0101,-5.0487,-5.0855,-5.082,-5.0908,-5.1136,-5.1382,-5.1593,-5.1698,-5.1803,-5.24,-5.3085,-5.3383,-2.5895,-2.5895,-2.5895,-2.5895,-2.5895,-2.6157,-2.6313,-2.6479,-2.6727,-2.6891,-2.7149,-2.7138,-2.7149,-2.7149,-2.7231,-2.7231,-2.7231,-2.7231,-2.7301,-2.7383,-2.7534,-2.7696,-2.8167,-2.8554,-2.8949,-2.9614,-3.0152,-3.0456,-3.1132,-3.1616,-3.1936,-3.2155,-3.23,-3.2574,-3.2846,-3.3157,-3.3312,-3.3312,-3.3312,-3.3312,-3.3312,-3.3312,-3.3312,-3.3312,-3.3312,-3.3312,-3.3312,-3.3312,-3.3452,-3.377,-3.4085,-3.4476,-3.5059,-3.5563,-3.5993,-3.643,-3.6831,-3.7089,-3.727,-3.7405,-3.748,-3.748,-3.748,-3.748,-3.748,-3.748,-3.7844,-3.8081,-3.8299,-3.8552,-3.9185,-3.9559,-3.9984,-4.0713,-4.1275,-4.1749,-4.2349,-4.2862,-4.3327,-4.3781,-4.4282,-4.4801,-4.5354,-4.5632,-4.5972,-4.6122,-4.6312,-4.6555,-4.6783,-4.7099,-4.7187,-4.7327,-4.7485,-4.7783,-4.8135,-4.8205,-4.8345,-4.8854,-4.9047,-4.9065,-4.9223,-4.9293,-4.9609,-5.0083,-5.0399,-5.0627,-5.0838,-5.1013,-5.0996,-5.0978,-5.1136,-5.1347,-5.161,-5.226,-5.2628,-2.5895,-2.5895,-2.5895,-2.5895,-2.5906,-2.6146,-2.624,-2.624,-2.6561,-2.6715,-2.6891,-2.6891,-2.7067,-2.7149,-2.7149,-2.7231,-2.7231,-2.7231,-2.7301,-2.7371,-2.7371,-2.7626,-2.78,-2.8042,-2.8339,-2.8712,-2.925,-2.9922,-3.0882,-3.1145,-3.1542,-3.2009,-3.23,-3.2431,-3.2704,-3.3086,-3.3241,-3.3312,-3.3241,-3.3312,-3.3312,-3.3312,-3.3312,-3.3312,-3.3312,-3.3312,-3.3312,-3.3312,-3.3382,-3.3507,-3.3825,-3.4085,-3.4409,-3.5141,-3.5667,-3.6165,-3.6646,-3.7103,-3.7464,-3.748,-3.748,-3.748,-3.748,-3.748,-3.748,-3.7496,-3.7512,-3.7765,-3.7805,-3.8086,-3.8571,-3.895,-3.9393,-3.9902,-4.0507,-4.0986,-4.1536,-4.219,-4.2626,-4.3059,-4.3681,-4.4243,-4.4892,-4.5459,-4.5854,-4.6073,-4.6189,-4.6259,-4.6414,-4.6502,-4.6677,-4.6765,-4.6891,-4.7081,-4.7327,-4.738,-4.7608,-4.8152,-4.8363,-4.8257,-4.8363,-4.8521,-4.8942,-4.9556,-4.996,-5.0188,-5.0539,-5.0873,-5.0873,-5.0891,-5.0891,-5.1049,-5.1224,-5.1417,-5.1839,-2.5895,-2.5895,-2.5895,-2.5895,-2.5895,-2.5979,-2.6074,-2.6229,-2.6479,-2.6644,-2.6727,-2.6809,-2.6891,-2.6974,-2.7138,-2.7149,-2.7231,-2.7231,-2.7301,-2.7301,-2.7301,-2.7301,-2.7476,-2.7626,-2.7869,-2.8259,-2.8712,-2.9406,-3.0456,-3.0758,-3.1455,-3.2009,-3.23,-3.2359,-3.2561,-3.286,-3.3072,-3.3143,-3.3227,-3.3312,-3.3312,-3.3312,-3.3312,-3.3312,-3.3312,-3.3312,-3.3312,-3.3312,-3.3312,-3.3312,-3.3632,-3.377,-3.4016,-3.4714,-3.515,-3.5785,-3.6352,-3.6815,-3.7285,-3.748,-3.748,-3.748,-3.748,-3.748,-3.748,-3.748,-3.748,-3.7539,-3.7539,-3.7789,-3.79,-3.7963,-3.8384,-3.901,-3.955,-3.9934,-4.0485,-4.1206,-4.1779,-4.2276,-4.2845,-4.3836,-4.461,-4.5214,-4.5684,-4.5905,-4.6023,-4.6189,-4.6259,-4.6259,-4.6347,-4.633,-4.64,-4.6467,-4.6555,-4.6783,-4.6835,-4.7151,-4.7257,-4.7169,-4.7345,-4.7696,-4.8205,-4.8766,-4.9276,-4.9785,-5.0136,-5.0487,-5.0803,-5.0891,-5.0891,-5.0891,-5.1031,-5.1084,-5.1154,-2.5895,-2.5895,-2.5895,-2.5895,-2.5895,-2.5895,-2.5979,-2.6146,-2.6313,-2.6396,-2.6479,-2.6561,-2.6727,-2.6903,-2.7067,-2.7138,-2.7149,-2.7231,-2.7231,-2.7231,-2.7231,-2.7231,-2.7301,-2.729,-2.7464,-2.7788,-2.8247,-2.8937,-2.9935,-3.0393,-3.1233,-3.1936,-3.23,-3.23,-3.2431,-3.2632,-3.2917,-3.2917,-3.3002,-3.3086,-3.3157,-3.3157,-3.3227,-3.3241,-3.3312,-3.3312,-3.3312,-3.3312,-3.3312,-3.3312,-3.3382,-3.3452,-3.3756,-3.4274,-3.4743,-3.5529,-3.6445,-3.6892,-3.7345,-3.748,-3.748,-3.748,-3.748,-3.748,-3.748,-3.748,-3.748,-3.748,-3.748,-3.7496,-3.7496,-3.748,-3.7773,-3.8412,-3.873,-3.9145,-3.9508,-4.027,-4.0842,-4.1371,-4.188,-4.2998,-4.4096,-4.4932,-4.5477,-4.5684,-4.5854,-4.6023,-4.6189,-4.6189,-4.6189,-4.6189,-4.6189,-4.6259,-4.6326,-4.6312,-4.6312,-4.6207,-4.6312,-4.652,-4.659,-4.6993,-4.7485,-4.7906,-4.8328,-4.8854,-4.9609,-5.0048,-5.0346,-5.068,-5.0891,-5.0891,-5.0891,-5.0891,-5.0891,-2.5874,-2.5874,-2.5895,-2.5895,-2.5895,-2.5895,-2.5895,-2.5895,-2.5895,-2.6074,-2.624,-2.6229,-2.6479,-2.682,-2.6891,-2.7067,-2.7149,-2.7149,-2.7231,-2.7231,-2.7231,-2.7231,-2.7231,-2.7231,-2.7301,-2.7301,-2.7534,-2.8395,-2.9328,-3.0088,-3.1009,-3.179,-3.2155,-3.2241,-3.2372,-3.2503,-3.2632,-3.2704,-3.2775,-3.2917,-3.3002,-3.3058,-3.3157,-3.3241,-3.3312,-3.3312,-3.3312,-3.3312,-3.3312,-3.3312,-3.3312,-3.3312,-3.3646,-3.4303,-3.4876,-3.5657,-3.6693,-3.7225,-3.7464,-3.748,-3.748,-3.748,-3.748,-3.748,-3.748,-3.748,-3.748,-3.748,-3.748,-3.748,-3.748,-3.748,-3.7555,-3.7888,-3.8157,-3.847,-3.8782,-3.9333,-3.987,-4.0337,-4.0751,-4.1617,-4.2835,-4.3817,-4.4746,-4.4955,-4.5147,-4.577,-4.599,-4.6189,-4.6189,-4.6189,-4.6189,-4.6189,-4.6189,-4.6189,-4.6189,-4.6189,-4.6189,-4.6295,-4.6344,-4.6397,-4.6818,-4.7204,-4.738,-4.7959,-4.8977,-4.9574,-4.9908,-5.0224,-5.0504,-5.0803,-5.0768,-5.0873,-5.0891,-2.5382,-2.5415,-2.5753,-2.5895,-2.5895,-2.5895,-2.5895,-2.5895,-2.5895,-2.5906,-2.5979,-2.6313,-2.6561,-2.6727,-2.6985,-2.7149,-2.7149,-2.7231,-2.7231,-2.7231,-2.7231,-2.7231,-2.7231,-2.7231,-2.7301,-2.7371,-2.7522,-2.8007,-2.916,-2.9999,-3.0696,-3.1455,-3.185,-3.2096,-3.2169,-3.23,-3.2444,-3.2503,-3.2561,-3.2775,-3.2917,-3.2988,-3.3157,-3.3241,-3.3312,-3.3312,-3.3312,-3.3312,-3.3312,-3.3312,-3.3312,-3.3312,-3.3382,-3.3646,-3.4099,-3.54,-3.6383,-3.7257,-3.7421,-3.748,-3.748,-3.748,-3.748,-3.748,-3.748,-3.748,-3.748,-3.748,-3.748,-3.748,-3.748,-3.748,-3.748,-3.7638,-3.7844,-3.7967,-3.8217,-3.8547,-3.9065,-3.9477,-3.9887,-4.072,-4.1903,-4.2925,-4.3769,-4.4028,-4.4448,-4.5061,-4.5684,-4.587,-4.6189,-4.6189,-4.6189,-4.6189,-4.6189,-4.6189,-4.6189,-4.6189,-4.6189,-4.6189,-4.6224,-4.6277,-4.6379,-4.659,-4.6923,-4.7661,-4.8591,-4.8977,-4.9135,-4.9627,-4.9978,-5.0364,-5.068,-5.0785,-5.0873,-2.4799,-2.4843,-2.5218,-2.5437,-2.56,-2.5611,-2.571,-2.5863,-2.5895,-2.5895,-2.5895,-2.6146,-2.6396,-2.649,-2.6738,-2.6985,-2.7067,-2.7149,-2.7231,-2.7231,-2.7231,-2.7231,-2.7231,-2.7231,-2.7219,-2.7371,-2.7534,-2.7777,-2.8858,-2.9858,-3.062,-3.0771,-3.1468,-3.1703,-3.1863,-3.2023,-3.2241,-3.2372,-3.2444,-3.2646,-3.2775,-3.2917,-3.3086,-3.3241,-3.3312,-3.3312,-3.3312,-3.3312,-3.3312,-3.3312,-3.3312,-3.3312,-3.3452,-3.3646,-3.4356,-3.5657,-3.6399,-3.7121,-3.7421,-3.748,-3.748,-3.748,-3.748,-3.748,-3.748,-3.748,-3.748,-3.748,-3.748,-3.748,-3.748,-3.748,-3.748,-3.7496,-3.7496,-3.7496,-3.7686,-3.7875,-3.8289,-3.8713,-3.937,-4.0156,-4.109,-4.2094,-4.2707,-4.2812,-4.32,-4.3883,-4.4698,-4.5356,-4.5835,-4.6172,-4.6172,-4.6189,-4.6189,-4.6189,-4.6189,-4.6189,-4.6189,-4.6189,-4.6189,-4.6207,-4.6259,-4.6414,-4.659,-4.7292,-4.7959,-4.8082,-4.8275,-4.8819,-4.9311,-4.9627,-5.0118,-5.068,-5.0768,-2.4151,-2.4162,-2.4396,-2.477,-2.5098,-2.5185,-2.5448,-2.583,-2.5874,-2.5895,-2.5906,-2.599,-2.6146,-2.6479,-2.6727,-2.6903,-2.7067,-2.7149,-2.7231,-2.7231,-2.7231,-2.7231,-2.7231,-2.7231,-2.7231,-2.7231,-2.7301,-2.7615,-2.8247,-2.9172,-2.9858,-2.9999,-3.0846,-3.1167,-3.1182,-3.1896,-3.2101,-3.201,-3.2218,-3.2444,-3.2632,-3.2775,-3.286,-3.3171,-3.3241,-3.3312,-3.3312,-3.3312,-3.3312,-3.3312,-3.3312,-3.3312,-3.3577,-3.4113,-3.5023,-3.5737,-3.6336,-3.6846,-3.7225,-3.7405,-3.748,-3.748,-3.748,-3.748,-3.748,-3.748,-3.748,-3.748,-3.748,-3.748,-3.748,-3.748,-3.748,-3.748,-3.748,-3.748,-3.7559,-3.7745,-3.7896,-3.8243,-3.8653,-3.9446,-3.9895,-4.0806,-4.1494,-4.1566,-4.2088,-4.279,-4.3541,-4.4474,-4.5217,-4.5813,-4.6154,-4.6172,-4.6189,-4.6189,-4.6189,-4.6189,-4.6189,-4.6189,-4.6189,-4.6189,-4.6189,-4.6277,-4.6449,-4.666,-4.7099,-4.7257,-4.7573,-4.8152,-4.8591,-4.8854,-4.9398,-5.0048,-5.0627,-2.3819,-2.3863,-2.4323,-2.4563,-2.4705,-2.5033,-2.5218,-2.5393,-2.5753,-2.5968,-2.6146,-2.6302,-2.6479,-2.6655,-2.6903,-2.7067,-2.7067,-2.7138,-2.7149,-2.7231,-2.7231,-2.7231,-2.7231,-2.7231,-2.7231,-2.7231,-2.7231,-2.7383,-2.7846,-2.8474,-2.9015,-2.925,-3.0139,-3.0703,-3.0537,-3.1449,-3.1866,-3.1667,-3.1969,-3.2191,-3.2335,-3.2605,-3.2846,-3.3072,-3.3157,-3.3241,-3.3241,-3.3241,-3.3312,-3.3312,-3.3312,-3.3396,-3.355,-3.4278,-3.4787,-3.5299,-3.6022,-3.6523,-3.6907,-3.7225,-3.7405,-3.748,-3.748,-3.748,-3.748,-3.748,-3.748,-3.748,-3.748,-3.748,-3.748,-3.748,-3.748,-3.748,-3.748,-3.748,-3.748,-3.7539,-3.7583,-3.7839,-3.8168,-3.8527,-3.8959,-3.9446,-4.0097,-4.0621,-4.1147,-4.1822,-4.2492,-4.3322,-4.4268,-4.4989,-4.5915,-4.6137,-4.6172,-4.6189,-4.6189,-4.6189,-4.6189,-4.6189,-4.6189,-4.6189,-4.6189,-4.6189,-4.6277,-4.652,-4.6555,-4.6435,-4.6888,-4.7485,-4.7783,-4.7994,-4.8415,-4.9012,-4.9855,-2.3102,-2.3221,-2.3623,-2.3951,-2.417,-2.4432,-2.4661,-2.4934,-2.5371,-2.5744,-2.5953,-2.6284,-2.6561,-2.682,-2.6985,-2.7067,-2.7149,-2.7138,-2.7149,-2.7231,-2.7231,-2.7231,-2.7231,-2.7231,-2.7231,-2.7231,-2.7231,-2.7301,-2.7406,-2.7834,-2.8223,-2.8414,-2.9462,-3.0086,-2.999,-3.0923,-3.1424,-3.1355,-3.168,-3.1888,-3.2099,-3.2338,-3.2605,-3.2846,-3.3002,-3.3086,-3.3157,-3.3157,-3.3227,-3.3241,-3.3312,-3.3396,-3.3605,-3.402,-3.4534,-3.4971,-3.5544,-3.6148,-3.6554,-3.689,-3.7175,-3.7219,-3.7433,-3.7417,-3.748,-3.748,-3.748,-3.748,-3.748,-3.748,-3.748,-3.748,-3.748,-3.748,-3.748,-3.748,-3.7539,-3.7583,-3.7642,-3.7716,-3.8014,-3.8334,-3.8715,-3.8972,-3.9467,-3.9649,-4.0216,-4.074,-4.1409,-4.2193,-4.3134,-4.406,-4.4998,-4.5909,-4.6172,-4.6189,-4.6189,-4.6189,-4.6102,-4.6172,-4.6172,-4.6172,-4.6189,-4.6189,-4.6189,-4.6224,-4.6224,-4.6189,-4.6224,-4.6765,-4.6976,-4.7099,-4.7573,-4.8047,-4.8749,-2.2424,-2.2478,-2.2874,-2.3241,-2.3624,-2.3733,-2.3995,-2.4421,-2.488,-2.5238,-2.5477,-2.5909,-2.6295,-2.6633,-2.682,-2.6891,-2.6974,-2.7138,-2.7231,-2.7231,-2.7231,-2.7231,-2.7231,-2.7231,-2.7231,-2.7231,-2.7231,-2.7128,-2.7117,-2.7325,-2.745,-2.7577,-2.8313,-2.9172,-2.9668,-3.0372,-3.0833,-3.1148,-3.1368,-3.149,-3.1724,-3.2,-3.2407,-3.2618,-3.269,-3.2846,-3.2917,-3.3058,-3.3143,-3.3297,-3.3368,-3.3394,-3.3448,-3.3747,-3.3926,-3.4332,-3.4589,-3.5223,-3.5799,-3.6121,-3.6484,-3.6833,-3.7152,-3.7275,-3.7259,-3.7354,-3.7354,-3.748,-3.748,-3.748,-3.748,-3.748,-3.748,-3.748,-3.748,-3.748,-3.7539,-3.7583,-3.7642,-3.77,-3.7934,-3.8164,-3.8391,-3.8616,-3.8838,-3.8985,-3.9226,-3.9719,-4.0288,-4.1137,-4.2088,-4.2955,-4.3916,-4.4795,-4.5751,-4.5733,-4.5607,-4.587,-4.5782,-4.601,-4.6154,-4.6172,-4.6189,-4.6189,-4.6189,-4.6154,-4.6172,-4.6189,-4.6242,-4.6326,-4.6467,-4.6677,-4.6888,-4.7327,-4.7678,-2.2478,-2.2639,-2.2703,-2.2917,-2.3198,-2.3558,-2.3787,-2.394,-2.4388,-2.4766,-2.5024,-2.5583,-2.6147,-2.6798,-2.7067,-2.7149,-2.7149,-2.7231,-2.7231,-2.7231,-2.7231,-2.7231,-2.7196,-2.7128,-2.7208,-2.7128,-2.7013,-2.6944,-2.668,-2.6668,-2.6563,-2.6442,-2.7614,-2.8199,-2.832,-2.9261,-3.0667,-3.081,-3.126,-3.1585,-3.182,-3.2082,-3.2362,-3.2561,-3.2775,-3.2917,-3.2988,-3.3157,-3.3241,-3.3382,-3.3451,-3.332,-3.3268,-3.3231,-3.339,-3.3383,-3.3652,-3.4003,-3.4483,-3.5017,-3.5406,-3.5669,-3.5954,-3.6421,-3.6564,-3.6864,-3.7022,-3.7449,-3.748,-3.748,-3.748,-3.748,-3.748,-3.748,-3.748,-3.748,-3.7539,-3.7583,-3.7642,-3.77,-3.7817,-3.8049,-3.8278,-3.8504,-3.8616,-3.8821,-3.8969,-3.9412,-3.9821,-4.0425,-4.1047,-4.1919,-4.2827,-4.3938,-4.4975,-4.4729,-4.4641,-4.501,-4.5343,-4.5431,-4.5694,-4.6137,-4.6172,-4.601,-4.6081,-4.6133,-4.6168,-4.6189,-4.6189,-4.6224,-4.6207,-4.6312,-4.6484,-4.666,-4.7029]}]]